GFSSGP_925_spd_000.txt.gz
Wind_Speed
6 4 2 5 6 6 5 7 3 6 3 7 6 6 15 13 8 6 7 11 8 7 6 5 5 5 6 6 6 3 4 5 2 9 13 14 14 11 11 14 15 14 12 11 11 11 11 9 8
5 3 5 3 7 8 8 6 4 4 6 1 4 6 10 15 11 8 3 11 8 4 5 4 5 6 4 7 9 8 4 4 4 12 12 9 8 16 10 22 13 12 11 10 11 11 11 10 7
2 3 5 3 4 6 2 3 6 5 4 5 5 8 4 7 11 6 7 6 4 5 5 5 5 4 4 3 5 5 8 8 8 12 9 1 5 9 20 21 18 13 12 9 8 8 8 9 10
4 6 4 6 6 7 5 7 6 2 5 1 9 10 9 6 4 6 6 6 6 5 6 4 5 4 2 1 2 3 5 7 9 10 10 4 5 7 13 17 16 12 9 8 6 6 7 6 10
3 3 4 6 10 8 7 9 5 4 5 6 2 9 9 4 0 7 7 8 7 6 5 5 4 3 3 2 2 2 2 2 3 4 6 6 3 8 9 10 9 7 9 8 8 7 8 10 11
3 3 8 9 12 8 9 10 7 10 7 7 11 10 7 7 7 8 7 7 7 7 5 5 5 4 4 3 2 2 3 4 5 6 6 7 8 5 8 7 5 5 5 7 8 7 7 6 8
2 5 11 11 10 10 8 6 11 7 6 9 3 3 7 7 7 5 5 6 7 6 4 3 3 4 6 4 3 4 4 5 5 6 7 7 7 8 9 9 7 7 8 9 8 8 7 8 8
2 6 11 5 6 10 7 5 3 9 7 2 4 3 7 4 3 3 3 5 5 5 5 5 3 3 3 3 6 5 3 5 5 6 6 7 7 8 8 10 11 11 13 13 12 12 12 11 9
2 5 8 7 4 6 6 3 6 1 4 3 2 2 5 6 4 3 3 1 1 4 6 5 3 3 3 3 4 6 6 4 3 4 5 3 1 3 6 6 8 9 14 14 14 13 12 11 10
2 6 7 4 3 4 4 4 3 4 5 5 7 7 8 8 7 6 5 4 4 4 5 5 2 3 3 1 0 3 3 4 5 3 2 1 8 12 15 11 21 24 21 21 16 12 11 8 8
5 9 3 4 4 6 5 1 1 4 5 4 9 11 11 11 10 8 6 4 3 3 4 5 3 1 1 1 2 2 6 4 4 5 4 1 4 7 11 13 24 37 27 21 24 16 8 9 12
9 5 3 6 5 2 3 3 3 5 3 1 8 11 12 11 9 7 6 5 4 3 3 4 6 6 7 6 7 8 8 9 8 8 7 4 3 1 5 8 14 20 20 23 29 20 10 19 17
6 4 4 3 2 4 1 2 3 4 4 4 7 9 10 8 7 7 5 4 4 4 3 2 5 6 7 8 8 10 9 9 9 9 9 7 6 5 3 3 5 6 5 11 19 16 15 17 24
4 4 4 4 5 2 8 6 4 5 8 9 10 11 10 9 9 6 6 4 4 3 3 3 4 5 6 8 9 9 8 8 9 9 9 8 6 5 3 3 6 8 12 19 22 28 21 22 17
2 3 4 3 5 3 10 9 8 3 10 11 13 12 11 11 10 10 6 6 6 5 5 5 5 7 8 8 8 8 8 8 9 10 10 10 9 7 4 4 7 9 7 9 20 24 24 25 22
2 3 3 5 8 2 7 9 5 6 10 12 14 14 14 14 15 11 8 8 8 7 7 6 5 7 8 8 7 8 8 8 9 9 9 9 9 8 6 5 5 6 8 8 8 7 7 11 17
4 5 6 6 4 8 4 15 4 7 11 15 14 14 15 14 15 15 12 11 10 8 8 7 7 7 7 8 8 8 7 7 7 8 7 7 7 6 6 5 5 7 8 8 10 10 8 10 9
7 6 6 9 6 9 17 21 18 12 13 17 15 15 15 15 16 16 14 13 12 10 9 8 7 7 7 7 7 6 6 5 4 5 5 4 4 4 5 5 5 6 7 8 10 10 10 10 11
4 6 12 8 4 13 14 22 21 17 11 12 11 11 12 14 13 14 16 16 13 12 11 10 10 9 8 7 6 6 5 5 3 2 3 2 1 2 4 5 7 7 7 7 9 10 11 12 13
8 14 11 4 4 13 16 23 15 5 5 5 5 3 5 8 9 14 17 18 19 18 16 13 12 11 10 9 7 7 6 5 4 4 5 5 4 4 4 6 8 9 11 11 10 11 12 11 11
10 10 12 16 22 10 13 7 4 5 3 3 2 2 3 3 6 10 16 21 21 21 18 17 15 14 13 11 8 7 8 8 8 8 7 7 8 7 7 8 10 11 12 13 14 14 14 15 14
9 5 11 17 15 7 9 6 5 3 7 5 5 5 8 7 4 6 10 17 21 22 20 19 18 17 16 14 12 12 11 11 9 9 10 9 8 9 9 11 12 13 14 15 17 17 18 19 19
5 13 16 12 9 9 6 5 2 3 3 4 5 5 5 6 6 7 8 11 17 20 21 20 20 19 18 15 15 13 14 13 12 11 11 10 9 8 10 11 13 15 17 19 20 20 21 22 24
10 13 11 4 2 4 4 4 3 2 4 6 4 8 8 8 8 8 9 10 15 20 21 20 21 22 20 17 17 18 17 16 13 11 9 9 8 10 11 11 13 15 18 20 22 24 25 26 27
11 10 4 3 3 6 4 9 9 6 4 6 8 8 7 7 10 11 10 11 15 19 22 22 21 22 21 19 18 16 14 12 10 7 7 7 9 10 13 15 17 19 21 23 24 26 28 29 31
4 5 3 5 5 11 14 7 0 3 5 6 6 6 7 9 11 12 11 12 14 18 21 22 21 21 21 19 16 13 11 9 6 4 5 7 9 12 15 18 21 23 24 26 27 29 31 31 32
2 2 3 5 1 5 5 8 16 7 4 3 6 8 9 12 12 13 12 13 16 19 22 23 22 20 19 15 13 11 9 7 5 5 6 9 12 15 18 20 22 23 24 25 26 29 30 31 32
4 2 3 3 5 6 7 16 10 6 9 9 12 11 11 15 15 15 14 17 17 18 19 20 20 19 17 16 14 11 9 7 6 6 9 12 15 17 20 22 23 25 26 27 28 29 30 32 33
6 4 4 4 4 4 7 7 6 12 16 13 12 12 16 18 17 17 17 20 18 17 14 17 18 17 17 15 12 11 9 7 6 8 11 15 17 20 22 23 24 26 28 27 28 29 31 31 33
8 7 5 3 5 7 6 17 20 18 9 6 13 19 20 19 18 16 18 21 16 14 15 16 15 15 13 12 11 10 6 5 8 12 15 17 20 21 23 24 26 28 28 28 28 30 31 31 33

GFSSGP_925_spd_003.txt.gz
Wind_Speed
9 8 7 8 7 7 14 8 8 5 9 10 7 13 19 20 16 6 10 12 7 7 4 4 3 2 1 2 2 2 2 4 3 4 7 7 7 10 5 6 3 10 13 9 9 11 11 9 9
6 6 10 8 9 8 5 14 7 10 9 2 4 5 13 17 16 13 10 8 6 5 3 6 5 4 1 1 1 3 2 2 3 1 3 6 10 9 18 11 23 25 12 15 11 9 10 10 9
7 8 10 5 9 7 11 6 10 4 2 5 4 12 8 9 16 8 10 9 8 8 6 6 5 5 3 1 1 3 3 4 5 5 5 6 1 10 14 16 16 15 14 19 13 11 10 9 8
7 7 5 9 3 12 11 8 0 6 5 2 6 9 8 6 4 10 11 9 9 9 6 5 3 2 3 1 1 1 1 2 3 5 6 2 1 4 2 9 9 11 16 17 13 15 12 11 9
11 6 4 6 7 6 9 4 1 2 8 3 6 11 7 7 6 9 8 6 6 6 5 4 1 2 1 1 2 1 2 3 4 4 4 2 3 2 1 3 5 9 9 21 7 4 7 3 6
7 6 7 7 9 10 10 8 7 7 7 2 9 11 6 8 7 5 6 5 4 5 3 2 3 2 2 2 1 1 1 1 3 3 3 2 3 3 3 3 4 3 2 5 3 2 2 3 5
14 8 12 9 10 8 8 7 7 5 6 6 2 6 11 9 7 6 4 4 3 3 2 1 1 2 4 5 4 3 2 1 1 2 1 2 2 2 3 2 0 4 6 5 3 2 4 4 5
6 2 6 4 7 8 3 6 3 9 8 1 5 3 12 10 10 7 6 4 2 1 1 2 2 2 3 3 7 7 6 3 1 1 4 4 2 6 9 5 3 4 3 4 6 6 9 9 9
9 5 7 4 2 5 4 3 5 1 1 1 2 5 7 12 10 9 7 6 3 1 3 3 4 5 5 4 4 5 7 7 5 4 1 3 6 5 6 13 9 5 5 11 7 8 9 10 10
9 5 7 4 3 6 2 6 4 6 6 6 4 3 6 9 9 7 6 4 2 1 2 4 3 5 5 4 2 1 2 2 2 1 2 2 3 5 5 5 6 10 13 14 9 14 24 12 12
9 10 1 4 8 9 10 6 3 9 9 1 6 8 8 10 9 7 6 2 2 1 3 4 4 3 3 1 2 3 2 3 1 1 1 1 1 2 4 5 6 8 12 9 14 14 20 21 21
8 6 6 7 6 7 8 9 8 7 8 6 5 6 9 9 7 7 6 4 4 3 2 1 2 1 2 0 2 3 4 4 4 4 3 3 2 1 1 3 3 4 6 9 12 16 11 11 16
5 4 2 1 2 4 5 7 8 10 1 3 2 5 8 8 9 6 5 4 4 5 3 2 0 1 1 3 3 4 4 4 3 3 3 2 3 3 2 1 3 4 5 4 6 7 6 13 16
2 1 0 3 2 4 9 12 6 11 6 8 9 10 11 10 10 10 8 8 7 5 5 4 5 4 3 3 4 4 4 4 4 4 4 4 3 3 2 2 2 4 5 7 11 14 16 17 19
1 10 5 4 4 8 10 19 10 6 8 11 13 13 13 12 14 14 12 10 9 8 8 7 7 8 8 7 7 6 5 5 4 5 5 6 4 4 3 3 4 5 5 8 10 12 16 18 20
6 7 7 6 4 3 8 13 5 9 10 12 12 13 14 15 17 16 14 12 12 12 12 11 9 9 9 8 7 6 7 7 7 6 6 5 5 4 3 3 3 5 4 5 7 8 9 10 12
4 9 7 8 2 7 7 17 11 7 11 14 14 13 14 14 17 18 16 14 13 11 10 10 9 8 8 7 6 5 6 7 6 6 5 4 4 3 2 3 4 5 5 6 8 8 8 10 12
10 10 11 12 7 10 16 19 15 15 14 14 13 13 13 13 14 16 16 13 13 12 12 12 12 11 10 9 8 8 8 7 7 6 5 4 3 2 1 2 4 5 5 6 7 9 10 11 12
7 11 14 12 7 12 13 20 15 9 6 4 6 5 8 9 9 11 13 15 15 15 14 14 15 13 13 12 11 11 11 10 9 9 7 5 4 4 3 4 5 6 8 7 8 9 11 11 10
12 13 11 11 14 17 17 18 10 6 5 3 2 3 1 2 4 6 13 17 19 18 18 18 18 16 16 15 14 14 13 12 12 10 9 9 8 7 7 6 8 8 11 11 11 10 14 14 13
14 10 16 18 19 17 13 12 6 6 7 6 6 5 4 3 3 4 9 15 18 20 20 20 19 18 18 17 15 13 12 12 13 14 14 17 13 12 11 10 11 11 12 14 14 15 15 17 17
12 10 15 18 17 9 12 7 3 3 7 6 4 4 5 5 3 2 6 10 15 19 18 20 20 21 20 19 19 18 19 18 18 16 13 12 10 11 13 13 13 13 15 16 17 19 19 20 21
9 16 16 15 12 11 3 6 4 5 2 2 2 4 5 7 7 7 9 12 12 15 19 21 22 23 23 21 22 20 20 20 17 15 13 12 12 12 11 12 13 14 15 18 20 23 22 24 24
14 19 20 1 6 6 6 3 11 5 2 2 4 5 5 8 9 10 14 11 13 11 16 19 21 24 25 25 25 24 23 18 16 12 10 10 12 10 11 10 11 13 16 18 22 23 25 26 26
14 13 5 3 5 8 4 7 13 7 4 4 4 6 6 8 9 11 12 15 15 13 15 18 22 26 28 27 27 24 22 20 17 13 10 9 7 10 10 11 13 15 18 20 22 25 27 27 28
8 8 3 5 6 13 17 8 5 1 4 4 3 6 7 7 12 14 14 16 16 18 17 20 24 27 28 28 28 24 21 17 14 11 8 7 10 10 11 13 15 18 20 22 24 26 27 28 29
3 5 5 6 9 6 8 12 16 13 1 1 8 9 9 12 14 13 15 18 17 17 23 25 26 29 28 26 24 21 18 16 14 9 9 8 9 11 14 15 17 20 22 23 24 26 28 28 29
8 7 5 4 5 11 10 16 11 6 8 6 10 10 12 14 14 14 13 15 18 23 27 23 27 27 24 23 17 16 16 14 12 9 7 9 10 13 16 19 21 23 23 24 26 26 28 29 29
7 9 4 5 7 6 10 7 11 22 23 17 11 13 16 15 14 14 16 22 26 28 25 24 23 19 18 17 13 15 15 12 7 6 8 10 12 16 19 22 24 24 25 26 27 29 31 31 31
6 9 10 8 8 9 15 18 20 14 7 8 15 15 15 15 14 14 18 28 28 29 22 21 17 16 14 12 14 14 13 8 7 8 12 13 16 19 22 24 26 27 28 28 30 32 32 32 32

GFSSGP_925_spd_006.txt.gz
Wind_Speed
11 15 10 12 6 6 15 6 11 12 8 11 11 14 21 18 14 8 12 10 9 8 7 10 11 10 9 8 8 10 10 10 8 4 2 2 6 10 11 15 7 8 18 22 14 15 16 13 11
12 12 8 6 7 11 6 11 11 15 11 3 4 17 21 17 21 13 17 9 9 10 13 11 10 10 9 7 8 8 10 9 7 4 3 3 5 7 8 8 15 18 26 26 20 14 17 14 11
11 9 6 5 10 4 6 15 12 12 5 6 3 21 11 4 14 10 18 14 13 10 12 10 9 10 10 8 7 7 8 8 8 6 6 3 3 5 5 8 13 12 16 16 5 5 18 14 10
8 6 5 9 6 12 11 10 6 6 5 5 2 12 9 5 13 18 13 13 12 11 10 8 8 10 9 9 8 7 5 6 6 6 4 5 3 4 4 3 9 7 11 10 11 11 18 18 10
13 5 11 2 15 11 8 0 3 2 5 2 6 9 10 13 11 11 11 10 12 10 8 7 9 9 9 7 7 6 5 4 5 4 5 4 3 5 6 5 3 4 7 8 7 18 20 30 16
8 10 11 8 9 10 9 11 5 6 6 4 13 15 7 4 5 8 8 10 10 9 7 7 8 8 8 7 5 3 2 2 1 1 1 2 3 2 4 5 6 4 2 5 8 8 16 12 5
14 11 8 12 7 9 6 8 10 8 7 6 14 15 5 7 8 3 7 8 8 7 7 5 2 5 6 7 6 3 1 2 3 3 2 2 1 2 2 3 4 5 4 7 14 10 6 4 6
9 7 7 5 6 10 2 2 5 8 9 7 7 5 2 15 12 6 4 4 3 4 6 5 2 6 5 2 7 5 4 1 2 2 3 2 2 2 2 1 4 5 5 4 7 10 8 3 6
11 6 8 8 10 6 6 7 7 1 5 3 7 11 13 15 13 9 8 6 5 5 6 4 5 4 1 5 2 2 7 5 4 4 2 4 5 3 1 2 4 2 1 5 1 2 3 3 2
7 7 14 8 7 11 4 2 7 4 7 9 6 5 6 10 10 9 9 8 7 5 6 7 6 5 4 5 2 4 5 4 2 2 3 2 3 2 4 3 3 5 8 11 12 7 4 1 3
15 13 4 6 10 9 10 9 4 7 9 12 5 10 5 6 7 4 3 8 9 6 5 6 6 5 4 5 2 2 3 3 4 4 3 2 2 3 0 4 3 4 7 7 9 10 16 19 12
9 7 7 9 5 6 8 10 8 8 8 6 3 3 6 6 5 3 3 3 4 3 3 2 2 3 5 4 6 7 6 5 4 3 2 3 2 2 2 1 1 4 6 7 8 12 13 14 21
6 3 2 2 3 2 7 10 6 8 10 3 3 2 6 6 8 6 4 3 2 4 4 5 5 5 4 4 4 4 7 7 5 4 5 4 3 4 5 3 2 2 3 6 9 11 11 14 11
4 4 2 2 3 6 8 12 10 9 6 3 6 8 8 8 10 9 9 9 8 8 6 7 6 5 4 4 6 8 8 7 5 5 3 3 3 3 2 2 2 3 4 6 8 8 13 17 19
4 9 12 8 2 9 8 16 16 7 9 7 9 10 10 11 14 13 12 12 13 10 8 7 7 6 6 7 7 6 6 6 6 5 3 4 2 3 3 1 0 1 5 7 9 10 8 10 15
12 7 7 5 3 3 5 13 8 7 10 11 11 11 12 13 15 15 15 13 10 8 11 10 10 11 11 10 11 10 9 8 8 7 6 5 6 5 2 1 1 4 2 4 6 10 12 12 13
2 10 11 8 5 2 6 15 15 15 11 12 12 11 11 14 16 18 15 15 12 11 10 11 10 9 11 10 9 10 9 10 11 11 10 7 5 4 4 3 2 2 3 4 5 9 11 13 14
10 10 11 12 9 9 12 15 14 15 15 12 10 11 11 7 8 18 19 13 12 10 11 10 11 12 12 11 11 9 10 12 10 11 13 11 10 6 5 4 3 2 4 4 7 9 11 13 16
10 13 15 15 8 16 16 17 15 5 7 7 7 7 7 5 6 3 12 12 10 10 10 12 13 13 13 13 12 13 13 14 14 15 14 10 10 9 7 5 2 3 5 6 8 9 10 15 17
15 14 12 12 17 15 18 19 14 8 6 6 4 6 7 6 6 9 6 8 9 11 14 15 16 15 16 15 16 17 16 18 21 18 19 17 12 12 10 10 7 6 5 8 11 11 11 13 16
14 8 13 17 18 15 12 12 10 6 11 8 6 5 6 5 6 6 1 4 8 13 15 16 18 19 19 21 20 19 19 17 13 15 13 17 20 17 15 13 11 10 8 8 10 14 17 18 15
10 13 16 17 14 9 15 7 5 11 11 10 7 6 5 5 4 3 1 4 6 15 16 17 19 20 21 21 22 24 19 18 22 24 24 29 27 21 18 14 13 11 9 10 12 12 13 17 18
10 16 19 20 14 10 4 5 11 7 8 11 9 6 6 5 6 6 8 11 5 7 9 16 18 21 23 23 24 27 26 22 22 16 15 12 10 9 7 8 11 13 9 9 12 15 19 19 20
12 17 20 4 0 3 6 2 10 6 4 5 4 6 7 6 7 6 11 11 13 9 7 11 17 22 25 26 27 26 28 25 17 19 10 8 7 7 3 3 3 5 8 10 13 16 19 21 23
15 13 4 4 2 4 14 10 11 16 0 3 7 7 5 2 3 4 7 10 9 12 14 13 19 23 25 26 28 30 27 25 23 20 14 11 8 5 3 6 8 11 13 17 20 22 24 24 26
14 7 2 4 4 10 18 6 7 4 5 6 4 2 7 3 3 7 7 7 10 12 16 17 21 23 24 28 31 29 30 23 20 18 12 7 4 4 5 7 11 13 15 20 22 24 24 24 26
6 4 6 5 9 4 5 13 14 6 7 8 8 9 6 5 5 7 7 10 10 11 14 21 26 25 26 27 29 25 22 20 13 8 9 4 3 5 4 8 11 18 19 21 22 24 25 25 27
7 7 3 1 3 6 8 15 10 13 17 21 15 9 9 7 10 7 6 12 16 21 20 25 24 23 24 25 20 10 8 8 7 5 3 3 6 11 11 13 17 19 21 23 24 25 25 26 28
3 6 6 8 5 4 6 6 11 23 24 12 16 16 15 8 6 5 4 9 15 19 21 27 25 19 20 16 19 6 6 7 7 6 5 5 9 13 18 19 19 22 24 25 26 27 28 29 30
5 8 8 3 8 9 12 14 17 13 9 24 20 13 12 9 8 10 13 14 16 16 24 31 25 17 14 14 5 4 7 8 8 9 5 7 12 19 18 20 22 24 26 26 27 28 29 29 29

GFSSGP_925_spd_012.txt.gz
Wind_Speed
14 11 8 3 4 5 4 3 1 4 5 6 11 12 9 5 4 7 6 11 15 11 8 9 10 11 12 14 14 14 13 11 8 5 7 7 8 7 5 6 9 6 2 2 2 6 8 8 10
14 9 3 3 5 5 4 5 5 4 10 12 9 9 10 8 4 9 8 12 11 8 9 8 10 11 11 12 12 11 11 9 6 5 6 7 7 7 5 7 10 6 5 3 3 3 3 7 12
8 3 4 4 4 4 1 4 4 7 3 2 5 4 5 4 5 7 15 13 8 7 7 9 10 11 11 10 9 9 8 7 6 7 6 6 8 8 9 10 11 11 6 6 3 1 6 12 16
3 7 4 5 2 1 3 7 4 3 7 8 6 7 4 3 6 14 19 10 6 7 8 9 9 10 9 9 8 8 8 7 7 6 6 5 5 5 6 10 9 7 4 4 3 1 2 8 7
5 4 4 4 4 1 5 8 9 7 3 5 4 4 4 4 23 25 20 13 11 12 11 10 10 10 9 8 8 6 6 7 6 6 6 5 4 2 1 2 2 3 4 3 5 4 9 6 7
4 3 4 1 3 4 4 7 6 5 3 3 6 5 3 14 21 21 20 16 12 13 12 9 9 10 10 7 6 5 5 4 5 4 4 5 5 3 1 1 2 2 3 3 3 2 10 11 11
6 4 5 4 3 4 3 5 5 6 6 2 10 5 0 3 14 19 20 16 14 13 13 12 12 11 8 8 6 4 4 4 5 4 4 5 5 6 5 2 0 1 1 1 1 2 7 5 6
5 4 4 2 3 2 6 2 7 6 4 6 4 5 5 9 14 16 21 18 15 14 11 11 10 10 8 7 7 5 5 4 3 4 4 4 4 4 4 3 2 1 0 2 2 2 5 6 6
4 5 3 1 3 3 6 4 4 2 5 1 1 6 3 23 17 15 17 18 20 19 16 14 10 8 7 7 9 9 7 8 7 4 6 5 4 3 3 2 3 4 4 3 2 2 4 5 4
6 4 2 3 4 1 3 3 2 3 5 6 5 6 18 21 17 15 11 19 17 20 16 11 6 7 8 8 10 10 8 6 6 6 6 6 5 2 1 1 2 3 3 4 5 5 6 7 7
2 3 3 2 2 2 3 4 4 3 4 8 11 9 11 14 19 19 15 24 21 15 11 7 4 8 7 8 14 12 9 8 7 7 7 8 7 6 7 6 5 5 6 8 6 4 4 8 10
5 2 3 3 1 2 1 1 4 1 5 7 12 15 9 9 12 12 13 27 21 17 11 6 3 7 3 7 11 9 9 9 9 6 6 5 7 6 6 7 7 5 4 5 5 6 7 7 8
2 2 2 5 5 4 2 3 5 4 5 7 13 10 12 9 14 16 26 25 20 17 12 6 2 6 5 6 11 11 11 12 12 10 9 8 9 7 7 9 7 6 5 4 6 7 8 11 11
3 2 5 7 5 4 4 4 3 7 7 7 12 12 11 11 17 16 26 26 25 20 16 12 8 6 8 6 7 7 9 9 9 10 9 8 8 8 9 9 8 7 6 6 6 5 6 8 10
3 4 7 8 2 4 4 3 5 4 10 11 11 10 10 10 17 24 29 29 25 19 17 15 11 8 8 9 9 9 11 12 13 12 11 10 11 9 9 10 10 9 7 6 3 4 4 5 7
3 4 3 7 5 4 4 7 7 4 9 12 11 9 9 10 17 23 29 26 20 17 19 16 11 8 8 7 9 10 12 12 13 14 14 12 12 12 12 11 10 7 6 5 3 2 4 5 7
6 3 4 7 6 3 1 7 8 4 8 11 9 9 7 6 8 20 23 22 20 17 20 16 12 10 10 8 10 11 12 16 15 16 17 15 13 13 12 12 11 9 9 8 7 4 4 4 7
5 5 5 1 6 5 5 7 9 6 5 10 10 6 5 5 8 17 13 14 16 18 17 12 11 10 10 10 11 13 15 16 18 19 20 20 17 15 15 14 14 11 11 12 11 7 5 6 7
1 3 3 4 4 8 5 9 14 5 4 8 7 9 8 6 5 10 21 23 21 18 15 13 12 12 13 14 15 16 18 18 20 22 22 25 23 21 18 18 16 16 14 14 14 9 8 7 6
6 3 4 6 6 3 9 10 7 7 4 7 10 9 8 6 7 14 20 18 15 16 13 13 13 13 15 17 20 20 20 24 26 26 24 27 28 28 26 24 22 19 18 17 15 11 8 8 7
3 2 4 6 7 3 6 7 6 4 4 5 4 6 7 9 8 6 10 12 11 13 12 12 13 14 16 19 22 23 24 25 26 28 28 32 32 32 32 31 27 23 21 21 18 13 10 8 5
5 4 4 6 4 2 4 3 3 3 3 3 4 5 7 8 5 4 5 6 9 11 12 14 16 16 19 21 25 28 30 30 35 36 35 32 28 33 35 33 30 25 22 18 14 8 5 1 3
7 7 8 5 4 3 9 3 5 3 4 0 7 7 5 5 6 5 6 8 8 8 6 8 12 16 17 19 21 24 31 37 39 39 35 32 29 29 34 32 28 22 18 16 10 2 3 6 9
6 6 4 3 3 3 4 1 4 5 4 5 3 6 6 4 5 6 8 7 7 7 6 5 8 12 13 18 23 26 30 34 36 38 39 36 29 25 28 31 25 20 15 12 6 5 7 13 17
8 6 4 5 5 3 6 5 2 1 5 5 5 1 3 8 9 6 5 5 3 6 5 7 9 11 14 19 23 27 31 34 36 37 36 33 21 19 19 21 17 16 10 7 6 12 17 23 25
4 4 4 1 1 5 7 3 3 7 6 9 5 6 7 7 5 2 5 7 10 11 10 9 10 15 24 28 31 32 29 25 26 27 30 27 24 20 19 21 12 4 5 13 17 19 22 20 20
4 4 1 3 2 3 4 6 6 10 5 8 5 10 8 8 8 7 8 9 11 10 10 13 20 26 33 30 27 26 22 23 22 21 16 17 26 22 16 12 10 11 15 21 18 15 18 22 26
2 1 4 4 2 3 5 5 6 8 14 18 14 6 8 6 8 7 10 9 7 9 14 21 30 33 32 27 26 23 21 16 13 7 17 25 20 14 7 5 15 16 6 9 12 19 24 26 28
5 4 4 0 4 3 2 5 5 12 11 9 7 7 4 5 5 5 8 13 17 18 17 21 26 24 25 24 23 19 10 9 13 14 18 14 9 2 10 14 6 8 11 13 19 23 24 24 25
1 4 5 3 5 3 4 10 13 6 13 3 6 6 6 5 4 4 5 11 16 17 18 22 27 24 22 27 21 11 12 15 16 14 11 7 2 2 2 6 9 11 15 17 18 21 22 26 29

GFSSGP_925_spd_015.txt.gz
Wind_Speed
12 7 2 4 4 5 2 4 3 5 4 5 2 7 6 4 1 3 5 12 13 13 11 11 10 11 11 12 10 9 10 8 7 7 8 8 10 10 10 9 12 11 5 2 2 4 7 7 9
12 4 3 2 5 5 4 4 6 3 7 9 7 3 5 3 2 7 9 14 13 12 11 10 10 8 9 11 8 9 9 7 6 6 6 6 7 6 6 7 9 3 5 4 4 6 5 8 13
5 2 4 5 4 3 1 1 6 2 7 2 4 4 3 2 3 9 13 14 12 11 10 10 9 9 9 9 7 7 6 5 4 5 6 5 6 5 5 5 5 8 8 6 2 4 7 10 12
2 7 5 6 6 2 2 2 6 7 2 4 4 6 3 2 7 11 19 15 9 11 11 10 9 10 9 6 6 5 5 4 2 4 5 4 5 7 7 8 6 6 3 3 3 4 5 5 8
4 3 5 4 3 0 3 5 2 4 2 4 2 4 2 4 13 23 18 12 13 14 13 12 10 8 7 5 5 4 4 3 3 2 3 5 5 4 3 3 1 1 2 3 6 8 8 7 8
4 4 5 3 3 2 2 3 5 4 1 3 5 5 1 8 21 18 14 13 14 15 14 12 10 8 6 3 2 1 2 2 1 2 2 2 3 3 3 1 0 0 2 2 3 6 8 10 12
6 4 4 4 2 3 2 1 6 5 2 3 6 5 1 4 17 18 14 14 14 12 11 11 10 7 5 3 2 3 3 4 3 2 2 3 3 3 2 1 2 1 2 2 2 2 2 3 6
5 5 3 3 1 2 3 1 4 5 1 1 3 5 5 8 18 18 16 16 14 13 10 10 9 8 6 6 4 2 4 4 4 3 3 2 1 1 2 2 2 2 1 1 2 2 1 2 4
3 5 2 1 2 3 5 2 3 3 5 2 3 4 4 23 19 22 18 15 15 14 12 12 10 8 5 5 4 4 3 2 2 3 2 1 1 2 2 2 2 2 2 2 2 2 4 5 6
6 5 5 1 3 2 4 3 2 5 2 3 3 4 16 24 23 21 18 18 18 17 16 13 10 9 9 7 8 6 7 5 4 2 4 3 2 0 1 2 1 2 3 4 5 5 6 7 8
1 4 4 3 3 5 3 1 1 9 1 6 8 7 9 12 18 19 22 25 24 19 15 12 10 10 10 11 12 11 10 8 7 6 6 7 7 6 6 7 7 6 6 7 7 7 5 6 8
5 1 4 2 5 3 2 1 1 2 6 10 11 14 10 9 13 17 22 25 24 22 17 14 11 10 8 7 12 13 11 11 10 8 8 9 9 10 10 10 9 8 6 5 4 5 6 6 7
4 2 3 3 3 2 3 4 2 5 4 5 7 8 11 9 13 20 22 26 27 23 19 14 11 11 8 7 10 13 12 13 12 11 10 11 11 11 9 9 9 9 8 6 5 6 7 7 7
3 4 6 4 4 3 1 3 1 5 4 7 10 12 10 10 16 16 16 26 30 25 22 17 12 9 10 10 9 10 11 12 13 12 11 11 11 13 12 11 10 9 7 7 7 6 5 4 5
2 5 7 3 3 2 4 5 6 3 4 9 12 12 9 11 18 22 29 31 32 28 23 18 14 10 10 11 11 11 11 13 13 13 13 12 12 13 13 13 12 11 8 8 7 6 5 4 3
5 5 5 7 2 4 3 10 9 4 5 11 10 8 10 12 19 27 31 33 31 27 24 18 14 11 11 10 9 10 11 13 14 14 14 14 14 14 15 14 14 13 11 11 9 6 5 5 5
7 2 3 6 4 4 2 8 9 2 7 10 10 9 8 6 7 16 22 26 25 23 22 18 15 13 12 11 11 12 13 14 15 17 18 17 16 15 16 17 16 14 14 14 12 9 8 7 7
3 3 4 4 5 7 5 9 10 7 8 10 7 6 5 6 7 11 14 20 19 19 19 16 14 14 14 13 13 14 15 17 17 19 22 21 20 20 19 19 19 19 18 17 16 15 12 10 9
1 1 3 4 3 7 5 9 11 7 5 6 6 6 6 4 4 2 10 15 17 17 18 17 16 15 17 17 16 16 20 20 22 22 23 24 25 25 24 24 23 24 24 23 21 19 16 15 12
3 2 4 6 5 2 7 10 8 8 4 5 7 7 7 6 7 10 15 16 17 18 17 16 17 17 17 19 17 15 18 20 24 26 27 29 30 30 32 31 31 30 30 27 26 25 21 17 14
3 2 3 5 7 2 6 5 6 5 6 6 7 5 5 6 8 5 10 14 12 15 16 17 17 17 17 19 19 19 21 23 28 30 32 34 34 35 37 39 38 36 35 35 33 30 26 21 16
4 3 2 6 4 2 5 3 5 4 4 6 5 3 2 5 4 4 6 9 12 13 14 13 15 17 18 18 21 23 26 27 33 35 37 38 38 37 41 44 45 43 38 35 33 29 25 18 13
6 7 4 3 3 2 8 4 6 6 4 4 1 5 5 4 6 8 10 11 11 9 8 9 12 13 13 13 16 20 24 29 34 36 38 41 42 38 39 41 46 44 35 28 23 18 16 12 9
8 4 5 4 3 2 1 3 6 3 3 3 1 5 4 6 7 4 4 3 3 4 6 8 7 6 8 14 21 26 29 32 34 36 36 38 35 32 32 36 36 31 21 18 14 10 8 4 3
8 6 4 4 4 4 2 2 5 3 2 1 5 4 8 8 4 5 7 4 5 9 7 6 9 14 21 27 31 33 34 35 34 31 30 31 31 26 20 18 19 22 21 14 5 5 7 9 8
3 3 4 3 1 4 6 2 4 6 5 8 5 8 8 6 2 4 8 9 8 7 9 13 18 25 30 30 31 28 28 30 29 28 27 25 19 8 16 24 20 13 8 8 15 18 23 22 21
3 5 1 5 3 2 4 5 6 6 7 5 5 6 7 8 8 8 9 12 12 15 18 20 21 28 28 27 25 28 30 31 30 26 20 14 8 17 19 14 10 10 11 15 12 13 11 12 16
4 2 4 4 2 3 5 6 5 5 11 18 13 7 6 6 7 6 9 10 16 19 18 21 22 27 24 24 25 30 33 30 26 21 13 8 18 19 10 3 7 16 19 12 7 7 12 16 18
4 4 5 3 3 3 3 5 5 5 8 10 5 5 6 2 2 4 8 16 21 23 21 23 22 25 22 21 25 30 32 25 17 13 11 17 16 6 4 10 16 8 8 9 14 15 15 16 17
4 5 4 3 3 2 3 7 5 5 6 6 6 6 7 4 5 6 12 18 21 24 25 25 22 24 19 22 26 28 24 16 10 12 13 12 8 5 8 5 3 6 11 13 13 15 16 18 21

GFSSGP_925_spd_018.txt.gz
Wind_Speed
10 7 3 4 4 5 3 0 3 2 3 4 1 6 7 3 2 3 2 8 5 8 8 7 7 8 9 11 11 10 9 12 10 9 8 9 9 8 7 9 9 9 4 2 1 3 6 7 7
9 3 3 3 5 5 3 3 5 2 5 5 4 4 6 3 2 4 6 11 8 8 7 8 8 8 9 10 11 11 9 8 8 7 6 6 6 7 7 8 9 7 4 3 5 6 5 6 8
3 4 4 5 3 4 4 2 4 3 4 5 3 4 3 2 3 8 9 13 11 9 9 8 8 8 9 8 8 7 7 5 5 4 6 7 7 6 6 8 7 7 9 7 4 3 6 7 7
1 5 5 6 4 4 4 4 4 3 2 5 2 5 3 1 5 7 19 13 11 11 10 9 9 9 10 9 8 6 6 6 4 4 4 4 4 3 5 5 5 3 3 3 3 3 5 6 7
5 3 6 5 3 3 2 6 7 5 3 2 2 2 3 3 10 18 16 13 14 15 13 11 10 9 8 6 6 5 4 5 3 3 2 2 2 2 3 4 3 1 2 3 4 6 6 6 8
4 3 6 4 1 2 3 1 4 4 4 5 5 4 1 5 19 19 15 13 14 16 15 12 10 8 6 6 6 4 5 3 4 4 3 3 2 1 1 1 1 1 2 2 3 4 5 5 7
7 4 4 4 3 2 2 2 2 4 4 2 7 5 1 7 16 17 14 15 16 14 12 10 8 6 4 3 3 4 4 4 4 4 4 3 3 3 3 3 3 3 2 2 2 2 3 3 4
5 5 3 3 2 2 2 1 3 2 3 3 2 4 5 9 18 16 14 15 14 12 11 8 6 3 2 1 3 3 4 4 3 3 2 1 0 1 1 2 2 2 2 2 3 3 3 4 4
3 5 2 2 2 2 4 2 2 2 4 2 4 5 3 26 21 19 15 13 11 11 9 9 7 5 3 1 0 1 1 1 3 3 2 2 1 0 0 2 2 1 1 1 2 3 4 5 6
5 5 2 3 3 1 2 1 3 3 2 2 1 2 9 25 26 21 18 17 15 14 12 10 10 7 6 5 4 4 3 3 3 4 4 4 4 3 3 2 3 5 6 6 6 7 9 10 10
2 4 2 2 2 1 3 3 1 7 1 6 8 6 8 12 19 20 21 22 22 18 15 12 10 9 10 10 9 9 8 8 7 6 6 7 8 7 7 8 8 8 8 8 8 8 7 6 5
6 3 3 1 3 4 2 3 1 4 7 7 7 12 10 8 13 19 21 22 21 20 17 13 10 9 9 9 12 13 12 11 10 9 9 10 10 10 11 12 11 10 10 9 7 7 7 8 8
4 2 3 1 6 4 2 2 2 7 8 1 9 8 10 10 15 23 25 24 22 22 19 15 12 9 8 10 10 12 13 12 12 12 11 10 11 12 13 12 12 12 11 9 8 8 8 8 7
1 1 2 3 0 0 1 2 1 5 2 3 7 11 10 9 20 20 21 23 24 24 22 17 14 12 10 8 9 10 12 12 13 14 13 13 13 14 14 14 14 13 12 11 11 9 8 7 6
2 5 6 7 5 3 1 5 5 5 2 6 8 8 9 11 15 23 29 27 27 29 23 20 15 12 9 8 9 10 10 11 13 14 14 15 15 15 15 15 15 15 14 13 11 10 9 8 6
6 6 5 5 7 2 3 8 10 3 0 8 9 8 8 10 14 20 18 20 22 29 24 18 14 11 10 9 9 11 12 13 14 15 16 16 16 16 16 16 17 16 17 16 14 12 11 9 8
7 1 2 7 4 5 4 9 8 6 6 11 7 7 7 7 8 9 17 18 20 22 19 18 16 13 11 10 11 12 14 16 15 16 17 19 19 19 19 19 18 18 20 20 18 17 15 13 11
1 2 3 3 5 6 4 7 9 8 6 8 7 6 5 4 6 9 13 15 17 18 18 18 16 14 12 12 13 15 17 19 18 18 19 20 22 23 24 24 23 22 23 23 22 22 20 18 15
1 2 3 3 2 6 5 6 9 8 8 9 8 6 4 4 3 4 7 12 16 16 16 19 16 15 14 16 16 16 20 20 20 19 20 23 26 27 28 29 29 27 28 29 28 25 24 23 20
1 2 4 5 3 1 6 7 6 7 5 5 6 7 5 4 3 5 9 11 14 16 18 17 17 16 16 18 18 15 16 19 20 23 24 26 28 32 33 34 35 35 34 34 33 31 30 27 23
4 2 2 5 7 1 5 5 7 4 5 7 7 4 4 5 5 4 5 10 13 15 16 15 15 15 15 16 19 20 22 25 28 30 31 33 33 33 37 41 43 44 42 42 41 39 37 30 27
3 1 3 6 3 1 4 2 5 6 5 6 5 6 7 6 3 3 6 9 10 7 9 11 11 12 11 9 11 13 17 22 27 29 31 32 33 36 37 38 40 47 47 44 44 43 39 35 25
6 4 2 2 3 3 7 4 6 5 4 5 8 6 4 6 6 7 8 8 6 6 8 8 8 10 12 17 20 23 24 26 29 31 32 32 28 26 25 26 29 36 40 39 36 32 28 26 16
5 4 5 4 2 3 1 3 5 3 3 4 3 5 6 8 7 8 10 10 12 14 15 16 17 18 21 25 26 27 27 29 31 33 32 31 30 29 27 24 22 24 23 20 18 15 14 12 9
9 6 3 3 4 3 3 1 4 4 6 5 7 9 10 8 7 7 11 16 18 20 21 21 23 24 29 30 27 25 26 28 33 35 35 33 30 26 23 17 9 7 11 13 13 11 9 6 6
3 4 4 2 1 4 4 3 5 3 9 5 8 7 8 9 8 8 11 14 16 21 23 23 25 25 28 27 24 21 22 29 34 35 36 32 24 17 8 7 15 15 12 9 8 10 10 7 5
1 4 2 5 2 2 4 5 2 4 7 8 7 8 9 8 7 7 9 13 19 22 22 19 22 21 21 23 20 21 25 29 31 31 31 28 15 6 13 12 9 7 6 11 11 10 3 1 4
5 3 3 3 2 3 5 5 3 6 8 7 5 7 8 6 7 6 10 12 16 17 19 17 20 19 23 20 20 25 31 33 32 31 29 18 10 15 11 4 4 10 12 13 11 6 7 9 11
4 3 5 4 3 3 2 6 4 4 3 2 3 4 5 6 7 7 14 14 13 17 18 18 20 21 24 21 22 27 32 32 31 26 20 9 12 9 2 6 8 15 12 5 7 10 11 11 11
3 3 4 4 2 1 3 6 2 7 3 3 3 6 6 6 8 10 18 19 14 26 27 25 24 25 22 19 26 30 30 30 23 10 3 8 2 5 9 9 10 9 10 10 9 10 12 13 15

GFSSGP_925_spd_021.txt.gz
Wind_Speed
6 3 4 4 2 4 3 3 1 5 3 3 2 1 5 5 1 2 3 6 8 9 9 8 7 7 9 9 8 8 8 9 10 11 11 10 10 10 9 8 7 6 4 2 2 3 4 4 4
4 2 4 3 5 8 3 2 4 3 7 6 6 4 3 5 2 5 5 11 9 10 10 9 8 8 8 9 9 8 9 8 7 8 9 8 7 6 7 7 9 7 1 4 6 5 4 3 2
3 4 2 4 3 6 5 1 8 7 3 2 4 3 3 4 4 8 7 13 11 11 12 11 9 8 7 7 7 6 8 7 6 5 5 6 6 7 7 8 9 6 9 8 4 3 3 2 2
3 3 3 6 7 2 3 8 6 6 1 4 4 6 3 2 5 5 16 12 11 12 12 12 11 9 8 8 7 6 7 7 6 5 4 2 2 3 4 6 5 4 5 3 1 1 2 2 1
6 3 5 7 6 3 2 4 5 2 2 3 2 3 3 1 5 15 13 11 12 13 13 12 11 9 8 8 7 7 7 6 5 4 4 2 2 3 2 2 1 2 2 2 3 4 3 4 3
3 2 6 9 6 3 3 2 1 2 1 1 5 4 2 1 12 16 12 10 11 13 13 13 11 8 7 7 6 6 6 6 5 4 3 3 2 2 1 1 1 1 1 2 3 3 3 2 3
6 4 4 5 6 5 3 1 5 4 4 2 5 4 2 5 11 14 11 13 14 13 13 12 10 7 5 5 5 5 4 4 4 2 2 2 2 2 2 2 2 2 2 2 2 3 3 4 4
4 4 4 2 4 4 2 3 4 3 1 2 3 5 5 11 16 15 11 13 13 12 11 9 8 5 3 3 3 4 3 3 3 2 1 1 2 2 2 3 3 3 4 4 3 3 3 3 3
2 4 3 4 5 3 1 3 1 1 5 2 3 4 1 19 17 14 10 10 12 12 11 9 8 6 3 2 2 2 2 1 2 2 2 1 1 2 2 2 2 2 3 3 3 3 2 3 4
4 4 2 2 3 3 2 2 3 3 2 3 2 2 5 20 19 17 15 14 13 12 12 10 8 6 5 3 3 3 3 2 2 3 3 2 3 4 4 3 4 6 6 7 8 8 8 7 6
2 4 4 2 4 3 2 2 1 5 2 4 4 7 14 18 18 18 15 15 16 12 13 11 9 7 7 6 7 7 6 5 5 5 4 5 6 7 8 8 8 9 10 9 9 9 8 7 6
6 3 2 4 4 3 3 3 2 4 2 4 3 12 18 16 19 19 19 18 14 16 15 13 11 9 7 7 8 9 10 9 8 8 8 8 9 9 10 11 11 11 11 10 9 8 8 8 8
5 2 2 2 5 2 3 1 1 6 8 1 6 13 17 17 19 19 19 15 14 16 16 14 11 9 7 5 6 9 11 10 10 11 11 11 10 11 12 13 13 13 13 12 10 10 10 8 7
2 2 3 5 3 4 2 1 1 2 3 4 7 14 14 16 21 16 16 18 19 19 18 16 13 9 7 5 6 7 9 10 11 12 13 13 13 13 15 15 15 16 15 14 13 12 11 10 8
4 4 2 9 5 4 4 1 3 6 5 1 7 8 12 16 14 19 20 21 20 22 20 19 14 11 9 8 7 7 7 8 10 12 12 14 15 16 16 16 17 17 17 17 16 15 13 12 11
5 5 3 4 6 2 4 5 5 7 7 9 4 7 11 14 15 14 13 17 18 20 22 19 17 14 12 10 8 9 9 9 11 13 14 16 16 17 17 18 19 18 18 18 18 17 15 15 13
8 2 3 4 4 7 5 7 5 14 7 9 7 4 8 11 13 9 10 14 15 19 19 21 19 15 13 11 10 10 10 11 11 14 16 18 18 19 20 22 23 21 21 22 21 20 20 15 15
1 1 1 3 4 6 4 7 11 11 6 5 5 2 4 8 7 5 9 10 13 14 15 19 18 15 14 13 12 12 12 12 12 14 17 20 22 23 23 26 27 26 25 25 26 25 22 21 18
3 2 2 3 1 5 3 4 10 9 10 11 10 9 6 3 4 5 7 9 9 12 15 16 16 15 13 12 11 11 11 13 14 15 19 20 23 26 27 29 30 30 30 32 31 28 24 21 21
1 2 2 2 1 1 5 7 4 10 6 7 11 11 9 5 6 7 6 1 5 6 9 9 6 7 8 10 11 11 17 20 24 24 25 25 24 25 24 27 29 30 27 32 33 30 23 21 21
1 2 2 3 6 1 2 3 6 5 6 9 9 5 7 6 5 7 13 13 12 11 8 6 7 8 9 10 11 12 12 13 14 19 25 27 28 29 29 29 27 27 27 28 31 32 29 28 22
2 2 4 4 1 1 3 3 6 5 8 10 9 9 8 9 9 11 14 15 14 14 12 11 14 16 16 16 15 16 12 14 15 18 20 26 26 25 25 25 25 25 24 25 27 28 30 28 28
3 2 1 0 2 2 3 1 3 4 9 10 10 12 12 12 10 9 11 13 16 20 20 18 15 15 18 20 19 15 12 12 15 19 23 25 27 28 27 26 25 25 23 22 22 23 22 25 27
4 2 3 2 2 1 1 1 2 3 4 6 7 12 12 13 11 13 13 15 15 16 17 16 17 16 18 19 17 18 21 23 24 30 30 31 30 29 28 24 21 18 16 14 8 6 6 8 9
8 4 1 0 2 1 1 1 5 9 5 6 8 10 11 10 11 10 12 11 13 15 17 16 17 13 21 24 27 25 22 23 22 26 28 29 27 23 22 17 12 5 4 9 10 8 7 5 4
3 2 2 2 1 3 0 4 6 8 6 7 8 6 8 9 6 5 6 8 10 12 16 15 18 25 26 23 22 19 19 22 25 26 30 28 25 20 13 3 4 7 9 8 5 7 6 3 3
1 4 1 4 1 2 2 1 3 5 7 6 7 8 6 5 6 8 11 12 12 16 18 22 22 19 17 18 17 16 19 25 24 26 27 26 23 11 3 4 5 3 2 5 6 7 9 2 4
2 4 1 3 1 2 5 3 3 9 4 2 4 4 5 5 8 12 17 18 17 13 18 17 16 15 16 17 14 15 20 20 23 26 24 20 11 2 3 2 5 5 6 5 5 2 1 4 6
2 2 5 3 1 1 3 5 4 7 2 5 2 1 2 4 8 10 14 15 15 11 14 14 15 14 14 15 13 19 21 22 23 20 17 11 1 3 6 6 6 8 8 8 8 7 6 6 6
2 2 3 2 2 1 1 7 3 8 1 2 4 3 5 6 9 10 11 10 11 14 17 18 20 18 18 19 18 21 21 20 16 9 6 4 5 8 7 9 10 11 10 9 9 9 6 7 9

GFSSGP_925_spd_024.txt.gz
Wind_Speed
2 2 3 5 4 3 10 7 10 10 6 2 2 4 8 9 7 5 9 8 10 11 9 8 10 11 10 8 7 8 8 8 9 9 10 10 9 8 7 6 5 4 4 3 3 3 5 5 4
2 3 4 2 5 12 10 9 10 9 11 8 6 4 3 7 6 13 12 9 9 10 9 9 10 11 11 9 9 8 8 7 7 6 6 6 6 5 5 5 5 3 1 2 5 6 5 3 4
4 5 3 4 5 10 11 7 13 12 4 4 4 4 2 7 7 8 12 12 11 10 9 8 9 10 10 9 8 7 7 6 6 5 5 5 3 2 2 3 4 5 7 7 5 3 3 4 4
5 5 4 5 15 7 14 13 13 9 6 3 5 8 6 5 7 7 13 10 10 10 9 11 10 10 9 8 8 7 6 6 5 5 4 4 3 3 4 6 4 3 5 4 3 4 3 2 2
2 4 8 11 13 12 11 11 5 6 6 6 1 6 6 5 6 14 11 10 11 11 11 11 11 10 10 8 7 7 7 6 6 5 4 3 2 1 1 2 2 3 4 4 5 6 6 5 4
4 3 12 13 14 11 8 6 3 4 4 7 6 6 6 7 13 12 11 11 11 11 10 10 10 9 8 6 6 5 4 4 5 5 4 3 2 2 1 1 0 1 2 2 3 2 3 2 2
7 6 13 15 15 12 8 2 3 5 5 5 3 6 5 10 13 11 11 12 12 11 10 10 8 7 7 5 4 3 3 4 5 4 4 3 3 2 2 1 1 1 2 1 1 1 1 1 1
3 7 13 13 10 13 6 5 4 4 5 4 2 5 8 15 15 13 12 12 11 10 8 7 6 4 4 2 2 2 4 4 5 4 4 3 4 4 3 4 2 2 2 2 2 2 3 3 3
2 6 10 9 9 9 8 7 4 1 7 3 4 2 6 19 17 14 13 11 9 8 7 6 4 3 2 1 0 3 3 3 5 5 3 4 1 2 3 1 1 1 2 2 3 4 4 5 7
1 7 7 4 6 10 7 3 5 5 6 5 7 6 11 19 17 16 15 14 12 11 9 7 7 5 2 1 2 1 1 0 1 2 2 2 1 2 1 3 4 6 6 6 7 8 8 5 5
2 8 9 7 7 6 7 6 4 4 6 6 6 10 17 18 17 15 13 11 11 10 9 8 6 4 2 3 2 3 3 2 2 2 2 3 4 5 5 5 7 7 9 6 7 7 5 6 6
12 9 7 7 5 4 6 4 4 6 8 4 2 10 17 16 16 14 12 12 11 11 10 8 6 4 3 2 2 3 4 4 4 5 5 6 7 7 8 8 9 9 9 10 9 8 7 7 7
14 9 6 5 5 2 1 2 1 4 1 2 5 9 13 13 15 13 12 12 12 11 10 9 8 5 4 3 2 3 4 4 5 6 6 6 8 8 9 9 10 10 10 11 11 10 10 10 9
5 7 5 3 6 4 4 3 4 6 4 2 5 10 12 13 13 13 15 14 12 12 11 9 8 7 5 4 3 2 2 3 4 6 6 7 7 9 10 11 11 11 10 11 11 12 12 11 10
8 9 7 5 4 4 4 8 5 4 4 3 5 7 10 11 13 14 13 12 11 10 9 10 10 9 7 5 3 3 3 3 4 5 6 7 8 9 11 12 12 12 12 13 12 13 13 13 12
7 5 4 7 1 1 7 8 6 8 9 9 7 6 10 14 14 10 7 8 10 11 11 11 11 10 8 6 4 4 4 5 5 6 6 8 9 10 12 14 14 13 14 14 14 15 15 15 15
3 3 2 6 4 5 4 4 9 10 6 6 7 7 8 11 13 9 8 10 12 13 13 12 13 11 8 5 5 5 6 5 5 6 7 8 10 11 13 16 17 16 17 17 17 18 17 18 17
3 3 2 2 5 7 3 4 8 9 6 6 3 1 1 5 8 8 7 8 9 9 10 10 9 7 5 5 5 6 6 7 7 8 8 10 11 11 13 16 20 19 20 21 21 22 21 21 21
2 1 2 1 3 8 2 4 9 10 11 12 12 11 10 9 7 5 6 6 3 3 2 1 3 1 2 4 5 6 6 8 9 10 12 11 11 12 13 16 19 20 22 24 25 25 25 25 24
1 2 1 1 1 5 1 7 9 10 11 11 13 14 14 14 13 15 15 14 12 10 8 6 4 4 3 3 3 5 8 9 10 8 12 13 15 17 18 19 20 21 23 24 25 25 27 28 26
0 1 3 5 4 3 5 7 6 7 10 11 12 12 12 12 11 12 15 15 14 14 11 9 9 10 10 8 6 6 6 9 11 17 19 20 21 19 19 19 20 21 21 23 24 24 26 28 28
2 2 8 7 6 3 3 4 5 6 9 10 11 12 12 11 9 11 13 16 16 16 15 14 12 10 10 9 7 9 9 12 13 15 18 21 21 21 21 21 21 22 21 23 24 24 24 25 28
4 7 5 3 6 4 7 6 7 7 7 8 11 12 13 11 10 10 13 14 14 13 12 10 9 9 10 10 8 8 11 14 14 13 16 20 20 21 22 21 20 20 20 20 20 21 22 23 25
4 4 1 1 2 5 3 4 8 3 3 7 9 11 11 11 11 13 12 11 11 10 10 10 11 10 10 10 11 11 8 11 14 17 20 22 25 25 24 22 20 16 14 12 11 9 8 11 13
7 4 2 3 4 1 4 6 9 7 6 7 8 8 9 9 10 9 9 10 11 11 11 11 12 13 12 10 11 9 10 13 16 19 22 27 29 28 26 21 16 11 8 6 3 4 5 6 5
5 6 3 3 2 1 2 4 5 7 8 8 7 6 6 6 5 6 8 9 9 9 9 12 13 14 13 13 14 15 15 16 18 20 23 26 27 24 20 12 8 6 4 3 1 2 4 5 3
2 2 2 0 1 3 1 4 9 9 6 4 5 4 2 1 4 7 10 9 11 11 10 13 16 18 17 16 16 15 14 15 18 21 22 24 22 18 12 8 7 6 6 6 5 6 4 2 1
4 3 3 0 3 4 2 5 6 16 12 2 2 4 2 1 5 9 11 11 13 13 12 14 15 16 16 15 17 15 15 17 18 20 21 18 15 9 6 6 8 8 9 9 9 8 7 6 6
1 2 1 1 2 3 4 5 3 2 6 3 3 3 3 4 7 8 8 9 11 12 13 12 14 16 16 18 17 15 17 17 17 18 16 12 6 6 7 8 9 12 10 8 8 8 10 11 11
1 1 0 2 2 2 4 8 4 4 5 2 4 5 5 5 7 6 8 10 13 14 13 14 16 17 18 18 18 19 18 17 15 14 11 8 4 4 5 9 12 9 11 11 12 12 11 11 13

GFSSGP_925_spd_027.txt.gz
Wind_Speed
9 7 10 11 8 8 9 10 10 10 9 9 8 10 14 15 14 5 15 12 13 14 12 10 11 11 10 9 8 8 8 9 9 8 7 6 5 4 4 3 4 4 4 4 6 6 5 4 4
10 7 10 9 10 8 10 6 13 13 13 9 7 5 9 14 15 15 15 13 14 14 13 12 13 11 10 9 8 8 7 7 7 7 6 5 4 3 2 1 1 1 1 4 5 6 7 6 6
8 10 10 6 11 7 10 8 15 11 7 4 6 11 7 7 10 13 17 14 14 13 12 12 12 11 10 10 8 7 7 6 6 6 5 4 3 1 2 3 4 5 7 6 5 6 5 5 5
8 7 6 10 14 11 13 14 13 10 7 1 8 11 8 12 5 17 15 13 14 13 12 13 11 10 10 9 7 6 6 6 5 4 3 3 2 3 4 5 4 4 4 4 3 5 5 4 5
13 10 9 9 13 12 12 12 10 11 9 8 4 9 11 9 15 15 14 13 14 14 13 12 12 10 9 9 7 7 7 7 5 4 4 3 2 1 2 3 4 4 5 5 5 6 6 6 6
9 11 7 9 11 9 9 7 2 7 7 5 6 11 8 11 15 13 12 13 13 15 13 11 10 9 8 7 7 7 6 6 5 5 5 4 4 4 4 4 4 4 4 4 5 4 4 4 4
15 9 12 13 12 11 9 4 3 6 4 7 4 9 8 13 14 13 13 13 13 13 12 10 8 7 7 6 6 6 7 5 5 5 5 5 5 5 4 4 3 3 3 3 3 4 4 4 4
6 5 11 13 11 12 6 3 5 1 10 7 8 6 12 15 14 14 14 13 12 11 10 10 8 6 5 4 5 5 6 5 6 5 5 5 5 6 7 7 4 3 3 3 3 3 4 4 5
7 6 7 6 11 8 7 7 3 3 7 0 2 11 19 19 16 15 14 13 13 10 9 7 7 5 3 3 3 4 5 6 6 5 7 4 1 3 2 3 4 4 5 6 6 7 8 8 9
10 4 10 5 6 11 8 5 7 7 8 9 8 8 19 18 17 16 16 15 13 11 10 9 6 4 2 1 1 2 1 2 2 2 3 3 4 4 6 4 8 8 7 8 7 9 10 7 8
4 10 8 5 3 6 7 5 4 4 7 9 12 12 16 17 16 14 13 14 13 12 11 8 5 3 1 2 1 1 1 1 1 1 3 4 6 4 8 6 8 5 7 8 6 10 9 8 9
8 7 6 7 3 1 6 8 5 5 12 7 8 12 14 14 14 14 14 12 12 13 10 8 6 4 2 1 2 2 2 2 3 1 4 5 6 7 8 9 10 11 10 10 11 11 10 11 11
10 8 9 8 6 1 3 5 3 6 12 6 6 10 13 13 15 15 12 10 10 10 12 10 8 5 2 1 2 2 2 2 3 3 3 4 5 6 7 9 10 11 12 12 12 13 14 13 14
8 9 8 8 6 4 7 7 9 8 5 6 7 10 12 11 13 12 10 11 11 11 10 9 7 6 4 2 1 2 2 2 2 3 2 3 4 5 7 9 10 11 12 13 13 15 16 16 16
9 8 9 7 9 3 8 10 12 6 5 5 7 9 11 11 10 12 12 11 11 12 11 9 8 8 6 4 3 3 2 2 3 3 3 3 4 5 7 9 11 12 13 14 15 16 16 17 17
11 9 11 7 6 4 11 12 10 3 5 10 11 8 9 11 11 11 12 13 12 10 10 7 7 7 8 5 3 3 3 4 4 4 3 4 5 7 9 11 12 13 15 16 17 18 20 21 21
8 9 2 9 3 3 7 5 11 5 8 11 11 12 10 9 12 12 12 7 7 7 8 8 8 8 8 5 5 4 5 5 5 4 6 6 8 9 11 13 16 16 17 18 20 21 21 23 23
7 5 5 4 6 5 4 2 6 2 1 2 3 4 2 7 10 10 5 4 3 4 5 6 7 5 5 5 5 6 6 7 6 8 8 8 11 10 11 14 16 17 19 21 22 23 25 25 26
4 4 3 4 4 6 3 1 4 4 7 8 9 9 9 10 13 14 8 6 3 4 1 4 2 4 3 4 5 6 7 7 9 9 8 9 9 12 15 15 17 20 22 22 23 24 25 26 26
2 5 1 1 3 5 3 8 6 8 7 10 12 14 15 14 13 14 15 15 14 11 9 8 6 6 4 3 4 3 5 6 7 5 9 11 11 14 17 16 18 19 21 21 22 23 25 26 26
2 6 5 9 4 8 10 10 10 9 11 11 12 12 10 11 11 12 15 15 15 14 12 11 9 8 8 6 4 5 6 7 12 12 17 16 15 17 16 18 18 20 22 23 23 23 24 25 27
8 3 7 9 8 9 13 6 12 13 10 9 9 8 8 8 10 11 13 14 13 12 10 9 7 6 6 8 6 7 10 13 16 18 17 17 17 18 19 20 19 20 21 24 24 24 23 23 25
6 7 8 9 10 13 12 9 13 13 11 9 7 7 9 10 9 10 11 11 10 9 8 7 7 6 7 8 9 10 12 14 15 15 16 18 16 18 20 21 21 21 22 22 21 22 22 21 23
7 9 9 8 7 7 8 6 12 12 10 7 7 6 9 10 9 10 8 7 7 7 7 7 8 9 9 10 10 11 12 13 15 16 18 17 20 21 22 23 22 21 20 18 17 13 11 11 13
8 8 5 4 5 4 7 6 8 9 7 7 6 6 7 7 6 4 5 5 5 6 8 10 12 13 12 12 12 13 13 15 16 18 18 22 24 25 26 23 21 19 16 14 11 11 7 9 9
4 6 3 5 4 6 6 5 7 10 9 7 5 5 4 4 2 2 4 5 8 9 10 11 14 17 17 16 15 15 16 17 18 19 21 22 23 25 22 19 14 12 8 8 10 9 10 10 10
4 2 4 5 2 4 8 7 8 10 9 6 4 1 1 2 3 5 7 7 10 11 13 13 16 17 18 17 17 16 17 17 19 20 22 23 23 22 15 10 7 9 9 9 10 13 13 9 8
5 3 4 2 3 4 4 7 6 13 10 7 6 3 2 4 5 7 9 10 11 12 13 13 13 14 16 17 16 17 18 19 21 22 22 22 19 11 10 8 9 11 15 16 11 10 10 12 13
2 1 3 4 3 4 5 4 7 2 5 9 2 3 7 7 7 8 9 10 11 11 13 14 14 15 16 18 20 20 20 20 19 20 19 18 12 8 9 11 10 11 11 11 11 12 13 12 14
5 5 5 4 6 3 5 8 6 3 1 2 6 8 5 8 7 7 8 10 12 15 13 13 14 17 19 20 20 20 19 19 18 14 12 14 13 13 13 13 14 11 13 14 14 16 15 16 18

GFSSGP_925_spd_030.txt.gz
Wind_Speed
12 9 8 8 6 7 14 9 12 9 11 14 14 15 20 17 9 8 16 20 27 19 17 16 15 14 12 11 11 11 12 12 12 11 9 7 5 5 4 5 4 4 4 5 5 4 7 7 8
11 13 14 5 8 11 7 7 19 16 14 10 12 10 21 18 19 17 18 18 19 25 19 16 14 13 12 12 11 11 11 10 9 8 7 6 5 3 3 4 3 3 3 4 5 8 10 10 9
10 13 6 5 9 16 10 18 15 12 8 11 7 18 16 15 17 10 18 17 20 22 17 17 16 15 14 13 12 11 10 8 7 6 5 4 4 3 2 2 3 5 5 4 6 7 8 7 7
6 6 5 8 10 14 12 16 14 12 8 5 17 13 13 18 19 21 19 18 18 19 17 17 16 14 14 13 11 10 9 8 7 5 5 3 2 2 3 4 4 5 5 3 3 5 5 6 7
21 5 10 8 14 15 15 14 9 9 7 9 8 17 15 20 23 19 17 18 21 19 17 17 16 15 13 12 12 11 9 7 7 6 5 4 3 3 4 4 5 5 5 5 5 6 7 7 7
7 4 10 8 11 12 11 8 4 12 12 6 14 16 14 18 18 16 17 17 20 21 16 16 14 13 13 12 11 10 8 8 7 7 6 6 6 6 6 6 6 6 6 6 7 7 7 7 7
13 8 13 14 9 8 11 2 1 8 4 9 4 15 10 15 16 15 17 18 19 17 16 14 12 12 11 11 9 9 9 8 7 6 6 6 7 6 6 6 7 7 6 7 7 6 6 7 7
12 10 9 10 9 13 8 2 8 8 14 8 10 7 13 19 17 17 17 17 16 16 16 14 7 7 7 9 8 8 8 8 7 7 6 6 8 8 8 9 9 8 7 8 8 8 8 8 8
18 3 8 8 11 9 6 5 7 6 9 6 6 8 21 21 18 18 16 15 14 13 11 10 15 9 6 6 8 6 6 7 8 8 8 3 2 4 4 7 9 8 8 11 8 9 11 10 10
7 7 13 12 10 11 7 10 8 6 9 9 9 19 21 20 17 16 14 13 15 14 11 9 10 7 4 5 2 6 3 4 4 4 4 4 4 3 6 8 7 6 8 10 6 8 13 10 11
11 12 11 8 9 11 7 10 5 7 9 12 14 12 16 17 15 15 16 18 16 13 12 15 9 6 1 6 2 8 6 7 9 5 1 6 5 3 9 7 7 7 12 9 5 13 12 6 13
6 7 10 11 6 5 5 10 2 1 13 8 14 12 17 14 14 14 12 17 16 18 15 16 12 7 3 2 4 6 2 6 1 7 3 2 5 6 5 6 8 10 11 11 11 11 12 15 13
8 8 10 10 5 7 6 4 3 6 10 4 10 11 13 11 13 14 14 13 15 18 18 16 13 7 5 3 5 2 3 2 0 2 2 1 1 4 4 6 6 8 9 9 9 10 13 14 14
8 9 10 8 6 4 4 5 4 8 10 9 7 10 12 12 16 16 11 11 12 13 16 17 14 10 7 4 3 1 4 1 2 1 2 2 1 3 3 5 6 8 10 10 13 16 16 15 16
7 7 6 6 7 7 6 8 12 11 4 8 10 8 11 11 14 15 12 12 13 14 13 14 12 11 7 5 4 2 1 1 1 1 1 1 2 4 6 7 9 10 12 13 15 16 16 18 19
6 7 9 10 7 6 5 13 15 11 7 9 10 9 8 11 11 16 15 10 10 12 14 14 12 12 9 7 5 4 1 2 3 4 3 4 3 5 8 10 12 14 16 18 18 19 20 20 21
9 8 9 9 6 1 9 5 12 6 4 10 10 9 8 7 11 12 14 13 10 3 5 5 7 12 11 10 6 4 4 4 5 3 4 4 2 4 7 11 15 18 19 21 23 23 23 23 22
10 8 4 1 8 6 9 9 10 1 6 7 8 5 11 7 6 13 19 15 16 14 11 9 7 7 4 3 1 5 7 7 8 3 1 4 7 5 8 12 16 18 20 21 22 23 24 25 25
9 7 4 7 8 4 9 8 9 4 4 4 6 5 13 17 20 24 24 21 19 15 14 13 11 10 6 4 4 7 10 10 8 6 4 6 6 10 12 14 14 16 21 20 21 22 24 26 24
3 4 3 4 6 5 7 8 10 3 8 8 12 12 12 13 13 18 20 21 19 15 13 12 12 11 9 8 6 5 6 5 6 7 3 11 9 8 15 17 18 16 20 22 22 23 25 24 22
5 5 8 7 8 8 10 8 13 11 8 9 12 11 12 12 12 12 16 17 16 14 13 11 10 10 10 10 7 7 9 10 10 12 15 14 15 15 15 15 18 18 19 18 21 25 26 24 23
5 7 6 9 9 9 13 8 16 14 11 11 10 8 9 10 11 12 14 14 14 12 11 9 7 7 8 9 9 10 11 13 16 17 14 12 15 14 17 18 19 18 19 19 21 20 24 22 21
5 6 8 9 10 12 12 6 13 18 14 12 9 8 8 8 9 9 12 13 12 9 8 6 6 5 3 6 7 8 10 12 14 16 15 17 13 19 19 21 23 21 21 23 19 11 13 13 17
8 10 11 11 9 8 13 12 9 11 13 14 10 8 9 8 8 10 9 10 12 7 5 6 8 10 10 5 6 8 9 11 13 14 15 14 18 19 20 22 23 19 12 12 14 13 14 15 15
6 8 4 2 4 3 11 2 7 9 11 15 12 9 8 6 5 4 6 6 5 3 2 4 7 10 13 14 13 11 11 13 13 16 15 16 18 20 23 21 14 12 15 16 14 12 11 13 18
6 6 2 4 5 7 6 5 8 12 11 11 10 9 7 6 3 2 6 5 9 10 11 11 12 14 14 15 14 13 14 14 14 16 14 15 17 18 12 12 15 14 11 11 12 12 13 13 12
8 5 4 4 1 2 5 5 8 11 9 8 9 6 6 2 2 4 7 9 7 9 10 9 11 13 13 15 16 16 15 16 16 16 16 16 15 10 11 15 14 14 14 16 15 14 14 13 12
4 2 2 0 2 3 8 8 7 9 7 7 5 8 5 2 2 3 4 3 4 8 11 11 12 15 16 17 17 18 19 17 19 18 14 9 12 10 11 16 15 17 17 14 12 12 12 12 14
1 2 3 4 3 2 3 1 8 8 1 5 3 1 2 5 5 4 7 9 9 10 12 11 12 13 15 18 19 19 19 18 17 13 15 14 15 14 15 15 15 16 18 15 15 15 16 16 15
3 4 3 1 5 3 4 8 7 4 8 8 8 11 9 6 5 3 7 8 4 7 10 12 11 13 16 17 18 18 17 18 17 17 15 15 14 14 15 15 14 14 17 18 19 18 18 19 15

GFSSGP_925_spd_033.txt.gz
Wind_Speed
12 8 8 4 2 3 4 3 9 10 9 17 18 15 17 8 5 8 23 26 27 23 21 20 18 17 17 17 17 17 16 15 13 12 11 10 9 9 9 8 7 7 8 7 7 7 8 8 7
10 8 0 2 3 2 3 10 13 9 10 21 19 19 20 18 14 13 17 31 25 23 22 20 18 18 17 16 16 15 14 14 13 11 10 10 9 8 8 7 7 7 7 6 7 9 9 9 9
8 4 2 3 3 3 5 6 6 4 7 10 7 11 7 4 5 10 33 31 26 24 21 20 19 19 17 17 15 14 13 12 11 10 9 8 7 7 7 6 6 5 4 4 6 7 8 8 8
6 3 4 1 9 4 9 8 7 6 12 18 13 10 7 14 9 28 32 27 24 24 22 20 20 18 17 15 14 13 12 11 10 9 7 7 6 6 6 7 7 7 7 5 5 6 6 7 8
1 1 2 3 9 5 6 9 6 7 9 17 17 9 8 22 29 27 29 22 23 23 21 20 19 18 16 15 13 12 11 10 9 8 7 7 7 7 8 8 8 7 7 6 6 7 8 8 9
3 2 3 1 3 7 6 6 6 11 12 20 20 15 6 25 24 27 26 22 22 24 21 20 17 16 15 14 13 12 11 11 11 10 10 9 10 9 9 8 9 8 7 7 7 7 8 8 9
4 2 5 7 3 9 5 9 12 13 10 6 14 9 7 17 24 25 27 23 21 21 20 17 16 15 14 13 13 13 13 12 11 10 10 12 11 11 11 10 10 8 7 7 7 8 8 9 9
3 1 5 6 8 3 3 9 8 12 5 7 11 6 9 14 23 28 27 24 20 19 17 17 14 13 12 14 12 13 12 13 13 12 12 11 10 8 8 8 7 7 8 8 7 9 11 10 9
4 3 10 17 8 5 3 7 6 6 9 8 5 13 19 27 24 25 27 26 24 22 19 16 14 11 11 13 12 11 12 12 12 11 9 8 4 4 7 6 3 5 6 7 6 8 11 9 9
6 4 5 6 9 7 4 10 5 6 8 11 12 19 26 27 25 22 21 21 19 23 22 17 16 10 8 8 6 8 10 10 10 8 4 6 3 1 5 5 4 5 7 6 3 8 9 6 7
3 5 5 8 8 11 8 6 7 8 7 15 19 14 13 18 20 21 21 24 26 21 22 19 14 9 5 6 5 8 10 10 9 9 5 7 0 3 1 2 3 6 7 6 7 8 9 9 12
7 9 8 5 9 8 8 6 5 9 8 12 18 20 14 10 13 19 21 27 28 25 26 20 14 11 6 6 9 9 11 11 11 10 9 7 3 5 3 4 5 6 8 9 10 8 8 10 13
9 5 7 5 10 7 6 4 4 8 10 13 18 17 15 14 21 25 25 28 29 27 28 22 16 11 8 8 5 6 7 10 8 8 7 3 6 1 2 2 3 5 6 9 6 9 13 16 17
6 8 8 3 6 2 1 2 4 4 9 10 14 15 14 15 21 24 19 26 31 31 30 25 18 16 12 9 6 5 7 5 6 8 7 4 5 2 2 2 3 6 9 10 12 15 17 18 18
8 7 6 5 7 4 3 2 6 8 9 10 11 11 11 15 23 23 17 25 28 29 29 27 23 23 20 15 8 6 10 7 5 7 5 3 4 5 4 4 5 8 10 14 16 19 19 21 23
5 6 5 6 8 6 7 6 7 9 9 8 9 8 9 10 19 27 21 23 22 26 29 29 27 20 14 12 13 8 8 6 6 6 6 6 6 4 4 4 8 11 15 18 19 20 25 26 26
2 4 6 4 9 5 4 6 7 7 7 3 5 7 5 7 16 11 15 23 23 20 20 15 19 10 9 11 8 5 5 5 6 6 7 9 8 5 5 9 12 13 17 19 20 20 21 22 25
4 3 6 8 3 3 4 3 5 5 4 4 7 14 15 17 15 25 30 30 30 28 23 24 21 17 10 9 5 0 3 2 4 4 5 2 2 6 7 8 11 14 17 20 20 22 23 24 27
3 4 9 5 5 3 4 4 6 6 10 17 15 15 15 15 18 27 29 31 30 25 23 19 23 18 15 13 9 7 9 6 6 6 3 5 3 2 7 12 13 15 16 19 22 21 22 26 27
6 6 5 4 5 4 3 1 7 9 7 12 15 13 14 11 13 20 27 27 26 23 21 19 15 13 15 13 11 9 10 8 8 11 13 12 10 11 11 12 14 15 15 16 16 20 24 24 18
9 6 6 4 6 3 3 2 6 6 12 13 10 10 11 13 12 11 19 22 23 21 19 17 13 11 9 10 8 5 6 9 14 16 15 14 12 11 13 14 16 17 18 18 20 22 17 14 13
5 7 6 6 5 3 3 3 4 8 8 11 11 9 9 12 11 13 17 17 16 15 15 11 7 5 7 8 7 8 7 8 12 14 15 13 11 14 16 17 18 20 20 19 15 9 11 13 13
2 3 4 4 4 3 8 1 5 12 11 10 9 11 9 9 10 9 16 15 12 10 9 7 10 7 4 6 6 6 4 6 8 10 11 11 14 15 18 20 24 21 13 10 13 15 14 13 11
5 4 6 5 3 2 6 4 2 9 12 9 9 10 10 9 9 13 17 15 13 10 8 5 8 13 16 15 14 11 10 10 9 11 9 11 13 15 16 16 13 13 16 19 18 14 13 14 14
3 5 4 4 4 4 4 8 6 11 13 14 13 9 9 8 7 7 13 13 10 10 10 11 12 13 12 11 10 10 12 12 13 13 10 12 13 11 11 13 15 20 19 15 13 14 17 17 18
4 3 4 0 1 4 7 4 1 10 12 9 8 8 8 8 5 6 11 13 13 10 6 4 5 5 8 10 13 13 14 15 12 12 16 11 7 9 10 13 17 16 13 14 15 15 13 14 12
6 4 2 3 5 3 1 4 5 9 7 11 10 8 7 8 6 8 13 12 9 5 4 5 7 7 9 9 10 13 13 14 16 14 7 7 9 10 16 15 11 13 19 15 13 13 16 15 14
4 2 5 3 1 2 4 3 3 3 7 7 6 6 4 1 3 5 6 8 10 9 7 6 6 10 10 11 13 15 17 17 12 10 12 13 15 14 13 14 12 17 16 15 15 15 15 17 16
4 3 4 2 5 4 1 3 4 8 10 7 8 6 5 4 4 5 9 13 9 8 8 10 11 10 11 14 16 15 15 12 9 10 12 13 16 13 14 16 15 16 16 16 17 18 19 17 16
1 3 4 4 4 1 4 5 7 8 10 7 4 6 4 4 4 8 11 12 13 13 8 9 9 10 11 13 14 14 16 10 11 10 12 16 19 17 17 16 16 17 17 17 18 15 13 5 6

GFSSGP_925_spd_036.txt.gz
Wind_Speed
7 6 4 2 3 3 3 4 7 4 5 6 10 11 10 6 2 7 16 21 27 25 20 18 18 19 19 20 19 19 18 17 15 14 13 12 11 10 9 9 9 9 8 8 7 8 7 7 6
5 3 5 2 3 2 4 4 14 11 12 13 15 14 13 6 5 13 13 23 26 25 22 20 19 18 18 19 18 18 17 15 14 13 12 10 9 8 8 7 6 6 5 5 7 7 8 8 8
3 3 3 3 3 4 5 5 10 7 11 5 6 7 5 6 12 11 25 27 26 24 22 20 19 19 18 18 17 16 15 14 13 11 9 8 7 7 6 6 7 7 6 6 6 7 7 7 7
3 4 3 2 6 6 5 7 17 15 10 11 12 6 4 5 5 21 28 29 27 24 22 21 20 19 17 16 15 14 13 12 11 9 8 8 8 8 8 8 8 8 6 6 7 7 7 8 8
4 3 1 2 6 3 1 3 15 7 6 5 8 4 4 11 32 38 30 29 29 25 22 20 19 18 16 15 14 13 12 11 11 9 9 9 9 10 9 9 9 8 7 7 8 8 8 8 8
2 2 3 3 6 9 5 2 11 14 18 15 17 12 5 27 34 31 29 28 27 26 23 20 18 17 15 14 13 13 12 11 10 10 11 11 11 10 10 11 9 8 8 8 8 8 8 8 7
5 4 5 3 6 8 0 4 13 13 6 5 9 8 6 14 32 29 28 26 26 24 22 20 18 15 14 13 13 13 12 12 12 12 13 12 13 13 11 11 9 9 9 7 7 9 9 7 7
4 3 1 5 6 7 4 4 8 8 3 11 10 6 10 13 33 29 28 25 24 22 21 20 18 16 14 12 13 13 14 13 13 13 12 11 11 9 8 7 6 6 6 8 8 10 9 9 9
1 3 2 8 10 11 6 10 5 3 8 1 1 11 22 33 34 32 28 28 25 23 22 20 17 15 13 13 14 14 14 14 14 12 10 9 7 7 3 3 3 4 4 5 4 7 7 6 8
4 3 5 6 7 5 5 11 7 6 8 7 10 13 26 33 31 25 21 23 27 25 24 21 17 15 12 13 13 13 13 12 11 8 7 6 3 3 1 1 1 2 4 4 3 6 7 8 9
6 4 1 6 4 9 7 5 4 10 4 16 20 14 14 23 23 23 25 34 35 30 27 24 19 14 10 10 13 12 10 11 10 8 7 6 3 5 6 4 1 1 3 5 6 7 9 10 11
6 1 6 3 1 5 9 6 5 6 8 17 20 20 11 11 17 22 24 27 28 32 30 25 19 15 10 11 10 10 11 11 12 9 7 7 5 6 5 4 2 3 4 6 9 9 7 11 15
8 3 6 6 6 3 8 5 4 6 13 14 16 18 17 17 23 29 32 28 31 33 32 27 23 21 13 14 11 9 14 15 14 13 12 11 9 7 4 4 3 4 5 8 6 9 12 16 17
5 7 6 4 3 4 6 3 4 2 14 16 18 17 17 17 25 25 28 31 32 34 33 26 26 24 20 17 12 12 11 12 13 14 14 10 8 9 6 5 4 4 6 7 10 13 16 19 19
8 6 4 1 2 2 5 3 7 6 16 20 19 18 16 17 23 23 32 32 39 38 35 31 27 22 18 13 9 10 12 11 11 12 12 11 8 9 7 6 7 7 9 12 14 17 18 20 21
5 5 3 4 4 1 5 5 4 7 13 15 16 14 11 1 5 6 7 21 31 35 37 23 24 22 17 10 9 9 11 10 9 12 12 11 10 8 8 8 7 7 9 13 15 16 18 19 20
5 4 4 2 8 3 3 5 6 6 8 5 9 8 9 10 17 22 18 16 17 18 18 20 25 22 11 14 9 5 9 6 6 6 12 10 9 6 5 5 5 8 11 14 15 18 19 22 24
6 5 4 5 3 4 4 4 4 1 13 11 12 11 13 16 12 22 29 34 34 27 23 22 20 14 13 8 5 4 4 9 8 7 5 2 2 1 3 6 8 10 12 13 15 16 18 21 24
3 2 9 2 1 4 4 5 1 6 15 14 14 13 12 13 15 26 31 30 29 29 26 23 17 15 11 9 7 11 11 16 13 14 13 11 8 7 6 6 7 9 11 12 13 17 20 25 22
6 9 4 5 5 4 4 4 5 1 7 16 16 14 13 11 13 18 26 24 25 23 20 21 20 18 17 16 14 13 10 14 16 13 12 10 8 7 8 9 12 14 15 17 19 21 19 12 13
5 6 2 3 3 3 7 3 4 5 9 9 8 11 11 13 13 10 19 22 22 21 18 16 14 13 13 14 13 13 13 12 12 12 9 8 6 7 9 11 15 18 21 21 19 16 14 9 10
3 1 3 3 4 2 4 2 3 2 8 8 9 9 9 11 10 12 16 17 17 17 16 14 11 13 13 13 14 11 8 8 9 9 6 7 9 11 13 16 19 21 16 11 10 11 12 12 8
4 1 1 2 3 3 6 4 4 7 7 8 6 8 9 9 10 9 15 15 14 14 13 15 14 11 10 9 9 7 5 3 3 4 7 9 11 14 16 17 19 16 11 12 15 12 6 7 6
2 3 7 4 3 3 4 4 2 4 5 6 5 7 8 7 7 11 14 14 12 11 10 11 11 10 5 4 4 3 4 3 4 6 7 8 9 10 12 11 9 9 14 14 8 7 10 10 9
8 5 3 4 4 4 3 4 1 8 10 9 9 7 6 6 7 7 10 11 10 10 12 10 7 9 7 7 7 6 4 3 4 5 9 10 9 8 7 9 14 15 15 13 12 13 12 12 13
2 5 4 3 2 4 5 3 4 2 11 8 7 8 6 5 5 6 12 13 15 13 8 6 8 12 9 9 7 5 6 7 8 9 7 3 5 6 11 14 13 12 12 12 11 11 12 12 11
4 4 4 5 2 3 0 3 4 2 13 14 14 9 10 7 6 8 15 14 8 4 4 7 12 11 8 6 5 7 8 8 8 5 5 7 9 12 10 10 11 11 12 16 14 13 15 16 17
5 2 4 4 2 1 3 3 4 5 4 2 6 7 6 4 1 2 5 8 11 9 9 10 8 5 3 4 8 9 7 7 7 7 6 6 8 8 9 10 13 12 16 16 15 16 17 20 20
4 3 5 4 3 4 0 4 2 9 7 6 5 5 5 8 7 8 15 16 15 11 9 7 5 3 4 7 9 9 8 11 11 11 8 8 12 12 12 12 11 11 13 14 14 15 15 13 8
2 3 4 4 2 2 3 5 6 8 7 7 8 6 11 12 11 10 12 14 14 7 2 2 3 3 4 8 8 9 14 16 16 16 12 8 10 10 9 9 10 10 12 10 9 9 4 7 9

GFSSGP_925_spd_039.txt.gz
Wind_Speed
8 4 4 1 2 5 3 4 1 3 4 4 3 3 6 3 0 3 10 13 26 25 22 20 19 19 20 20 19 18 18 17 16 14 14 13 12 10 10 9 8 8 7 7 7 6 6 7 7
5 5 3 2 4 2 4 3 4 6 9 8 8 3 8 4 4 11 14 21 27 25 23 21 20 20 20 20 20 18 17 15 14 13 12 11 9 8 7 6 6 5 6 8 7 6 6 7 7
7 7 3 3 3 3 3 2 7 12 9 4 3 6 4 4 7 8 15 27 25 25 23 22 20 19 19 19 17 17 16 14 13 12 11 9 8 7 6 6 6 5 4 5 6 6 7 7 8
3 3 4 3 5 7 3 6 10 8 3 9 9 4 5 4 2 13 30 27 26 24 22 21 20 19 18 17 16 15 14 13 12 10 9 8 7 7 7 7 7 6 6 6 7 8 8 8 8
4 0 3 1 5 4 4 4 10 5 5 13 2 6 2 3 15 31 29 28 27 24 22 20 19 17 16 15 15 14 13 11 11 9 9 9 9 8 8 8 7 7 7 7 7 9 8 8 8
2 2 3 1 6 6 6 2 5 3 5 13 8 5 2 14 30 26 28 27 25 26 22 20 17 16 14 14 13 13 12 12 11 10 10 10 9 10 9 8 8 8 7 7 9 10 9 9 9
4 3 3 5 5 4 5 5 7 10 7 4 9 5 4 6 24 27 27 26 24 23 22 19 16 14 13 13 13 13 12 12 12 12 10 11 12 10 9 9 9 8 8 8 10 11 10 10 10
3 4 3 5 2 3 2 1 1 3 2 7 9 7 7 9 24 26 26 24 24 22 20 19 17 14 14 14 12 13 12 12 12 12 11 10 8 7 6 6 5 5 6 6 7 8 8 9 9
2 4 3 6 5 4 6 3 2 3 8 2 2 5 19 30 28 27 25 24 22 21 20 19 17 15 14 14 13 13 13 12 11 11 10 8 6 4 3 2 1 2 2 2 3 4 6 6 8
3 4 10 8 14 19 11 8 8 5 3 5 8 14 27 28 27 23 20 21 23 23 23 21 19 17 16 15 14 14 14 13 12 10 8 5 4 3 1 1 2 4 4 2 3 4 5 7 9
5 4 7 9 20 15 7 6 3 10 3 10 15 15 18 22 18 21 22 31 32 28 25 24 20 17 16 16 16 14 13 12 11 9 8 7 5 5 7 5 5 6 6 6 6 7 8 8 9
2 4 3 5 7 7 9 7 7 0 9 12 20 21 18 14 17 20 23 25 28 29 29 26 22 20 18 16 17 16 15 14 11 10 8 8 7 6 6 6 5 6 7 8 9 8 7 10 13
2 2 5 6 8 5 6 4 7 5 9 10 15 18 18 17 23 28 34 31 31 31 31 28 25 22 20 17 15 16 15 15 13 12 11 10 7 7 6 6 6 6 7 8 7 9 11 14 15
4 5 5 4 6 3 5 3 3 2 10 13 16 16 16 17 23 22 20 28 32 33 32 30 28 23 20 19 14 13 13 15 15 15 13 12 9 10 9 7 6 7 8 8 10 12 14 16 17
4 6 4 3 1 4 6 3 5 7 14 17 16 15 13 16 14 10 19 24 34 34 35 32 29 24 17 12 8 7 8 10 9 10 12 13 12 10 9 8 7 6 8 10 11 12 14 17 18
5 5 4 3 3 4 4 6 2 9 14 13 5 3 5 8 9 4 6 20 28 28 29 27 23 15 12 6 4 1 5 8 7 10 12 12 10 8 6 5 4 5 8 11 13 15 17 18 19
6 3 2 4 3 1 3 4 1 6 7 7 6 6 8 8 15 14 7 13 20 23 20 20 16 13 10 2 2 5 5 3 2 3 6 4 3 2 2 2 2 6 8 11 12 13 17 20 23
4 3 3 5 4 3 1 2 4 4 9 8 7 8 9 11 8 14 22 23 22 20 17 17 16 10 5 4 12 15 15 16 13 12 8 4 3 3 3 6 7 8 10 12 14 15 18 20 20
3 2 4 1 3 4 2 5 8 7 12 9 7 9 10 11 6 19 26 33 31 24 18 13 7 9 7 9 12 13 17 15 15 13 11 8 7 7 9 9 10 12 14 16 19 22 23 22 19
6 6 3 1 4 5 5 7 7 7 3 5 10 8 8 6 6 15 24 28 28 25 24 21 20 18 15 15 15 12 12 11 8 7 8 7 8 8 8 9 11 14 18 21 20 18 15 11 14
5 4 3 3 5 6 4 5 5 5 6 6 6 5 5 7 9 8 16 23 23 23 20 18 17 16 15 12 10 9 7 5 3 2 2 1 4 5 7 9 12 16 18 15 13 14 15 15 17
3 1 3 3 3 4 2 3 2 1 4 4 4 4 5 6 6 9 15 18 20 18 16 17 15 13 10 6 4 2 1 2 0 2 2 1 3 8 10 13 14 16 14 14 15 17 16 11 11
4 2 2 2 3 3 4 4 3 7 2 3 3 4 4 5 7 8 12 16 15 16 17 16 13 11 10 7 4 4 4 2 2 1 2 4 6 8 9 9 9 9 10 13 14 8 6 8 11
2 4 6 4 3 2 4 4 3 5 5 4 2 3 5 5 3 5 10 13 13 12 14 14 12 10 7 7 7 6 5 2 1 5 5 7 8 6 5 6 9 12 11 10 9 9 9 10 9
6 5 2 2 3 4 5 3 4 5 7 8 8 8 7 7 7 7 9 11 9 7 9 8 6 7 6 6 5 4 4 3 4 6 9 10 8 5 6 11 13 10 10 9 9 9 8 8 8
2 4 4 5 3 2 5 2 5 2 10 10 8 9 9 8 6 7 9 5 3 5 5 4 8 9 6 4 4 4 3 5 9 10 8 5 5 7 10 11 10 9 9 9 11 12 11 11 12
0 3 3 6 3 3 2 2 4 4 10 9 13 10 7 4 3 4 7 6 3 1 3 8 9 8 5 5 5 6 7 10 11 10 7 8 9 9 10 10 10 10 10 12 12 9 10 12 13
5 4 3 4 2 1 3 3 4 8 8 4 4 5 1 4 7 7 12 11 8 3 4 4 2 2 3 5 7 10 10 10 10 12 15 15 11 11 11 12 11 9 8 8 10 11 12 13 13
4 3 6 5 3 4 1 5 5 9 8 6 5 6 8 7 6 7 14 12 8 3 2 1 3 4 5 7 10 11 15 15 14 17 17 16 14 13 11 11 10 8 7 7 9 11 10 9 5
2 3 4 4 2 2 3 5 4 5 3 6 7 7 6 9 7 8 11 13 11 9 5 6 6 8 9 9 13 16 16 15 17 19 20 20 16 12 14 13 13 13 10 11 8 9 5 5 7

GFSSGP_925_spd_042.txt.gz
Wind_Speed
6 5 3 2 3 4 3 4 1 1 2 2 6 6 7 4 1 1 8 9 20 23 20 18 20 21 21 20 20 20 19 18 16 15 14 13 12 10 10 10 9 8 9 7 7 7 8 9 8
4 2 1 2 4 3 4 3 4 1 6 9 7 4 4 4 3 8 8 13 23 22 20 20 21 21 21 20 20 19 17 16 15 14 13 11 10 8 8 7 7 6 7 7 7 7 8 9 8
1 2 3 3 3 4 3 3 4 8 3 3 5 5 3 3 6 5 7 22 22 21 20 19 20 21 20 19 18 17 16 15 14 12 11 10 8 8 8 8 7 7 7 9 9 9 9 10 9
3 4 4 4 3 4 3 5 5 6 4 6 4 5 3 7 5 9 20 23 22 21 20 19 19 19 18 17 16 15 14 13 12 11 10 9 8 8 9 9 8 9 9 10 10 10 10 10 9
2 3 3 3 2 4 0 5 2 6 3 7 11 4 2 3 9 19 24 22 22 20 19 18 18 18 17 16 15 14 13 12 10 9 9 10 10 10 10 10 10 9 9 10 10 10 10 10 10
3 3 4 1 3 5 2 7 0 4 3 5 4 7 1 9 16 24 23 22 21 21 19 18 17 16 15 14 13 12 11 10 10 10 11 10 11 11 10 10 10 10 9 11 11 11 11 12 12
3 4 4 5 2 5 3 5 4 6 4 3 5 4 2 6 17 24 23 22 20 20 20 18 16 14 13 12 12 11 11 12 11 12 11 12 11 11 11 10 10 11 10 10 11 12 12 12 12
4 4 1 2 2 3 5 5 9 3 0 3 4 5 5 9 18 23 21 20 21 20 18 17 15 13 13 13 12 12 12 11 11 11 12 11 10 9 9 7 7 7 7 6 8 8 9 10 10
2 4 2 5 2 2 5 15 8 4 5 2 3 5 12 26 24 24 21 20 19 19 18 16 15 14 13 14 14 13 12 11 12 11 10 8 7 7 5 4 3 4 3 3 3 5 7 8 9
4 4 7 6 9 8 10 5 6 3 2 4 4 11 25 26 26 24 21 21 21 21 21 19 17 16 15 15 14 13 12 13 13 11 9 7 5 3 2 1 1 1 2 2 5 5 6 7 8
4 4 6 6 8 18 7 5 2 8 2 6 12 13 15 20 17 18 21 27 29 25 23 21 18 16 16 15 14 15 13 13 12 10 9 7 4 3 4 3 4 4 4 4 5 6 6 5 8
2 8 6 6 7 6 9 6 4 2 6 7 14 19 15 13 16 20 23 28 26 25 23 21 20 18 16 14 14 13 13 11 11 9 7 7 6 6 5 6 6 4 4 4 5 4 6 7 9
4 2 4 8 6 5 8 3 7 4 6 11 13 16 15 15 20 24 31 28 26 24 24 22 19 18 15 14 13 13 12 12 10 9 7 8 7 5 5 4 3 2 4 5 5 7 8 9 10
3 4 6 6 7 6 6 3 4 0 7 11 15 14 14 13 15 14 16 26 27 26 25 21 18 16 12 12 8 11 12 12 12 12 11 12 9 7 6 3 2 2 4 5 6 7 8 10 13
4 5 6 4 3 3 5 2 2 4 8 12 11 7 6 3 5 5 13 20 24 24 22 21 18 15 7 2 2 5 8 9 10 12 12 10 9 7 5 3 2 2 2 4 6 8 10 13 15
5 5 4 3 3 0 4 5 1 7 12 7 7 7 7 4 3 4 7 16 21 23 20 17 16 12 10 10 9 7 8 8 6 3 3 4 4 2 2 2 2 4 7 8 10 13 14 16 17
6 3 1 2 2 3 2 1 9 2 9 7 7 6 6 5 9 8 5 9 15 19 18 15 13 13 10 10 10 6 0 3 6 4 4 4 2 2 2 4 6 8 8 12 13 14 16 19 20
4 3 1 3 1 4 4 4 6 6 5 6 6 7 7 7 7 11 7 5 13 19 21 21 19 14 4 3 10 11 14 14 13 12 9 7 7 7 7 7 8 8 11 14 17 18 18 18 14
4 4 2 1 2 6 5 4 7 6 7 7 7 7 7 9 10 16 18 22 25 23 21 18 14 10 8 14 14 13 13 12 11 9 7 7 8 9 9 9 10 13 17 18 18 18 17 17 17
5 5 2 2 6 5 6 6 5 7 4 5 6 6 7 6 6 13 20 23 25 23 22 18 16 13 12 12 14 10 9 8 8 8 9 8 6 6 7 8 10 13 15 16 17 17 17 15 18
5 6 0 4 2 7 5 3 4 5 6 6 6 4 5 6 7 5 16 20 21 24 24 22 20 17 13 11 10 9 6 3 2 1 1 1 3 5 7 9 10 12 14 14 15 17 17 12 11
3 1 2 4 4 2 2 3 2 3 4 4 4 4 5 6 3 3 9 16 18 18 17 17 14 11 9 7 4 3 2 2 3 3 3 1 4 6 6 7 8 11 13 15 17 15 13 10 9
1 5 4 4 5 4 4 4 5 4 4 4 4 4 5 6 6 7 9 12 15 13 13 13 12 8 7 5 4 2 2 2 2 0 2 4 6 6 6 6 7 10 13 12 10 9 9 9 10
4 5 8 5 3 2 2 4 4 4 5 5 4 5 7 7 7 10 13 11 12 10 12 13 11 8 7 5 3 2 3 2 2 4 5 6 7 7 6 7 9 13 11 8 6 8 9 9 9
6 5 3 3 2 4 3 2 5 3 5 10 10 8 7 7 6 6 7 10 10 14 10 10 7 7 6 3 4 5 5 6 7 9 11 11 10 10 9 11 13 13 11 10 8 8 10 10 10
3 5 4 4 3 3 4 3 4 5 5 8 9 9 8 5 4 3 4 7 8 8 8 6 7 6 5 4 5 4 6 10 11 10 11 9 10 11 11 13 15 15 12 12 13 14 11 12 12
2 3 3 6 3 2 2 4 3 5 3 6 9 6 7 7 7 7 8 8 9 7 4 6 6 5 2 2 3 6 9 11 12 12 14 14 16 18 17 16 15 15 15 14 15 14 11 13 13
2 5 2 3 3 3 3 4 4 5 7 6 6 8 8 5 5 5 10 9 10 9 9 8 4 2 0 3 5 9 13 14 14 14 17 18 20 20 17 15 14 15 15 14 14 13 13 14 14
2 2 5 5 3 4 1 5 4 10 11 10 8 5 5 6 6 6 12 14 12 9 9 5 1 3 6 9 11 13 16 16 16 18 21 22 22 20 17 14 14 12 12 11 12 13 11 11 11
2 3 4 4 3 2 3 5 2 2 6 6 6 7 6 6 7 8 9 10 9 8 8 8 8 10 13 12 15 18 19 19 20 20 23 22 21 21 18 16 14 13 13 13 13 10 11 8 8

GFSSGP_925_spd_045.txt.gz
Wind_Speed
3 2 1 2 3 1 0 1 2 4 3 2 3 5 8 7 2 1 9 7 19 20 16 16 21 22 22 22 22 21 20 19 18 17 16 14 12 11 10 9 8 7 8 8 8 7 7 7 7
2 3 2 1 1 3 2 3 6 6 10 9 7 7 4 4 4 7 7 11 20 20 17 16 20 21 21 21 20 20 18 17 16 15 13 11 10 9 8 8 8 7 8 8 9 9 9 10 10
2 3 1 2 2 4 3 7 16 15 9 4 5 4 2 3 5 4 7 20 22 19 17 17 20 20 20 20 19 18 16 15 14 12 11 10 9 9 9 9 9 8 9 9 10 10 11 11 11
3 2 2 1 3 2 3 14 14 14 7 3 8 7 4 3 8 7 13 17 21 19 17 18 19 19 19 19 17 16 15 13 12 11 10 9 9 10 10 10 10 10 10 10 11 11 11 11 12
2 1 2 1 2 1 1 14 7 6 9 6 6 5 4 0 13 19 22 18 22 20 18 18 18 18 18 17 15 15 13 12 11 10 10 10 10 11 11 11 10 11 11 11 11 11 11 12 13
1 0 2 2 1 2 4 10 8 7 3 6 5 11 4 7 16 21 23 20 20 20 19 18 17 17 16 15 14 13 12 11 10 10 10 11 11 11 11 11 10 10 11 12 12 13 13 13 13
1 1 3 3 3 4 5 5 8 8 11 1 8 4 4 7 11 24 23 20 19 18 18 18 16 15 13 13 13 12 11 11 12 12 12 12 12 11 12 11 10 11 10 10 11 10 11 11 11
3 2 4 2 3 5 4 6 8 4 3 3 2 5 6 9 19 20 19 19 18 18 17 17 15 14 13 13 12 11 11 12 12 12 12 11 11 10 9 8 8 7 6 6 7 7 8 8 9
2 1 4 6 6 5 5 5 3 5 5 3 3 2 11 21 20 20 17 15 17 17 17 17 15 14 13 13 13 12 12 12 12 12 10 9 8 7 6 5 4 4 3 2 3 4 5 5 6
3 2 7 6 11 9 6 4 6 1 4 2 4 11 21 21 20 19 16 16 15 18 19 18 16 14 14 13 13 12 12 12 12 10 8 6 5 4 3 2 1 0 1 2 3 3 5 5 6
3 2 6 5 11 18 23 8 1 8 6 5 10 16 18 19 16 16 16 19 22 23 21 19 15 14 12 11 10 10 10 9 9 8 6 5 4 4 4 3 2 1 2 2 3 4 3 4 6
4 2 5 13 7 1 13 9 4 6 2 4 16 20 17 16 18 20 20 20 20 23 19 16 14 11 10 9 7 7 6 7 7 6 7 7 7 6 6 5 4 3 2 2 2 2 3 4 5
3 3 5 6 7 5 7 5 3 3 5 14 18 17 18 15 15 15 15 15 17 19 18 16 14 11 8 6 4 4 5 6 7 8 8 9 9 8 5 3 3 3 2 1 2 2 2 4 6
4 3 4 5 9 4 5 3 4 2 9 13 16 13 11 13 15 13 13 14 15 14 15 14 12 10 5 2 1 4 6 9 11 11 12 11 10 6 3 2 3 2 1 2 3 4 5 8 9
6 7 5 4 5 4 8 3 2 4 11 14 12 10 10 9 8 8 9 13 16 14 13 13 12 9 6 5 6 10 9 8 7 5 8 10 7 4 4 2 1 1 3 4 4 6 8 8 12
4 4 4 1 5 2 2 5 6 3 13 13 12 10 9 5 3 1 3 8 13 11 11 13 13 15 17 16 16 14 15 14 10 10 10 3 2 2 0 2 3 4 5 6 8 9 11 11 11
7 4 3 4 3 5 1 3 6 6 6 8 8 7 6 5 5 7 5 3 7 11 15 17 19 19 15 8 9 14 15 10 6 4 5 7 8 7 5 5 4 5 6 8 10 11 12 12 12
4 5 2 4 1 7 5 3 6 7 8 7 6 6 6 4 6 6 6 6 9 13 17 18 19 17 10 7 16 17 6 8 9 10 9 8 8 6 5 5 5 6 9 10 12 13 12 11 12
4 4 4 1 2 6 4 4 6 4 7 7 6 5 6 7 5 7 12 14 17 19 20 21 19 12 12 6 11 16 12 10 10 8 7 6 5 4 5 6 7 9 11 12 12 10 11 12 11
3 6 3 3 4 4 3 6 6 6 3 4 8 8 8 9 9 11 13 15 16 18 19 18 14 15 13 17 17 13 12 7 6 5 4 3 3 5 6 7 8 10 10 12 13 11 11 11 10
5 5 3 4 4 7 3 2 2 5 7 8 7 8 9 11 12 10 10 11 13 16 17 16 16 15 15 15 14 11 9 6 4 2 2 3 4 5 7 8 8 9 10 10 13 12 10 11 9
4 1 4 5 2 2 3 2 2 3 5 7 9 8 8 9 8 9 12 13 14 17 20 21 19 18 16 13 8 5 2 2 2 2 2 3 6 7 8 8 8 9 12 13 12 9 8 8 11
4 3 4 3 4 3 2 1 3 5 6 9 8 8 8 7 8 11 13 12 8 12 14 16 15 11 9 7 5 3 4 4 3 3 4 6 8 9 9 8 9 10 13 12 11 7 7 7 8
8 5 6 4 2 0 1 2 2 4 5 11 9 9 10 10 9 9 10 12 10 10 10 11 9 9 6 5 4 5 5 4 4 6 7 9 10 9 10 11 12 13 13 11 7 7 7 7 7
4 4 2 0 1 3 0 3 4 3 6 16 17 14 13 11 10 9 9 7 6 6 7 8 8 7 6 6 7 7 6 7 10 9 9 10 9 11 13 14 14 13 11 10 10 10 10 10 10
2 3 4 4 3 1 2 4 2 3 5 7 12 14 13 11 9 8 9 9 7 7 8 7 8 8 7 7 7 6 5 8 8 9 9 10 12 13 15 16 16 15 14 14 14 12 12 12 11
3 2 2 6 1 1 2 3 4 1 2 10 15 13 12 11 8 7 7 8 8 8 7 8 9 7 6 5 4 4 6 8 9 12 14 14 15 17 17 17 17 17 16 16 15 14 15 14 14
1 7 3 2 4 3 2 4 4 3 6 9 13 14 9 5 5 6 7 8 8 8 10 9 7 5 3 3 4 6 9 11 13 15 17 19 23 24 22 21 18 17 17 16 16 17 14 16 14
2 2 5 4 1 3 1 3 3 7 9 15 14 7 7 8 8 8 10 10 10 10 9 8 6 5 4 5 6 9 12 12 14 16 16 17 19 19 20 21 21 18 14 14 14 12 13 9 9
1 3 4 3 4 1 1 4 1 4 8 7 7 7 9 11 10 11 10 9 10 10 10 8 6 6 7 6 7 10 13 14 12 11 15 17 19 21 22 19 15 14 12 10 9 10 6 8 6

GFSSGP_925_spd_048.txt.gz
Wind_Speed
2 2 3 6 6 6 10 5 3 9 7 7 5 2 2 13 2 2 10 11 21 19 18 21 22 22 21 21 20 20 19 18 17 16 14 13 11 10 9 8 8 8 9 8 6 7 8 9 10
2 2 6 3 7 10 7 4 5 8 13 11 11 5 2 6 7 9 13 17 19 20 18 19 22 22 22 21 20 19 17 17 16 14 13 11 10 9 8 7 7 8 9 8 8 10 10 11 11
3 5 5 4 8 10 2 4 14 19 12 9 6 9 7 4 6 5 13 18 17 18 17 19 22 22 22 20 19 17 16 15 14 12 11 10 9 8 9 8 8 9 9 9 9 10 10 12 12
6 6 4 8 7 3 1 11 19 17 10 8 15 5 3 5 5 9 15 14 18 16 15 19 21 21 21 20 18 16 15 13 11 10 10 9 9 9 9 9 9 10 9 10 10 10 10 12 12
7 3 7 10 4 3 4 16 19 13 11 8 10 10 5 5 12 15 23 13 17 16 15 16 19 19 19 18 16 14 12 11 10 10 10 10 10 10 10 10 10 10 10 9 9 10 12 12 12
6 4 7 10 6 4 9 11 12 14 15 13 10 14 7 8 15 17 20 16 16 18 16 16 17 17 17 15 14 12 11 10 10 11 11 10 10 10 10 10 10 10 10 11 11 11 11 11 11
9 7 5 3 5 8 10 8 11 11 8 7 6 7 5 9 13 17 19 19 17 16 16 15 14 14 14 12 12 11 10 9 10 10 11 11 10 10 10 10 10 8 9 9 8 8 8 8 8
5 4 6 3 8 7 11 7 14 13 5 6 6 4 6 13 16 18 18 18 16 15 14 14 13 12 10 10 10 10 10 10 11 11 10 10 10 9 8 8 6 5 5 5 5 4 4 6 7
2 5 4 6 9 10 6 6 5 2 8 6 3 1 10 21 23 21 19 16 15 14 14 13 12 10 10 9 9 9 10 10 10 10 9 8 5 5 4 4 3 2 1 1 1 1 3 4 6
7 8 4 1 12 14 7 3 7 6 4 4 6 10 21 22 23 21 19 18 16 15 14 11 10 10 9 9 9 8 8 7 7 7 6 4 3 2 2 0 1 2 3 3 4 4 5 4 4
6 9 4 7 9 11 13 8 8 7 5 4 8 17 20 20 20 18 17 17 18 16 13 10 10 10 9 8 8 7 6 6 6 4 3 1 0 2 3 3 3 4 5 3 3 4 3 3 5
7 3 3 12 10 6 20 19 10 12 8 2 10 22 22 18 18 18 19 19 17 15 12 12 10 9 8 8 7 6 6 5 4 3 2 2 2 3 4 5 5 5 5 4 3 4 3 3 4
10 4 2 8 9 4 12 14 3 3 5 11 18 19 16 14 16 16 16 15 13 13 12 12 11 10 9 8 6 4 3 1 1 2 4 3 4 3 3 3 4 4 5 4 4 4 5 6 6
5 10 10 4 8 8 12 6 5 5 8 14 17 14 13 12 14 13 11 12 11 11 11 11 11 9 9 7 6 5 4 3 3 5 6 6 7 5 3 2 3 3 3 3 3 4 6 8 10
9 6 7 7 10 6 9 9 6 4 9 14 14 12 11 11 10 10 10 9 9 10 11 12 10 8 9 10 10 10 10 10 10 10 9 6 3 1 2 2 1 0 2 3 5 6 8 10 13
5 9 7 6 12 4 10 12 4 3 9 14 14 12 11 8 8 5 4 6 8 9 11 13 13 13 13 14 14 14 16 15 19 6 4 6 3 5 5 3 2 2 4 5 7 9 11 13 16
6 7 9 7 2 6 8 9 4 1 9 11 11 11 11 9 7 2 1 3 6 10 13 15 17 16 16 15 19 8 8 17 3 5 8 10 9 9 6 5 4 4 5 6 9 11 12 15 16
7 12 10 11 6 12 9 7 5 5 10 10 9 10 9 8 4 3 3 4 7 13 16 18 18 18 15 3 9 12 14 6 8 7 8 8 6 5 4 4 4 5 7 8 9 11 13 15 16
3 8 13 8 4 7 5 6 3 5 9 10 11 10 7 6 5 6 6 8 11 14 17 17 18 18 13 9 4 8 10 8 7 6 6 5 4 4 4 4 6 7 8 9 10 12 14 16 15
6 7 7 6 5 4 10 9 7 8 8 8 9 8 8 8 8 8 9 11 11 14 15 15 14 12 11 8 11 10 10 7 6 5 5 5 4 4 4 4 5 6 9 10 11 12 14 15 14
5 5 10 7 7 2 8 6 8 5 7 6 5 5 8 9 11 11 11 11 13 14 14 13 12 12 11 11 9 8 6 6 3 2 1 2 2 3 3 4 5 7 9 11 11 11 12 14 15
6 3 6 11 12 7 6 5 10 9 8 8 9 10 10 12 11 10 14 16 16 15 14 14 14 14 13 12 9 9 4 4 1 1 1 1 2 3 4 5 5 7 8 10 11 11 11 12 15
4 4 5 5 5 5 9 7 8 9 9 11 11 12 12 12 10 13 16 17 16 14 13 11 11 9 9 7 7 6 4 4 2 1 3 5 5 5 5 5 7 9 10 11 11 10 11 12 13
12 8 6 3 3 8 3 6 6 6 8 12 14 13 13 12 13 16 15 13 12 10 10 10 10 9 7 7 7 6 5 3 0 3 5 7 8 7 8 10 11 12 13 12 12 12 13 14 15
6 6 3 5 6 6 3 6 10 4 4 11 16 16 14 14 14 13 14 13 12 11 10 10 10 9 8 8 7 6 5 3 2 5 7 9 10 12 14 14 15 16 15 15 14 15 15 16 17
3 4 3 4 3 1 2 5 3 3 1 5 14 15 15 15 13 13 14 13 12 12 11 9 8 8 8 8 7 4 1 2 5 7 9 11 13 15 16 16 16 17 18 18 16 16 17 17 16
4 5 3 2 1 3 3 3 6 3 4 9 13 16 17 15 13 12 13 12 11 10 9 8 8 8 8 7 5 2 2 4 7 9 11 12 14 15 17 18 18 19 20 19 18 18 18 18 16
4 9 3 3 3 4 4 4 2 7 8 12 16 17 16 14 12 10 10 9 9 8 9 9 8 8 6 3 1 1 4 6 7 8 9 11 12 14 16 18 20 21 21 19 19 19 18 17 15
4 5 1 1 2 2 2 3 3 4 9 14 15 16 15 13 11 10 10 10 10 11 11 10 8 6 3 2 1 3 4 6 7 8 8 10 13 17 19 21 21 21 21 19 20 19 17 17 14
3 6 9 4 5 1 2 2 5 3 4 8 12 14 12 11 11 11 13 14 14 12 10 9 7 6 3 3 1 4 6 6 7 8 10 13 16 18 19 19 18 19 18 17 15 16 14 10 12

GFSSGP_925_spd_051.txt.gz
Wind_Speed
6 7 9 11 8 8 17 19 5 10 10 3 9 7 11 17 10 6 13 20 25 22 21 20 20 20 20 20 19 18 17 15 13 12 12 11 10 10 9 8 8 8 8 9 9 10 11 11 12
9 7 11 9 10 14 14 22 9 14 15 14 14 7 10 10 11 10 9 17 23 21 21 18 21 20 19 18 17 17 15 13 13 11 10 9 8 8 8 8 8 8 9 9 10 10 11 12 13
7 9 9 10 14 15 9 7 16 14 9 6 6 12 7 6 11 4 14 16 19 19 20 23 20 20 18 17 16 15 14 13 11 9 8 7 7 8 8 8 8 8 8 9 9 10 11 12 12
7 8 9 10 18 15 9 9 17 14 10 8 12 11 9 10 3 4 14 17 17 19 18 22 21 20 18 16 15 13 13 12 10 8 8 7 7 8 8 8 8 8 8 8 8 10 10 12 12
13 9 12 14 19 3 7 16 9 11 9 9 6 9 11 8 15 7 10 15 13 18 18 20 20 18 17 15 14 13 12 10 9 8 8 8 8 9 9 9 9 8 8 8 9 10 9 11 12
8 11 13 14 15 7 9 12 11 13 12 10 10 11 7 11 18 19 14 14 11 20 20 17 18 17 16 14 13 11 10 10 9 9 9 9 9 9 9 9 9 9 9 9 9 8 8 9 10
15 12 16 14 1 6 12 10 14 7 11 1 18 11 7 19 18 17 13 15 11 15 17 17 15 15 14 12 11 11 9 9 9 9 9 10 10 10 10 9 9 8 7 6 6 6 7 8 9
13 12 19 12 5 8 5 16 16 11 12 5 9 6 9 17 19 20 16 18 18 17 16 16 15 14 11 11 11 10 9 9 9 10 9 10 10 9 10 8 5 4 3 3 4 4 5 6 7
12 12 13 8 10 9 9 16 8 13 11 7 6 6 14 25 23 27 28 20 17 18 17 16 15 12 12 10 10 9 9 9 9 9 10 8 6 5 7 3 2 2 3 4 4 5 6 7 5
12 12 5 11 9 7 7 12 8 4 6 1 10 17 18 23 22 22 20 20 17 17 15 13 12 11 11 10 10 9 8 8 7 6 5 4 4 2 3 1 3 4 6 6 7 7 8 7 9
14 15 6 9 11 11 12 13 5 6 4 11 8 15 17 22 18 15 15 18 18 17 15 13 13 11 10 11 10 9 8 7 6 5 3 3 2 2 2 3 6 2 5 7 6 7 8 8 9
11 11 6 8 12 6 13 11 16 15 17 3 18 18 18 18 17 20 21 18 19 16 14 14 13 12 10 10 9 8 7 6 5 4 2 2 3 2 3 4 4 4 5 7 8 10 8 9 9
10 2 8 14 13 4 11 11 10 11 4 10 18 18 18 15 16 16 17 18 18 16 15 14 14 13 12 10 9 8 6 3 4 3 3 6 7 6 4 4 4 3 6 6 8 9 11 11 12
7 10 6 3 3 3 13 7 11 10 11 17 17 17 15 14 17 18 19 18 17 17 16 15 14 12 11 10 8 8 10 10 9 9 9 7 6 5 3 4 3 4 4 6 7 8 12 13 15
7 8 8 7 7 6 10 9 11 10 14 16 14 14 14 15 17 16 16 16 15 16 17 16 15 13 12 13 12 12 11 12 13 10 8 7 4 2 3 3 3 4 6 6 7 9 12 14 17
10 11 13 17 12 6 13 13 9 12 13 14 15 14 13 13 14 14 13 13 13 14 15 15 14 16 17 17 16 13 8 11 15 13 6 5 5 6 4 4 4 2 4 5 8 11 14 16 19
10 10 12 6 15 9 11 13 12 11 13 14 14 14 13 13 12 11 9 9 11 13 15 15 17 19 18 16 11 13 12 10 15 2 5 5 6 5 6 4 4 5 7 8 9 12 14 17 19
8 12 11 14 12 10 11 13 11 11 13 14 13 13 12 11 10 8 8 8 10 13 16 17 20 20 19 14 9 8 13 8 5 5 5 4 3 3 3 2 3 6 7 8 10 12 13 15 18
3 9 10 9 10 12 12 8 9 13 12 10 10 11 11 11 8 8 6 7 9 12 15 19 19 17 13 9 6 8 6 10 11 8 6 4 2 2 3 4 6 7 9 9 10 12 14 16 18
5 5 10 8 10 8 7 10 10 11 12 12 14 13 13 10 9 8 9 9 12 13 16 18 15 16 11 9 8 11 14 13 11 8 6 3 2 3 4 6 8 8 11 10 11 13 15 17 17
7 5 10 12 10 13 9 12 12 11 10 9 11 11 11 12 11 11 13 12 13 14 15 17 15 14 12 12 12 11 9 8 8 6 5 1 3 4 6 7 8 8 9 11 12 13 14 18 18
7 2 0 4 13 14 16 11 13 13 13 12 12 10 12 11 11 12 14 17 18 18 16 15 15 14 12 11 10 11 12 6 5 2 1 3 4 6 7 8 8 9 11 13 13 15 16 17 19
12 3 4 7 11 12 16 8 21 17 16 16 14 14 13 14 14 14 18 19 18 17 16 15 14 12 11 7 7 7 4 2 2 2 3 6 8 8 8 9 9 11 14 15 16 17 17 18 21
5 4 6 7 10 8 14 10 8 14 12 16 14 14 15 14 14 16 19 20 17 15 14 13 13 12 10 8 6 4 4 1 2 3 7 8 9 8 9 10 12 15 17 17 18 17 18 19 19
7 7 7 6 6 9 4 4 15 9 3 10 14 15 15 14 15 15 17 18 16 16 14 13 12 11 10 9 7 6 4 2 3 5 9 8 11 12 12 13 16 18 20 20 18 21 20 19 18
9 9 5 5 8 6 6 7 3 9 4 4 13 15 15 15 15 15 17 15 15 14 14 12 12 11 9 8 7 5 2 3 5 7 10 12 13 13 14 16 17 20 21 21 19 20 21 17 17
5 7 5 5 3 6 10 5 7 7 8 9 14 16 16 17 16 15 16 14 14 13 13 12 12 11 9 9 7 4 1 3 8 8 11 12 12 14 15 16 18 20 21 22 21 19 21 19 18
9 3 4 5 3 7 9 7 6 10 10 11 14 16 17 17 16 14 14 14 13 14 12 10 11 11 10 8 5 4 4 8 8 9 11 11 11 12 14 16 18 20 21 22 22 18 20 18 17
7 9 7 4 3 4 4 2 8 7 9 12 14 15 17 17 16 13 14 12 11 10 12 12 13 12 8 5 4 7 4 7 9 10 9 10 11 13 16 17 18 19 19 20 20 17 18 18 18
9 8 9 6 7 5 4 4 4 6 7 10 12 14 16 16 14 12 12 13 13 15 15 14 11 11 7 2 5 5 7 8 10 10 10 11 13 14 16 18 18 19 20 19 16 17 16 16 14

GFSSGP_925_spd_054.txt.gz
Wind_Speed
10 12 11 15 6 8 16 19 21 6 6 11 13 12 19 18 7 6 10 26 31 28 28 24 23 22 22 22 22 21 19 17 16 15 13 12 12 12 11 11 11 12 14 15 14 14 14 15 15
10 18 14 6 8 13 14 7 12 13 8 18 17 5 10 9 14 12 11 18 29 25 24 25 24 22 22 22 21 20 17 15 15 14 12 11 11 11 11 11 12 13 14 14 14 14 14 14 15
11 13 7 6 12 15 17 20 16 14 12 7 4 11 6 5 6 4 16 21 26 27 23 26 23 23 20 20 18 17 15 14 13 11 10 10 11 11 11 11 12 12 13 13 13 13 14 14 14
9 10 7 9 18 21 21 15 18 8 13 14 15 9 6 4 5 10 15 14 26 25 23 24 21 21 21 18 17 15 14 12 11 10 10 10 10 11 10 11 11 12 12 12 12 13 14 14 15
15 7 11 14 16 21 4 16 17 17 9 9 13 7 9 8 17 21 19 16 21 21 24 21 20 19 19 17 15 14 12 11 10 10 10 10 10 10 11 11 11 11 11 12 12 12 13 13 14
9 9 13 15 20 15 0 23 21 16 14 12 14 11 7 15 13 16 21 20 17 20 20 20 18 18 18 16 15 14 12 10 10 10 10 10 10 10 10 11 12 12 12 10 10 10 10 12 14
13 12 16 19 17 10 9 21 20 10 7 2 7 10 10 16 14 14 20 21 22 21 19 19 18 19 17 15 14 13 11 10 11 11 11 10 11 11 11 12 10 9 8 8 8 8 9 11 12
11 13 21 19 17 18 19 8 5 8 3 6 4 5 9 19 17 12 20 28 26 20 22 21 19 17 16 15 13 12 12 11 11 12 11 12 12 12 11 10 7 5 5 5 5 6 7 9 8
16 11 14 18 15 5 19 15 18 11 7 7 14 7 8 25 21 15 17 20 23 25 24 22 22 18 13 12 12 11 11 12 12 13 12 12 8 8 7 6 3 4 6 5 5 6 8 8 8
11 11 16 16 7 7 6 10 7 3 9 21 18 15 19 26 21 19 16 6 16 20 24 24 21 19 15 14 14 10 13 13 11 10 6 2 5 7 4 1 3 4 6 5 4 6 9 8 12
14 14 13 15 17 12 11 6 17 5 13 4 14 21 23 27 23 15 20 19 25 16 22 18 17 16 14 14 16 12 11 11 8 5 3 7 3 1 3 6 6 3 6 7 5 10 4 8 9
15 14 5 13 10 8 10 15 13 3 4 2 20 20 20 19 19 30 36 26 31 24 21 18 17 13 17 15 15 13 14 11 10 8 5 3 1 2 5 3 6 6 10 9 7 8 10 9 8
10 7 11 6 12 2 11 20 6 11 15 17 19 17 17 17 20 33 32 27 26 22 20 19 19 16 17 12 15 14 13 10 10 7 6 3 3 4 4 4 7 11 5 7 7 10 10 11 13
6 1 12 12 8 14 6 18 8 13 6 16 16 17 18 23 16 15 21 25 23 25 23 21 19 18 15 17 13 19 17 16 15 9 7 5 7 7 4 4 3 5 6 7 7 9 11 13 15
9 5 6 12 20 15 8 14 9 15 16 12 13 13 10 12 36 17 21 20 24 23 23 21 20 17 18 22 20 18 14 12 13 10 8 7 7 7 6 3 2 5 6 8 9 12 13 15 17
11 3 2 7 6 13 11 6 13 14 14 13 13 11 10 11 16 18 19 18 23 24 22 21 20 21 24 24 20 15 15 10 5 5 10 8 12 10 5 8 8 8 10 8 9 12 14 16 18
3 5 14 13 11 12 14 9 16 15 12 13 12 12 11 10 15 15 14 17 20 25 23 20 25 23 24 22 18 16 8 5 3 6 8 8 12 9 7 9 6 7 6 8 9 12 13 16 17
13 15 14 12 10 11 13 6 13 15 17 15 11 11 12 11 12 13 10 11 17 26 25 23 23 22 21 18 15 11 9 6 4 9 10 11 8 4 4 3 3 5 8 8 11 10 12 15 18
10 7 15 13 11 8 9 15 13 11 14 12 17 15 13 10 13 10 9 10 12 21 28 26 23 20 18 15 11 8 10 9 11 10 10 8 5 3 1 3 5 7 7 9 9 10 13 15 19
14 4 7 8 9 10 11 11 11 14 11 12 12 12 13 13 10 13 11 10 7 21 23 20 17 16 13 14 12 11 11 12 11 12 9 6 4 1 2 2 3 6 8 10 9 12 15 16 16
5 6 11 4 8 8 8 11 14 11 8 7 9 12 13 14 12 10 13 12 14 20 20 16 16 18 19 14 13 15 15 13 14 11 10 9 5 1 3 4 6 7 7 10 12 12 11 12 18
12 6 17 9 16 7 7 1 3 13 15 16 16 17 16 14 14 13 17 15 13 15 14 20 23 20 14 15 14 14 13 12 10 12 13 6 1 2 4 6 7 7 8 11 12 12 16 15 14
1 11 13 12 7 7 7 7 16 15 15 14 11 10 10 11 11 11 19 19 21 23 23 22 19 16 15 10 15 14 7 11 10 7 4 2 7 6 8 8 9 8 11 14 16 17 10 13 17
6 6 14 9 9 6 13 13 4 10 12 14 14 12 11 10 11 12 16 19 19 16 17 17 17 15 14 9 8 6 7 9 10 5 3 4 3 8 6 5 5 7 12 14 16 17 15 14 17
11 9 4 6 6 5 7 13 8 20 17 27 16 14 13 12 12 13 15 18 18 16 15 15 16 16 13 11 9 8 8 7 4 1 2 5 7 10 11 10 12 15 17 19 21 21 17 20 18
17 8 2 2 5 5 13 6 7 11 8 13 14 13 14 14 13 14 18 20 19 18 18 17 18 17 14 12 11 10 8 4 3 1 4 6 9 10 11 12 12 15 18 19 20 21 20 17 16
8 3 5 6 5 2 5 11 5 10 10 10 14 15 14 14 14 15 19 21 23 20 19 16 18 18 16 14 12 9 6 5 5 4 4 6 7 8 11 13 14 16 18 19 20 21 19 14 13
6 7 4 2 2 5 10 13 6 10 10 10 12 13 14 14 14 14 16 17 19 20 19 16 12 18 17 13 10 9 5 3 5 4 6 6 6 8 10 12 15 17 18 18 20 22 15 15 16
6 8 8 10 4 2 3 4 8 10 11 10 11 13 14 14 14 12 14 19 14 19 18 15 11 16 15 13 9 5 3 3 5 5 7 6 7 9 11 14 16 17 18 19 19 15 14 13 11
10 10 9 4 7 2 3 6 3 3 8 9 9 12 13 14 13 12 14 18 16 17 15 12 12 14 15 11 9 9 7 6 6 7 7 6 7 10 11 14 16 16 16 12 17 17 16 15 13

GFSSGP_925_spd_057.txt.gz
Wind_Speed
8 9 8 2 2 2 5 9 4 6 6 4 10 15 14 15 5 3 12 28 39 29 25 25 25 25 24 24 25 25 24 23 22 20 19 18 16 15 15 14 16 17 17 17 17 17 17 17 17
9 6 4 2 3 1 6 10 6 3 4 3 9 7 11 8 7 9 12 28 35 36 27 26 28 27 25 25 23 22 23 22 21 19 18 17 15 15 16 16 16 16 17 17 17 17 18 17 16
10 8 2 4 3 7 6 3 6 4 4 4 5 9 4 5 4 2 22 29 35 33 33 28 29 27 26 24 21 21 22 21 19 18 17 17 16 16 16 16 15 16 15 16 17 18 18 18 17
3 5 4 1 11 17 13 6 8 6 8 8 12 8 5 6 3 7 26 33 32 33 34 29 28 27 24 22 21 21 21 19 18 16 16 16 16 16 16 15 14 14 15 16 17 18 18 19 19
4 2 2 4 12 9 2 6 2 6 6 3 6 4 3 8 13 16 23 28 34 34 27 29 27 26 23 20 20 19 19 18 17 15 16 16 16 16 15 15 15 14 16 15 16 16 16 18 19
2 3 2 6 12 6 12 12 14 11 13 11 5 6 3 10 18 18 18 25 31 33 22 22 22 21 22 19 19 18 17 17 16 16 16 16 16 15 16 15 15 14 13 13 13 14 14 15 16
6 2 7 11 12 3 4 4 4 5 2 4 12 5 4 6 15 20 23 27 31 30 21 20 20 20 21 19 17 16 16 16 16 16 17 18 17 16 15 14 12 11 11 10 10 11 11 11 12
4 4 8 9 7 3 2 1 2 9 5 10 3 5 6 12 21 20 27 29 30 24 22 21 21 21 21 18 16 15 16 15 16 17 18 18 17 15 13 11 10 9 8 8 9 9 9 9 10
1 2 7 9 2 5 2 2 4 7 4 6 10 10 13 31 28 31 31 25 24 21 19 20 23 21 20 18 16 16 16 16 17 18 18 16 13 12 9 9 7 6 8 8 10 10 9 10 13
2 2 6 0 6 5 7 6 4 1 2 8 13 13 19 27 27 23 27 19 20 23 24 21 22 21 19 18 16 17 17 17 18 16 13 11 9 7 5 4 3 4 4 6 6 6 7 8 9
7 8 4 4 6 10 6 5 4 8 2 4 17 20 15 20 19 20 26 28 29 29 22 25 24 24 20 20 19 21 19 16 14 9 5 7 10 9 3 2 5 2 4 5 5 7 8 8 9
6 5 7 4 4 6 4 1 2 7 5 15 21 14 15 13 14 19 29 31 30 23 26 30 23 26 19 22 20 19 17 14 11 12 10 7 8 5 3 6 10 8 15 16 13 9 6 8 10
10 8 9 6 4 9 8 8 4 4 11 16 18 20 16 13 14 18 21 22 21 28 26 26 21 24 21 18 15 20 21 20 16 10 8 5 5 5 6 7 6 6 5 7 7 8 10 11 11
5 14 14 6 8 8 4 4 5 10 19 9 18 18 16 23 15 15 19 20 26 25 22 24 21 22 18 26 26 23 21 18 13 10 9 9 9 8 6 5 6 6 9 9 9 9 10 10 11
5 6 5 7 7 2 2 8 6 3 23 20 17 15 20 32 36 35 30 25 29 26 25 26 26 20 25 23 21 21 18 15 14 14 11 10 10 8 9 7 9 12 11 10 7 6 7 10 12
5 4 1 11 15 4 4 7 4 9 8 10 13 13 21 26 34 38 33 28 34 35 29 25 21 24 26 22 21 19 16 14 14 14 14 13 13 11 11 11 10 8 7 5 3 7 12 11 12
5 1 3 5 15 13 6 5 5 8 7 8 8 11 14 11 20 29 34 36 36 33 32 27 26 28 26 22 19 18 14 10 12 13 14 15 14 12 9 9 7 8 4 4 6 10 9 12 14
3 3 5 8 8 13 7 8 8 8 9 9 8 8 9 10 9 25 33 35 39 34 36 36 33 29 26 22 19 14 6 8 11 13 14 14 12 11 7 7 6 3 5 7 7 6 9 11 13
9 8 11 10 11 9 9 10 13 8 9 6 4 8 8 10 12 20 18 30 30 35 38 38 34 29 26 21 17 11 8 9 11 12 13 12 10 8 8 9 8 6 6 7 6 8 10 12 13
12 6 24 16 6 6 8 8 10 11 10 11 10 6 10 9 8 13 15 13 30 32 35 32 29 27 23 20 15 9 12 10 16 15 14 12 8 7 8 3 1 5 6 5 9 13 12 11 13
5 4 2 5 6 2 3 3 6 6 9 7 13 10 11 15 11 8 13 21 28 30 31 27 24 23 22 19 16 13 15 18 18 17 13 8 8 7 4 1 4 5 5 8 11 12 11 11 14
1 5 5 6 4 2 4 3 3 6 6 14 14 13 11 12 12 10 17 22 25 24 21 21 20 21 21 15 22 22 20 23 21 17 11 9 8 3 3 5 8 9 9 8 11 12 15 14 9
6 8 5 4 6 3 3 6 6 5 3 7 8 10 12 15 15 13 18 26 25 27 26 23 21 20 16 22 22 24 22 15 17 17 14 9 2 2 4 7 7 5 5 6 8 11 13 14 12
6 4 2 5 2 2 9 5 5 8 12 5 7 8 10 11 12 15 21 23 22 18 21 26 22 18 19 19 20 17 20 21 21 17 12 7 8 6 7 3 2 2 7 11 14 17 17 18 15
6 3 3 5 6 4 5 4 8 4 13 14 12 9 10 10 11 12 12 16 21 19 21 23 27 22 17 16 14 19 19 16 12 9 8 4 1 3 5 5 6 8 10 13 15 16 18 19 20
3 3 4 4 2 5 4 5 4 7 8 16 14 9 11 11 11 11 16 22 23 19 17 22 23 21 17 15 15 13 13 12 10 6 3 3 2 3 4 7 9 12 13 15 17 19 19 20 14
1 4 6 2 2 3 4 3 6 6 3 10 9 10 10 11 10 13 17 24 25 19 16 15 21 21 20 19 17 13 10 7 3 4 1 5 6 4 6 8 10 12 15 16 16 18 20 13 11
7 12 3 3 1 3 4 3 4 6 6 9 8 9 9 9 9 12 17 23 28 27 23 21 22 27 25 22 19 15 10 2 3 6 3 5 5 5 6 8 10 12 13 14 13 11 8 10 8
1 3 3 4 5 5 1 5 5 10 9 9 10 12 11 12 11 10 14 25 30 33 31 23 26 29 25 22 17 12 5 8 6 4 5 6 6 5 6 8 9 12 12 13 11 13 16 16 12
6 5 5 5 5 3 5 5 2 8 9 10 10 14 14 15 13 9 17 22 24 24 25 26 28 24 22 17 10 5 7 6 7 7 4 5 4 4 6 8 10 13 16 15 14 16 13 11 14

GFSSGP_925_spd_060.txt.gz
Wind_Speed
4 2 2 2 4 5 4 7 4 6 2 4 3 8 8 5 1 4 14 16 34 30 30 33 32 28 26 24 22 21 21 23 23 23 21 20 19 18 18 19 19 19 18 19 20 20 20 20 23
2 3 2 2 4 3 6 5 3 4 3 8 8 6 4 4 3 10 13 29 34 32 31 33 36 28 26 25 24 21 20 22 21 21 20 19 19 19 20 19 19 19 19 19 21 21 21 20 23
2 3 3 4 4 5 4 4 3 2 4 3 5 6 4 3 7 6 16 26 32 30 32 33 36 34 29 26 24 21 21 21 20 19 20 19 20 20 19 19 18 18 19 20 21 22 22 22 24
0 4 4 3 5 6 5 5 0 3 2 1 5 7 4 4 2 10 31 31 30 29 30 32 34 32 30 27 25 21 20 20 19 18 20 19 20 20 19 18 18 18 19 20 21 22 23 23 23
1 3 0 4 3 1 5 5 3 2 1 6 2 2 4 5 22 28 31 26 27 28 28 29 32 29 27 25 23 20 19 18 18 19 19 19 19 20 19 18 19 18 18 18 19 19 21 21 21
3 3 2 1 2 0 2 5 1 4 4 3 6 4 2 11 21 26 25 26 26 28 30 22 23 25 24 22 21 19 18 18 17 19 19 19 20 20 19 18 17 17 15 16 15 17 16 18 18
5 3 4 4 3 4 3 3 1 0 5 7 4 4 1 8 20 26 27 29 31 30 31 27 25 23 21 20 19 18 17 17 17 18 19 19 20 20 18 16 14 14 13 13 13 14 14 14 14
5 4 2 4 2 5 4 2 2 5 3 4 3 4 4 4 24 29 31 28 29 26 34 33 24 18 23 21 18 19 18 17 17 19 19 20 19 18 15 14 12 12 11 12 12 11 13 12 9
4 3 4 5 6 4 5 6 3 7 4 5 3 3 14 21 28 27 27 24 23 22 20 28 26 20 21 21 19 19 19 19 19 20 18 17 17 15 13 12 10 10 11 11 10 10 11 10 11
4 3 5 4 5 4 4 3 5 2 2 4 4 13 31 27 25 23 19 19 18 21 21 20 24 27 23 22 19 19 19 19 19 18 16 13 12 12 10 9 6 6 6 5 6 5 9 9 10
3 4 7 1 3 7 5 4 3 5 1 6 11 17 18 28 20 20 20 22 22 29 21 23 25 25 24 22 21 20 20 20 17 13 11 9 6 8 6 5 6 5 5 6 9 11 12 12 11
4 7 8 9 7 6 4 7 3 3 6 4 5 14 19 14 19 20 22 26 30 25 23 20 21 23 21 23 23 23 20 18 12 10 12 13 13 11 12 12 12 14 14 13 10 9 8 7 8
6 5 4 8 10 6 5 4 6 2 2 15 13 18 14 14 19 22 15 19 31 24 20 24 24 23 23 26 23 21 17 13 16 15 13 11 12 12 11 12 13 12 10 8 7 5 6 7 9
0 5 8 3 6 5 2 4 9 6 4 14 8 18 15 16 26 25 22 23 24 25 21 27 27 24 23 23 20 17 19 20 17 13 11 10 10 11 12 11 10 10 7 6 6 8 9 10 10
3 6 5 5 7 1 4 5 4 7 5 12 13 17 21 24 31 30 28 21 23 30 30 29 28 26 25 21 25 25 24 19 15 13 12 11 10 11 11 13 12 10 7 6 7 8 8 10 9
3 4 4 3 1 3 8 2 4 11 11 8 12 13 17 19 28 30 32 27 34 32 32 27 24 27 27 29 27 23 19 17 16 15 14 13 13 13 13 12 10 7 6 6 7 7 8 8 9
5 1 6 1 6 2 5 3 4 14 8 9 14 14 16 13 12 20 31 30 36 34 32 26 27 30 30 28 24 20 18 16 15 15 15 16 15 15 11 10 9 6 4 3 5 6 5 7 7
3 2 3 5 5 4 3 6 6 12 12 14 16 16 16 14 16 23 29 27 34 32 34 31 30 30 29 26 22 19 16 15 13 14 17 16 13 12 11 11 9 6 4 2 2 3 5 5 7
6 11 10 10 8 4 8 6 10 8 9 14 16 17 17 16 22 23 30 30 28 31 36 36 35 34 32 28 24 18 14 15 16 17 16 15 13 13 10 10 9 6 2 3 3 4 5 6 9
5 8 17 16 6 10 5 7 6 7 13 16 17 15 17 12 13 23 28 26 32 37 39 38 38 37 33 28 24 17 15 15 16 18 16 15 12 10 7 5 2 2 1 2 3 7 7 7 8
10 8 6 7 3 6 5 3 2 3 2 3 6 11 13 17 17 15 21 23 27 31 38 39 39 35 30 24 18 12 16 18 20 18 19 15 10 8 5 3 4 1 1 4 5 7 7 6 7
7 7 5 2 3 5 2 4 4 7 10 4 6 7 11 12 11 13 20 23 28 29 35 35 32 29 27 23 20 19 21 25 24 24 20 16 10 7 5 3 2 1 1 2 4 6 7 9 8
10 3 4 2 4 4 2 4 6 5 9 14 14 13 13 16 15 15 21 28 28 34 35 29 27 26 25 24 22 24 26 25 26 24 18 15 13 10 7 5 3 2 2 3 6 8 9 10 11
8 3 7 7 3 3 2 5 5 5 12 9 7 12 16 15 10 12 17 23 28 33 31 24 25 26 25 25 22 29 28 26 26 22 18 13 9 8 4 3 2 1 3 6 7 9 11 12 13
4 6 3 4 4 4 6 3 8 6 9 9 9 10 12 13 13 13 13 19 21 29 28 27 24 21 22 23 27 26 23 23 26 22 17 16 10 8 8 2 4 2 3 5 8 11 13 12 14
4 4 5 3 3 5 3 5 5 7 8 3 7 10 11 13 13 14 16 20 24 27 30 26 21 23 24 25 24 25 23 21 17 14 9 7 8 4 7 4 1 5 8 11 13 12 13 15 14
2 2 7 4 1 1 3 5 7 4 3 0 8 8 9 11 13 13 15 22 27 26 26 27 31 27 25 24 24 22 19 17 16 11 8 2 9 1 3 4 8 12 12 15 16 15 15 12 10
5 6 3 3 2 3 4 4 5 4 3 3 7 9 8 8 10 12 18 23 28 31 31 31 28 26 24 23 23 22 18 14 11 6 1 2 6 5 6 8 10 11 12 16 15 15 12 12 14
3 2 1 4 4 4 1 5 5 8 7 9 9 12 15 14 14 15 19 26 33 34 33 31 30 28 27 25 22 18 12 10 3 2 2 5 6 7 7 9 10 12 13 15 15 14 14 16 17
4 5 6 5 4 1 4 5 4 10 10 10 11 11 12 16 15 16 23 26 25 29 30 31 33 35 32 25 19 13 11 7 5 5 1 6 5 5 8 9 12 13 15 15 14 12 14 16 13

GFSSGP_925_spd_063.txt.gz
Wind_Speed
3 2 1 3 3 5 3 5 3 8 5 3 4 3 8 4 2 2 10 12 29 29 31 31 31 31 30 29 29 26 23 22 21 20 20 20 20 20 20 21 22 21 21 22 22 23 26 24 23
2 5 5 2 4 1 5 5 4 4 1 5 4 3 6 3 2 5 11 16 29 28 30 30 31 32 32 30 31 24 24 21 19 19 19 20 21 21 22 22 22 22 21 22 25 28 28 26 24
2 1 4 3 3 3 4 4 3 4 2 2 2 7 3 3 2 7 10 28 28 29 32 30 31 31 32 30 29 25 22 20 18 18 20 20 20 22 23 22 22 22 23 25 27 29 28 29 25
3 4 4 3 3 5 4 8 4 3 3 6 3 5 2 6 2 5 25 25 25 27 29 30 31 31 31 31 27 25 23 19 17 18 19 20 20 21 22 22 22 23 24 25 25 27 27 28 27
3 3 3 1 4 2 3 5 1 2 2 3 2 2 2 4 6 22 24 22 24 27 29 30 29 28 28 27 26 24 20 18 17 18 19 20 20 21 22 23 22 22 22 22 21 23 26 25 25
3 3 3 2 4 3 3 2 2 1 2 3 6 5 1 4 19 22 24 23 23 27 29 30 27 23 24 25 25 20 17 18 18 18 18 19 19 20 22 21 21 20 20 19 18 19 19 21 21
5 4 4 2 4 4 4 1 2 1 3 2 7 5 1 6 17 21 22 20 25 29 31 24 27 22 20 24 20 19 18 18 19 19 19 19 19 20 20 19 19 18 17 16 16 16 14 14 17
5 4 1 4 4 5 3 3 2 1 2 2 4 3 5 2 23 23 22 24 26 27 28 28 25 23 18 19 17 18 18 19 19 19 20 19 18 18 18 17 16 16 14 14 14 13 14 15 16
3 4 3 5 3 4 2 2 2 2 1 3 4 2 13 23 28 24 27 22 24 21 23 27 25 24 21 18 18 18 18 18 19 20 20 18 16 16 15 14 15 13 13 12 12 11 11 11 12
4 4 7 5 3 4 3 4 2 1 1 4 9 12 20 24 23 17 19 19 19 17 31 28 17 17 18 19 19 20 21 20 20 19 17 16 14 12 13 12 11 10 8 8 9 10 10 11 11
5 5 6 5 6 4 5 4 3 2 3 5 12 15 15 17 16 17 15 15 24 24 24 25 22 22 22 21 20 20 21 21 20 17 14 13 11 9 8 8 9 7 7 11 11 12 12 11 10
2 9 6 4 5 4 6 6 2 4 4 4 15 15 14 14 14 17 19 21 32 29 32 26 21 23 21 19 21 21 21 20 17 15 12 7 11 12 11 11 11 12 12 14 13 12 10 10 10
2 2 3 6 8 3 6 3 3 4 8 11 17 17 15 11 14 16 23 26 28 35 29 23 19 22 20 22 21 21 21 17 14 14 14 12 13 12 13 14 14 14 12 10 10 9 9 11 11
2 5 3 4 7 7 6 1 4 4 5 15 14 14 14 15 15 14 22 22 28 28 24 23 22 22 21 21 22 20 19 17 16 14 14 12 13 16 15 15 13 12 9 9 9 10 9 11 10
4 5 5 2 2 4 8 4 1 7 5 19 15 14 15 17 23 21 24 22 22 22 23 19 24 22 22 22 21 18 18 18 16 14 12 13 15 14 14 13 13 12 10 9 9 8 8 10 12
5 4 1 5 1 4 3 3 4 7 8 12 12 10 11 19 25 24 27 25 28 27 24 24 26 23 23 23 19 19 18 18 16 14 14 15 14 14 15 15 13 11 9 6 6 8 10 11 11
2 3 1 6 3 2 4 3 5 6 9 12 12 12 11 13 14 17 23 27 27 24 25 28 29 26 26 21 21 21 19 16 16 16 15 15 16 16 14 12 12 8 4 4 6 7 8 8 6
2 3 2 4 4 2 2 1 4 9 8 12 12 13 13 13 17 17 24 26 26 25 28 29 28 27 24 26 23 21 19 18 17 16 16 17 17 14 12 11 9 5 3 1 3 4 3 2 2
3 4 4 6 6 5 7 5 8 11 3 6 7 11 14 16 14 15 21 24 23 27 30 29 29 30 32 29 26 23 21 18 16 16 17 17 16 12 10 9 7 5 2 1 4 2 1 1 2
3 3 7 9 7 8 6 5 3 8 9 13 15 13 15 14 9 16 19 20 25 29 32 32 33 34 34 32 28 24 21 17 18 20 18 15 13 13 9 7 6 5 2 6 3 1 1 1 2
5 4 6 9 2 2 5 0 6 6 4 7 11 15 15 17 15 14 20 28 29 33 35 37 36 36 34 31 24 18 19 16 20 21 19 17 15 11 8 5 3 4 4 4 2 2 2 3 3
4 4 7 5 2 3 2 3 5 8 12 9 14 13 15 15 13 13 20 23 34 39 38 38 37 35 34 28 23 20 23 23 22 24 22 20 15 11 10 8 8 7 5 2 1 2 2 6 7
7 5 4 1 1 3 1 3 5 7 9 15 15 16 14 17 17 16 21 28 27 29 36 36 35 33 32 28 23 21 20 23 23 23 23 19 16 11 7 8 5 4 3 0 2 3 4 6 7
3 2 5 5 2 2 2 4 4 6 16 17 15 16 16 12 9 10 16 20 22 29 31 34 31 30 30 28 24 22 22 23 22 23 20 17 12 11 7 7 6 2 6 2 3 6 7 8 8
4 5 3 4 4 4 1 2 8 7 5 9 17 18 15 16 10 11 13 18 21 25 30 32 32 33 28 25 26 25 23 25 23 26 22 19 17 12 9 7 7 11 4 5 7 10 11 10 12
3 5 5 3 3 4 2 4 6 3 8 4 9 11 13 16 14 15 16 23 25 26 27 29 30 28 26 27 28 22 24 24 22 23 22 19 14 13 11 12 9 7 5 6 10 12 11 10 9
1 1 1 5 3 2 3 6 9 7 4 4 6 8 11 13 15 16 17 20 21 24 30 30 28 25 25 28 24 23 22 22 23 20 16 13 6 9 10 6 10 6 4 8 10 11 10 7 8
3 7 3 2 3 3 4 4 5 7 5 3 4 8 7 8 11 12 13 19 24 30 31 29 29 28 26 27 27 26 26 24 23 17 12 4 6 9 12 11 8 6 8 10 12 11 10 11 12
2 2 1 4 4 4 1 5 6 7 6 7 9 8 9 10 11 13 14 22 28 31 32 35 34 34 33 32 31 29 25 24 20 13 8 5 8 15 12 8 7 9 10 10 12 13 13 12 14
4 7 6 4 4 2 4 6 4 9 8 5 7 8 8 10 12 13 17 22 25 28 31 36 37 38 37 35 35 31 28 22 15 6 7 12 12 11 7 8 13 12 11 13 15 15 13 12 15

GFSSGP_925_spd_066.txt.gz
Wind_Speed
3 2 2 4 4 5 4 5 3 6 4 2 3 1 1 3 3 2 3 8 28 31 33 32 34 35 35 35 33 29 28 28 26 24 22 21 21 23 24 26 27 24 23 22 22 20 22 18 19
7 4 4 3 4 2 5 4 4 3 4 2 4 3 4 2 3 4 9 19 28 30 32 32 33 33 33 31 30 28 25 26 23 22 21 21 22 24 25 27 28 26 24 23 23 23 24 25 24
7 1 3 4 3 4 4 4 3 5 4 3 3 4 1 3 2 5 4 22 24 28 30 32 32 33 33 31 29 26 25 23 21 21 21 22 22 23 25 27 29 27 25 24 26 26 25 26 26
4 5 4 4 2 6 5 5 4 1 0 3 4 5 1 1 2 8 17 24 25 26 28 31 32 32 31 29 27 24 24 22 21 21 21 21 20 23 25 26 28 27 25 28 27 26 25 24 24
6 3 4 2 3 4 4 4 3 3 4 2 5 5 2 4 8 22 22 21 25 24 29 30 30 31 30 26 24 22 21 20 20 20 21 21 21 23 24 26 27 27 27 26 26 25 23 22 21
4 3 4 2 4 4 4 4 2 2 1 1 4 2 2 10 18 23 22 19 20 25 30 30 28 27 28 23 18 18 21 20 19 19 21 21 21 23 23 24 24 23 24 24 22 21 22 20 20
5 4 2 3 4 5 4 5 2 2 1 3 4 3 2 8 17 22 20 17 19 24 30 29 28 28 28 24 18 19 18 19 19 19 19 20 22 22 22 21 20 19 19 20 20 18 20 20 19
4 4 3 4 2 6 1 0 1 2 2 1 2 4 4 6 20 21 18 18 22 27 29 26 27 26 24 21 20 19 19 20 20 19 21 21 21 19 19 18 17 16 17 17 18 21 20 19 19
3 3 2 4 3 4 1 2 1 3 2 3 4 1 7 24 24 24 24 23 24 23 24 28 30 25 22 17 17 18 19 19 20 21 21 21 20 18 17 16 16 15 16 14 16 16 17 17 18
4 4 7 6 4 2 2 3 2 2 2 3 6 10 15 22 21 20 20 18 17 22 20 25 30 39 20 18 17 18 19 20 20 22 20 19 18 18 17 15 13 12 12 13 15 14 15 15 16
4 6 6 5 3 5 3 2 1 1 2 4 10 11 9 15 14 15 14 18 29 35 27 19 29 23 18 18 18 19 21 20 20 21 19 17 16 16 13 12 11 11 12 14 14 14 13 13 13
2 6 5 1 4 4 5 3 2 2 3 4 12 11 10 10 12 15 19 25 35 36 31 21 26 19 14 16 17 18 21 21 21 19 17 14 12 11 11 12 14 14 14 15 13 12 11 10 10
3 3 3 4 5 4 5 2 2 6 7 11 13 11 13 12 13 18 23 29 31 31 35 40 29 12 12 13 15 17 19 20 19 17 13 14 13 14 15 15 16 16 14 12 12 10 9 9 9
1 4 2 3 4 3 3 2 3 2 8 11 11 10 9 9 12 18 23 28 26 33 32 36 25 18 16 15 17 20 19 17 15 15 15 14 14 14 15 17 16 15 11 11 11 11 10 10 9
2 4 4 1 3 3 4 3 4 7 8 10 12 10 8 6 12 18 21 20 27 26 27 26 23 18 17 18 18 19 18 17 16 15 14 13 13 15 15 15 15 14 13 11 9 10 9 8 9
4 5 3 3 4 1 4 1 4 7 9 6 7 7 7 11 14 21 25 21 23 21 25 17 15 18 17 19 20 19 18 17 16 14 13 14 15 15 15 16 16 14 11 8 6 7 8 7 8
6 1 1 6 4 3 3 2 5 5 7 6 6 9 9 8 10 17 22 28 30 28 23 19 16 19 19 20 19 19 18 17 15 14 15 17 16 15 15 15 15 12 8 7 5 6 5 6 7
4 2 3 5 3 3 1 3 5 6 5 9 7 7 7 11 15 16 20 21 28 29 23 20 20 21 21 21 20 19 18 17 16 16 17 17 17 17 15 15 13 9 6 4 4 4 4 5 3
5 2 3 5 5 4 6 4 10 9 4 7 7 8 10 14 18 17 18 21 19 20 20 22 25 25 25 25 23 21 21 19 18 17 17 18 18 16 14 13 10 8 4 2 3 2 2 2 1
2 1 6 8 3 5 3 6 5 13 13 11 12 10 13 10 8 14 19 24 24 24 23 24 27 29 28 29 28 24 23 20 17 17 18 18 16 14 13 10 8 7 4 6 4 1 1 2 1
3 3 4 7 3 1 5 3 5 5 6 7 9 11 10 14 13 10 17 26 29 30 30 32 32 31 31 32 28 20 21 17 18 20 20 18 16 14 11 10 9 8 6 5 4 3 2 1 2
3 6 3 3 2 2 0 4 5 5 10 8 12 11 14 13 11 10 15 20 31 33 33 33 34 32 33 30 29 25 25 22 21 26 21 19 17 16 13 10 9 6 5 5 4 2 2 2 3
8 2 1 2 3 2 1 3 6 1 6 13 13 14 14 14 14 14 18 24 25 27 31 32 31 31 32 33 29 24 26 23 19 24 21 20 18 14 12 10 7 6 7 5 3 2 2 3 4
3 2 6 5 3 1 2 4 5 5 10 10 12 13 15 14 12 10 16 21 23 25 28 30 31 31 32 33 28 26 23 23 18 24 23 20 16 14 13 9 9 9 5 6 4 3 5 4 3
4 4 3 4 4 4 1 2 8 4 6 8 11 16 15 14 10 9 10 18 21 24 26 26 28 29 32 33 31 26 23 22 20 24 25 22 20 17 15 12 9 6 7 6 3 5 7 5 5
4 5 5 2 2 4 3 4 5 5 5 8 8 10 9 11 12 13 14 19 21 22 25 29 32 28 32 32 30 26 24 21 20 22 26 24 23 20 13 9 8 7 7 6 6 6 7 7 5
3 2 5 6 2 2 3 7 9 3 0 1 4 4 9 12 13 15 15 21 23 25 31 30 28 29 31 30 26 27 24 21 25 25 28 26 23 16 12 7 6 11 10 9 7 7 9 7 6
2 6 3 3 2 3 4 5 5 8 9 2 3 7 7 7 8 9 12 21 23 28 27 24 28 30 29 27 28 26 25 23 26 27 29 23 17 8 9 7 12 13 11 10 9 10 9 9 8
2 0 4 4 5 4 1 6 7 6 6 7 6 7 7 7 7 8 9 16 20 20 23 29 30 30 30 29 28 26 25 27 28 28 24 18 13 9 7 13 14 12 14 13 11 12 12 12 11
4 7 6 4 4 2 4 6 5 8 6 5 7 6 6 7 9 9 12 16 21 25 30 33 32 31 29 25 26 26 26 27 24 17 12 3 3 9 11 12 13 14 14 13 14 15 14 14 13

GFSSGP_925_spd_069.txt.gz
Wind_Speed
3 4 3 2 3 0 2 2 2 2 4 3 3 2 5 4 3 0 2 9 23 34 30 31 34 35 35 35 34 32 30 28 26 25 24 22 23 25 25 24 25 24 21 19 19 20 22 23 23
4 2 2 2 1 3 2 2 4 5 5 2 0 1 2 1 4 5 9 18 29 33 31 29 33 35 35 35 33 32 29 27 25 24 23 23 26 25 25 25 26 24 22 22 21 21 22 25 23
2 3 1 3 2 3 2 3 5 7 4 3 1 4 2 1 4 11 8 24 29 30 31 31 35 35 34 33 32 28 26 25 24 24 24 24 25 24 26 26 25 24 23 24 24 24 26 25 23
2 3 2 1 3 4 4 2 2 4 1 1 3 1 2 4 0 8 18 25 30 32 30 35 37 36 34 33 30 28 26 25 24 26 24 24 24 24 27 26 25 25 24 24 24 25 26 24 21
5 2 1 1 4 4 6 2 1 2 3 1 1 1 3 4 3 15 19 23 30 33 30 36 35 34 35 32 30 28 27 26 26 26 24 23 25 26 27 26 25 25 25 24 23 23 23 21 19
2 1 1 1 4 5 6 1 3 1 1 1 2 3 2 4 12 14 18 21 26 29 30 32 32 32 32 30 29 29 28 26 26 26 23 25 26 27 27 26 24 24 24 23 22 21 19 19 19
3 2 1 3 4 5 3 2 1 1 2 2 2 3 2 4 13 17 19 21 23 26 28 29 29 30 29 26 28 28 28 28 26 25 23 25 26 26 26 24 22 21 20 21 21 20 21 21 18
3 1 2 3 2 4 2 1 1 2 2 2 0 3 5 5 19 19 15 15 17 22 29 28 30 29 24 22 26 26 27 27 25 24 24 25 24 23 22 21 20 20 19 20 21 20 20 19 16
3 1 2 4 2 3 1 1 1 2 3 2 3 0 4 19 22 21 21 22 22 25 24 31 30 27 18 22 22 21 21 23 25 25 25 24 23 21 19 17 16 18 19 21 20 19 18 18 16
2 3 7 5 4 3 1 2 3 3 3 2 2 4 14 19 17 18 16 15 21 26 31 36 40 33 31 19 18 18 20 24 26 26 24 23 22 20 18 16 14 15 19 19 18 18 17 16 15
4 5 2 3 7 3 3 3 2 1 3 4 6 12 10 14 14 16 12 17 18 25 32 37 35 34 31 23 19 20 22 25 25 24 23 22 21 19 17 16 14 17 17 19 18 17 15 14 12
3 4 4 3 1 2 3 3 3 1 3 6 8 14 12 10 9 13 18 24 20 27 44 38 34 27 19 17 19 20 21 25 25 24 22 21 19 18 16 15 17 16 16 16 14 14 13 12 10
4 3 1 3 3 3 5 5 2 6 7 5 12 11 10 8 13 18 26 27 31 24 37 35 30 24 17 19 20 21 22 23 23 21 19 17 17 15 16 18 19 17 15 13 12 11 10 10 10
3 1 3 1 2 3 3 1 2 2 3 7 7 7 7 9 17 21 30 26 28 32 34 36 34 20 8 14 18 20 21 22 21 20 15 16 16 18 19 19 19 17 14 13 11 10 9 10 9
2 1 3 1 2 1 2 1 2 1 4 8 7 9 9 10 17 23 25 28 33 24 29 30 20 12 13 15 17 19 21 19 19 18 16 18 16 17 19 19 18 16 14 12 10 10 9 9 8
2 3 2 0 3 1 3 3 2 5 5 8 7 10 7 8 13 18 22 24 25 26 26 22 14 12 12 14 17 19 20 19 19 18 18 16 16 17 18 18 17 16 13 11 10 9 9 8 7
4 1 1 3 4 2 5 2 6 9 7 7 8 6 8 9 10 18 21 25 28 28 26 20 16 17 17 15 17 19 20 18 18 17 17 17 18 18 17 18 18 15 12 10 8 8 6 6 4
4 2 1 3 1 3 4 4 8 12 10 8 7 9 9 11 14 19 21 22 24 22 20 21 17 16 16 19 20 19 19 18 18 16 19 20 18 18 18 18 17 13 10 9 8 6 5 4 2
5 4 3 3 3 3 4 4 13 14 11 11 10 9 10 11 18 20 22 23 23 21 21 20 20 19 22 24 20 18 19 18 16 15 18 20 20 19 18 18 15 12 9 8 6 4 3 2 1
4 4 5 5 2 5 2 6 7 13 15 16 16 14 14 11 11 17 20 22 24 26 26 25 24 26 26 23 22 18 19 17 17 19 20 20 19 18 19 18 15 13 10 8 6 5 3 3 3
4 4 4 6 2 1 1 2 4 7 11 11 13 15 14 16 17 17 22 25 25 26 28 26 24 27 26 23 22 17 20 17 17 20 21 21 19 19 19 16 14 11 8 10 8 7 6 4 4
3 6 3 2 2 1 2 2 3 7 13 13 16 16 17 17 16 16 22 26 27 26 24 22 22 23 25 26 25 25 22 19 15 25 24 22 21 20 18 16 12 10 11 9 8 7 7 4 3
5 4 3 1 2 1 1 2 3 3 11 18 20 19 19 18 18 19 23 26 23 23 28 26 25 25 25 26 27 26 22 22 20 22 22 21 21 20 18 16 14 15 11 9 7 7 4 3 4
5 3 4 3 2 1 1 3 4 4 5 5 16 18 19 19 19 18 20 21 21 22 24 24 23 23 24 25 27 26 25 22 18 22 21 21 21 21 19 18 18 13 11 5 7 5 4 4 5
2 3 0 1 1 2 4 2 8 5 8 10 11 15 18 18 18 18 18 20 19 20 21 22 22 22 24 29 29 27 26 23 23 22 24 23 23 23 23 21 18 15 4 5 8 7 5 5 7
3 4 4 3 3 2 2 5 4 4 7 10 9 7 12 16 16 18 20 23 24 24 24 23 24 23 24 26 27 28 27 26 24 25 28 31 27 23 23 22 18 9 9 9 11 7 5 7 9
3 3 1 6 2 0 2 4 9 3 7 8 8 6 7 13 15 18 18 23 25 25 24 28 26 24 23 26 25 27 30 27 28 28 28 26 24 23 23 17 10 11 11 13 9 8 8 9 9
3 7 3 1 3 3 2 3 4 5 4 5 7 8 4 6 10 13 15 22 24 24 25 25 26 23 23 23 26 28 30 29 27 24 22 22 21 19 15 11 10 10 13 10 11 10 10 11 11
4 3 3 4 2 2 2 3 6 6 3 4 6 8 8 6 9 11 13 18 20 20 23 21 21 21 21 22 24 27 26 25 21 19 22 24 22 15 11 14 8 14 12 12 12 13 13 14 15
2 6 6 3 4 1 2 6 4 8 7 6 8 7 8 7 6 9 12 16 19 20 19 19 17 17 17 19 20 19 21 19 17 21 25 20 17 16 13 11 11 13 13 13 14 16 17 16 16

GFSSGP_925_spd_072.txt.gz
Wind_Speed
4 3 3 6 7 6 12 3 4 5 8 11 9 10 10 9 1 3 3 10 26 30 31 30 32 33 37 37 36 35 33 31 29 26 24 23 22 23 23 22 23 23 23 23 24 22 21 21 21
3 3 5 3 7 10 9 3 6 1 2 5 4 8 10 3 2 1 8 12 29 31 33 31 33 35 38 38 36 34 32 30 27 26 24 24 24 24 24 23 22 22 20 19 21 21 21 22 20
3 3 6 4 6 11 7 2 5 6 5 4 7 4 6 1 1 4 6 21 29 31 32 32 37 37 37 37 35 33 30 28 26 26 26 26 26 25 24 23 22 21 18 18 21 21 22 21 20
5 6 4 8 10 3 7 7 5 3 5 7 5 1 2 7 2 7 16 24 28 31 30 33 38 38 37 35 33 30 29 28 28 29 29 29 28 26 25 23 22 22 20 20 23 24 22 21 19
4 3 6 8 8 3 4 9 8 5 1 3 3 9 2 5 2 8 19 24 29 29 28 32 37 36 36 33 30 29 29 29 30 30 29 29 30 27 25 24 22 22 21 21 25 24 21 19 19
5 4 7 6 1 2 2 8 5 2 1 3 3 9 5 9 5 11 17 24 28 29 30 30 34 32 32 31 30 31 31 31 31 31 30 29 29 27 25 24 22 22 22 23 24 22 19 18 18
10 6 5 7 5 2 3 3 4 2 3 1 2 2 6 8 9 9 9 14 17 22 27 30 29 31 28 27 28 31 32 32 32 32 31 30 28 26 24 23 22 22 21 20 20 20 19 18 15
5 5 4 4 3 3 4 1 4 4 0 2 1 2 3 5 10 11 13 16 16 20 26 27 25 26 24 26 26 26 29 31 31 33 32 30 28 26 23 22 20 20 20 20 19 19 19 16 14
4 6 3 3 5 4 2 3 1 2 3 2 2 2 5 17 13 13 17 20 22 27 27 29 30 33 31 24 25 23 23 26 30 33 32 28 24 21 17 17 18 18 19 19 18 18 16 13 12
7 5 0 3 7 9 5 3 3 5 3 4 4 3 11 14 12 13 12 17 23 28 29 33 35 35 29 22 22 19 21 17 20 27 25 22 21 18 18 18 19 19 19 18 17 17 15 10 7
3 8 7 6 7 8 5 2 2 5 6 4 4 6 11 14 13 14 14 16 21 29 30 37 38 42 39 28 26 17 13 17 15 19 20 19 18 19 16 17 16 16 17 16 14 11 8 8 6
8 4 7 8 4 3 1 1 2 5 8 9 6 9 9 10 10 12 14 15 19 25 30 32 32 34 37 35 33 23 15 14 15 16 16 17 16 16 15 15 15 14 13 13 10 9 9 8 7
9 7 5 3 3 1 0 3 3 5 9 8 6 11 10 8 12 16 16 18 24 29 25 26 30 30 25 24 23 20 18 19 14 17 15 15 14 14 13 14 14 13 12 11 11 9 7 7 6
1 5 2 3 4 3 4 1 5 7 4 6 4 4 7 9 14 17 22 25 35 40 35 38 29 34 35 24 17 17 18 20 16 14 14 13 12 13 16 14 13 12 11 10 9 8 7 6 5
1 6 6 4 2 1 6 9 1 6 1 5 6 6 5 9 18 22 21 26 30 29 34 32 29 24 24 17 15 16 17 18 17 14 13 14 15 16 15 13 13 11 10 11 10 8 7 5 5
6 6 7 5 4 2 5 7 6 8 5 7 12 10 6 10 18 17 20 30 25 27 27 27 24 14 17 15 15 14 17 16 13 12 11 13 14 14 14 13 13 13 11 9 8 6 5 4 3
7 6 5 4 3 1 5 8 8 9 7 8 10 8 12 10 14 20 21 27 21 30 33 27 16 11 12 13 14 14 15 13 12 12 12 14 14 15 14 14 14 13 11 8 8 6 4 3 1
6 8 4 7 4 6 9 10 6 10 9 8 7 10 9 14 15 18 21 23 23 30 29 22 15 13 12 12 13 14 14 11 12 11 12 15 15 17 16 15 16 13 11 9 8 6 3 2 2
9 7 7 6 3 7 8 10 8 12 11 10 10 9 11 12 19 22 23 24 25 28 26 21 16 11 13 14 16 15 14 12 11 11 12 16 20 19 16 16 16 13 11 10 9 6 3 1 2
9 9 12 7 2 4 8 9 6 14 14 12 12 12 14 15 15 24 25 26 28 27 24 21 19 17 17 17 17 15 15 12 13 12 13 15 18 18 16 16 16 14 12 10 8 5 2 2 3
10 11 8 8 5 8 9 11 9 10 12 13 13 13 14 17 20 19 27 29 28 28 28 25 21 19 20 17 16 13 14 11 12 13 14 16 21 19 15 17 16 14 11 11 8 5 4 4 4
10 8 10 7 6 5 3 3 7 10 13 15 15 16 17 18 19 20 25 29 31 30 27 26 22 20 19 20 18 18 17 15 14 15 12 15 20 16 17 17 15 13 11 11 9 7 5 5 6
7 3 7 6 7 6 9 6 7 4 10 14 19 19 19 19 20 22 26 30 29 28 26 23 22 21 21 22 21 20 17 15 15 20 17 15 17 18 17 16 15 13 11 10 8 7 7 6 6
2 6 4 5 5 7 2 5 2 5 3 3 5 17 20 20 21 21 28 28 30 28 26 25 25 24 23 23 23 21 20 18 18 21 21 20 20 19 19 18 16 14 12 11 7 11 10 7 7
9 8 6 6 6 5 4 5 9 8 4 5 8 6 14 20 20 20 21 25 27 28 28 27 27 26 25 24 24 24 22 21 22 22 24 22 21 21 21 20 18 15 14 8 10 10 9 8 8
14 11 5 6 5 4 3 5 2 3 4 7 6 7 7 13 18 20 20 25 25 27 27 27 26 25 25 24 25 24 23 22 22 23 21 24 21 19 18 18 17 16 15 9 10 10 12 10 9
7 8 1 1 1 4 5 7 11 4 4 6 3 4 5 9 14 18 19 24 26 27 29 29 27 25 25 26 24 25 24 24 23 20 21 20 19 17 18 19 18 19 12 11 12 12 12 10 9
5 11 5 4 5 7 6 8 7 5 1 1 4 5 2 2 7 11 13 22 24 26 27 26 26 25 23 22 21 22 23 22 23 19 18 17 17 17 20 19 17 12 12 13 13 13 12 11 10
6 7 4 3 3 4 4 4 3 6 3 5 4 5 4 1 4 8 10 15 19 20 22 24 24 22 20 19 18 19 19 18 18 16 16 17 17 20 21 17 13 13 12 13 13 13 13 13 13
10 12 13 6 7 3 4 8 7 10 5 6 7 7 4 3 4 6 8 12 16 19 20 22 20 19 17 14 15 14 13 13 14 15 17 18 19 20 20 16 10 10 11 11 13 14 14 15 16

GFSSGP_925_spd_075.txt.gz
Wind_Speed
6 6 10 11 8 8 17 18 2 5 8 5 13 17 21 23 6 12 9 14 26 29 29 28 31 32 36 37 36 34 32 29 28 27 25 23 22 22 24 24 24 23 22 21 21 22 22 22 21
8 7 12 9 8 14 11 5 0 6 7 7 9 18 15 16 15 6 7 9 25 29 29 28 32 34 35 36 36 33 30 28 28 26 24 23 23 24 25 25 23 21 20 21 20 21 22 21 20
7 9 10 10 13 15 10 4 6 5 5 7 13 16 9 7 5 7 4 12 24 30 30 29 34 34 37 36 34 32 30 28 28 26 25 24 24 26 25 25 21 20 19 20 20 20 21 20 19
8 12 8 9 17 13 6 12 9 12 13 12 9 11 3 8 8 12 1 15 27 32 34 34 36 37 36 35 34 32 30 30 28 26 26 25 25 26 25 23 22 18 19 20 19 20 20 18 18
13 8 11 15 13 5 7 16 18 19 6 16 10 12 4 3 13 13 7 18 28 29 31 31 35 36 36 35 33 31 30 29 28 27 27 26 25 25 24 24 22 20 23 23 21 20 18 17 17
9 5 13 12 4 2 15 7 16 20 7 8 7 3 4 8 16 14 13 20 22 27 33 35 35 34 32 32 30 31 30 29 30 30 29 28 26 24 21 22 21 20 22 23 22 19 17 17 15
11 11 15 10 8 15 8 10 9 17 11 8 9 14 8 7 7 15 15 16 22 23 35 34 34 33 30 29 29 28 29 30 31 30 30 29 26 24 21 21 21 20 21 22 20 18 17 15 13
8 9 19 7 6 6 2 2 6 12 18 8 6 6 6 9 11 11 2 7 8 21 16 26 27 28 26 24 25 26 28 30 31 31 30 29 26 24 21 21 20 20 20 20 19 17 16 13 11
9 12 11 2 6 3 4 8 3 6 14 4 9 10 11 12 7 8 13 21 25 30 31 28 28 29 29 25 23 22 23 24 26 28 30 30 27 23 17 16 18 18 19 18 18 17 13 11 10
9 13 5 9 10 12 8 3 6 5 6 8 2 6 11 9 9 10 12 16 22 26 29 30 34 40 36 26 22 21 19 20 20 26 23 21 24 16 16 19 18 17 17 17 16 14 12 9 6
13 12 6 8 8 11 8 10 3 8 14 15 13 6 10 11 9 11 12 15 21 29 32 36 42 42 42 32 32 25 21 18 18 18 19 20 17 19 16 17 15 16 16 15 13 10 5 5 4
10 13 6 10 6 9 9 8 9 4 10 12 12 2 10 8 6 11 12 18 22 21 30 39 44 43 37 31 35 27 27 19 19 16 15 16 19 19 16 15 14 15 12 12 9 7 7 6 6
12 14 6 6 6 7 4 4 6 4 9 12 10 4 8 7 12 11 13 16 21 23 28 27 33 29 38 27 32 27 21 19 21 17 19 20 18 17 16 16 14 13 12 11 9 8 7 6 5
10 9 9 7 9 6 10 4 9 11 5 8 8 9 6 11 11 13 14 17 22 26 31 27 25 30 25 24 24 20 16 14 17 18 15 12 15 16 14 15 14 13 12 10 9 7 6 5 4
12 14 14 12 10 9 5 10 30 7 4 11 6 5 6 9 13 14 18 24 29 30 27 25 22 23 27 22 14 17 15 14 15 15 12 11 13 14 16 14 14 13 12 12 10 8 6 5 3
14 18 9 6 20 4 8 6 34 8 3 12 12 7 7 8 14 18 21 22 22 27 32 32 31 28 30 30 27 19 17 17 15 13 15 12 13 14 14 14 14 14 13 11 10 8 7 5 3
16 6 16 15 3 4 7 5 2 7 3 10 11 11 9 10 15 15 21 19 22 24 27 35 32 32 29 21 21 18 16 17 16 16 15 15 13 14 14 15 14 15 13 11 10 9 6 4 2
4 15 5 10 8 8 12 12 6 8 5 5 13 15 15 17 17 21 26 22 23 27 31 29 24 21 22 18 16 15 17 17 16 17 15 16 15 15 14 13 14 14 13 11 10 9 6 3 1
10 12 9 8 5 5 13 13 7 10 8 9 8 17 18 16 19 23 23 19 24 28 32 28 21 19 18 17 18 19 20 16 15 14 13 15 14 15 15 13 14 14 12 12 11 9 6 5 2
11 14 11 12 4 3 12 13 8 13 12 14 12 13 16 20 19 21 25 26 28 31 30 23 19 15 18 18 18 19 18 17 15 14 14 14 19 19 16 15 15 14 13 12 11 9 7 4 3
14 13 11 15 5 10 13 13 12 14 13 12 15 14 17 17 21 21 25 28 29 31 28 25 21 18 18 17 17 16 15 13 12 14 14 14 14 16 17 16 16 15 14 13 11 9 6 4 2
15 10 9 12 10 3 12 6 16 15 14 15 15 16 17 20 19 20 23 28 30 30 30 26 24 24 21 19 19 19 19 17 17 16 14 16 18 16 16 17 17 16 14 13 12 8 4 1 4
13 1 8 11 12 15 9 8 11 11 14 17 17 19 19 19 23 23 25 31 32 31 30 29 26 23 22 21 21 21 19 18 13 15 15 19 21 18 18 18 17 16 14 13 11 8 5 2 5
3 7 10 11 12 10 11 10 9 7 6 4 11 19 19 20 22 23 32 31 32 31 31 30 28 26 22 23 25 22 23 16 17 17 18 19 19 21 21 20 18 17 15 13 12 10 7 9 9
11 11 8 6 7 10 7 5 7 11 4 1 4 4 16 20 19 20 22 27 32 33 32 30 29 27 26 25 25 26 24 22 21 22 22 20 19 22 22 21 20 19 16 16 13 7 10 8 9
16 15 7 6 3 6 5 6 8 4 2 4 5 6 6 13 20 22 23 27 31 30 33 32 30 29 28 28 27 27 26 23 22 23 21 21 23 23 20 23 21 18 17 19 9 9 8 9 10
13 16 13 9 4 7 8 8 10 8 4 4 6 3 8 10 13 20 22 27 30 30 31 33 32 30 30 30 28 27 24 25 24 22 23 22 24 20 21 23 19 18 16 15 5 7 10 11 11
9 13 9 8 10 10 11 12 9 9 7 5 4 4 2 2 8 13 17 24 27 28 30 30 30 30 30 28 26 25 25 24 21 19 20 23 23 20 20 19 19 17 17 9 9 10 12 12 13
12 11 10 11 9 6 9 5 10 4 2 4 4 2 2 1 4 7 10 18 24 26 28 29 29 29 27 25 24 23 21 19 20 19 19 18 16 18 18 22 17 16 14 14 11 12 11 13 16
18 19 18 10 13 8 11 12 15 9 11 6 6 6 4 2 3 6 8 12 17 22 24 26 26 27 25 23 21 19 20 20 21 18 17 16 17 18 19 18 19 14 7 10 11 13 13 15 17

GFSSGP_925_spd_078.txt.gz
Wind_Speed
9 9 9 16 7 8 17 20 16 17 11 3 4 10 7 6 2 9 29 18 7 35 36 36 34 39 39 39 37 35 31 31 30 27 25 23 22 23 25 26 28 26 24 23 23 23 25 26 26
9 16 13 8 11 14 8 9 9 11 11 13 11 8 12 5 2 5 12 22 51 21 34 35 37 38 37 38 37 33 31 31 29 27 24 23 23 25 26 27 28 26 24 23 22 22 25 25 24
10 12 8 12 13 15 16 4 9 6 4 3 7 13 12 9 3 2 13 9 46 19 27 30 35 37 37 37 36 33 29 30 29 26 24 25 26 26 27 27 28 26 24 23 22 23 23 23 22
9 12 8 13 15 15 15 9 14 16 13 17 13 24 8 8 13 8 15 15 17 22 22 28 32 35 34 35 34 31 30 30 28 27 27 28 28 26 26 25 25 25 24 22 23 22 21 21 19
16 9 12 15 18 18 9 16 16 9 4 20 23 19 2 10 7 10 12 21 21 20 25 29 32 35 36 36 34 30 30 30 29 28 29 29 29 28 26 25 25 25 22 22 22 21 20 18 17
10 12 14 13 15 5 10 16 18 13 27 23 20 21 11 8 2 2 4 14 19 26 35 38 35 37 38 35 34 32 31 30 29 29 29 29 28 27 25 25 26 25 22 22 21 20 18 17 15
14 12 16 17 16 6 4 9 8 17 18 17 15 6 9 10 2 8 9 4 16 21 31 38 35 35 32 35 30 31 30 30 29 29 29 29 27 27 25 24 25 25 23 22 20 19 17 15 13
11 11 20 16 14 5 4 10 8 7 6 11 13 6 6 5 10 11 14 22 24 24 31 23 29 35 35 32 31 31 31 30 30 28 28 28 27 27 25 24 24 25 22 20 18 17 14 13 11
12 11 12 14 12 7 8 8 8 2 10 14 17 13 8 11 15 19 16 23 16 26 25 15 11 29 33 32 30 29 28 27 26 25 26 27 28 27 24 25 24 23 20 18 17 16 12 11 9
11 11 7 18 10 12 14 12 10 8 16 12 17 17 14 14 16 14 14 15 20 24 31 33 30 34 34 31 29 29 26 24 25 27 24 24 25 23 24 22 21 20 19 18 16 14 10 9 7
14 15 13 11 10 11 15 14 13 13 9 4 10 2 10 14 19 14 12 15 18 24 33 33 35 38 38 36 35 29 28 21 23 24 15 18 21 17 22 21 20 19 19 19 16 12 5 4 8
15 12 17 11 11 8 15 6 14 11 12 10 13 14 7 10 14 14 14 17 18 27 32 34 35 39 39 38 35 30 22 25 24 21 21 17 20 16 19 18 20 19 16 16 10 9 8 6 6
11 14 16 11 7 11 11 13 10 25 19 14 10 13 14 15 12 16 20 20 21 25 30 28 30 27 35 30 29 31 27 28 20 20 22 20 19 16 17 17 18 16 16 14 11 8 8 8 7
16 16 15 15 10 14 9 10 5 12 22 11 11 11 9 13 14 15 21 20 24 23 27 30 27 28 34 28 31 26 27 24 19 19 19 15 18 17 17 19 16 16 15 12 12 12 8 9 5
14 15 13 15 21 5 9 7 7 8 15 8 8 6 6 8 14 15 17 23 28 28 29 29 30 30 31 23 20 24 21 20 19 14 14 13 18 20 19 17 15 13 15 16 14 12 10 8 8
17 17 3 16 17 18 12 5 2 15 9 8 7 9 8 9 13 19 22 25 26 31 29 28 30 27 24 23 21 22 17 15 14 11 15 16 18 20 19 18 17 15 18 17 12 12 9 9 7
15 12 17 14 16 20 11 2 7 16 15 14 10 12 13 11 13 18 20 21 22 28 29 35 35 35 34 34 30 26 24 12 17 23 22 22 18 17 19 19 17 17 14 14 13 12 11 9 6
0 10 13 16 12 8 12 10 15 25 9 19 16 16 13 12 13 21 23 24 26 30 33 33 33 32 34 36 37 27 22 23 22 21 18 17 14 17 17 17 18 16 15 15 13 13 9 8 6
12 17 14 13 7 8 12 13 8 10 8 15 17 16 16 13 17 21 25 24 28 30 31 33 31 35 35 28 28 24 24 22 22 20 19 20 17 18 16 17 16 18 17 16 14 13 10 6 3
11 13 15 15 6 9 11 16 9 11 12 14 18 17 16 16 16 22 25 24 27 32 30 30 30 33 30 27 25 23 20 22 20 21 21 19 19 19 19 17 18 19 18 17 17 14 12 6 7
12 14 14 15 14 11 8 14 9 8 10 17 13 20 20 19 19 17 19 22 32 34 34 32 32 31 28 28 24 21 19 19 20 20 19 21 22 23 23 18 20 20 18 18 17 15 10 8 11
14 14 15 9 12 7 3 8 13 13 9 16 16 14 18 21 21 18 22 25 28 32 33 31 28 27 26 28 25 24 21 19 17 18 19 21 18 18 19 16 18 21 17 17 18 14 11 9 5
14 7 9 10 13 11 13 9 8 12 14 16 16 16 17 18 21 22 22 32 34 35 34 31 29 26 26 26 21 26 25 24 21 24 23 24 23 25 28 23 23 23 20 18 20 18 15 10 8
14 9 10 11 11 10 15 9 7 3 12 11 16 18 18 21 21 21 27 29 30 32 36 35 29 30 32 33 30 25 25 27 23 25 27 25 23 27 26 23 24 21 22 17 20 17 14 11 10
13 9 7 2 7 9 2 4 6 14 13 8 1 18 19 19 22 21 23 24 31 34 33 32 32 30 30 38 31 32 27 27 27 28 25 24 25 26 30 25 25 24 22 19 22 16 14 11 10
13 15 8 5 3 4 13 6 2 13 9 6 4 4 10 17 17 22 23 30 33 36 38 37 34 34 32 36 34 33 28 28 25 28 28 24 22 25 26 28 24 25 23 22 19 13 11 7 6
15 15 17 17 4 8 9 5 17 9 3 4 5 5 6 6 11 18 18 32 35 36 39 40 37 35 32 29 32 31 34 27 24 25 20 22 22 22 25 28 26 25 25 23 19 7 8 11 10
17 12 12 8 7 9 7 11 5 7 12 8 6 7 6 4 5 6 16 22 33 35 37 39 36 32 31 28 30 29 34 30 25 22 24 23 22 21 24 27 26 26 24 22 12 6 7 5 10
13 13 10 14 9 6 4 3 11 8 4 5 1 6 5 1 5 5 6 12 27 30 32 35 35 33 29 32 31 31 29 30 28 25 23 25 21 20 16 22 23 20 17 14 6 9 7 12 11
17 17 17 9 9 6 6 9 7 2 4 7 1 3 4 6 2 5 3 3 7 21 29 28 28 27 27 29 30 29 32 28 28 25 25 25 25 26 27 28 22 16 17 15 11 11 12 13 16

GFSSGP_925_spd_081.txt.gz
Wind_Speed
8 8 7 3 3 3 7 12 14 14 5 7 6 8 6 4 3 3 9 12 19 14 6 22 32 34 34 34 34 33 32 32 31 32 30 29 29 32 34 30 30 30 29 27 30 31 30 30 29
7 6 4 3 2 3 9 12 7 17 13 16 14 16 11 0 3 4 9 15 24 29 6 5 27 28 29 32 33 31 31 29 28 29 28 29 31 33 34 31 30 29 28 26 29 30 28 27 24
9 5 2 3 4 9 7 10 14 13 20 11 8 4 6 9 3 2 13 16 15 28 28 29 27 31 31 33 34 34 31 30 28 27 27 29 32 35 33 31 31 30 27 26 29 29 26 24 21
3 4 4 1 13 19 7 2 7 8 5 10 3 5 0 10 7 9 14 13 18 25 41 35 35 36 36 36 34 35 34 32 30 29 29 31 32 35 33 32 30 29 26 25 28 27 25 22 19
3 2 2 5 15 22 3 4 6 3 1 4 4 7 3 6 12 17 7 16 18 25 33 32 46 43 41 38 36 35 34 32 32 31 31 31 32 33 33 31 29 27 28 27 27 25 22 20 16
2 3 4 11 18 8 3 2 3 4 3 3 5 5 3 4 4 8 5 16 21 13 9 34 41 45 44 40 37 36 34 32 32 32 31 32 32 32 32 31 28 27 27 26 25 22 21 19 16
6 2 7 10 12 1 3 3 2 5 3 4 5 5 9 5 5 4 19 23 16 17 27 38 43 43 42 41 37 37 34 33 32 32 31 30 30 30 32 31 28 27 27 25 24 20 18 17 15
3 3 9 7 7 4 4 5 8 7 3 6 5 1 4 5 9 13 20 21 16 14 13 23 21 43 43 40 39 37 35 33 31 32 31 30 29 29 31 29 27 27 25 23 22 20 17 16 15
2 3 7 11 9 5 3 2 8 16 8 3 6 2 6 1 20 16 10 9 13 19 20 9 24 39 43 41 37 35 34 32 32 32 31 30 29 30 30 29 28 25 24 22 20 18 16 14 14
3 3 10 12 3 4 7 8 4 7 9 1 9 6 17 10 12 13 9 10 9 18 27 22 19 29 35 37 37 35 34 32 33 32 31 32 29 29 29 28 25 23 21 20 18 17 15 13 10
9 7 13 10 6 4 4 7 8 7 9 4 8 6 9 14 12 10 10 13 16 25 24 26 28 31 34 35 37 36 36 35 32 31 30 28 27 27 29 27 24 22 21 21 18 17 11 7 9
5 12 7 7 8 3 3 3 5 12 6 6 14 11 9 8 8 10 11 11 15 25 33 34 40 40 38 39 37 36 39 37 28 30 22 23 25 24 26 25 23 22 21 20 15 14 12 10 6
8 7 6 5 8 7 8 2 4 3 5 8 15 12 10 8 7 16 15 14 18 24 31 34 39 40 38 39 37 35 36 39 31 25 20 23 22 24 23 22 21 20 20 17 15 12 10 8 8
8 11 9 5 7 4 3 3 2 0 4 8 15 8 7 6 5 13 19 17 18 24 29 33 35 36 39 38 35 35 34 29 22 24 21 18 22 22 21 21 21 18 18 16 11 13 9 9 6
11 9 9 8 5 3 2 0 2 3 6 6 11 11 9 6 8 9 16 20 29 21 26 32 31 32 31 30 28 28 31 17 22 23 19 19 20 23 19 20 19 20 21 14 13 12 10 10 6
9 7 5 5 6 6 7 8 4 9 9 3 8 12 10 7 7 11 14 22 27 31 28 30 31 31 29 29 33 35 27 24 23 23 20 20 14 18 22 21 22 19 20 17 18 15 14 10 9
5 8 6 8 8 5 4 4 7 9 12 8 10 11 10 9 11 11 17 22 25 31 31 32 34 34 31 28 26 27 27 25 22 20 20 16 16 15 21 22 20 20 19 22 19 15 14 13 12
7 6 5 5 4 6 12 5 7 10 10 11 9 8 11 12 10 12 13 17 25 30 33 39 38 38 38 33 28 29 25 20 20 23 18 18 15 15 21 20 22 22 21 18 16 16 15 14 11
14 16 7 9 7 10 10 7 12 13 11 13 9 12 11 12 16 17 15 15 16 18 24 29 32 37 35 31 32 33 30 24 29 25 20 23 22 21 24 22 23 22 19 19 19 18 13 12 11
17 9 6 7 8 12 7 8 10 10 19 21 18 14 14 13 14 19 22 22 22 25 23 25 34 37 38 36 33 29 29 22 24 27 28 27 27 26 25 22 26 22 20 21 20 20 16 11 11
7 5 6 9 8 6 1 6 4 7 18 14 17 17 17 18 17 16 22 26 26 26 30 29 32 37 38 36 32 24 24 27 30 33 33 30 27 27 25 23 26 24 24 26 25 21 18 13 15
3 9 11 6 3 4 2 5 4 5 14 19 16 16 18 19 17 17 21 26 29 31 31 32 34 41 39 37 30 27 25 22 27 33 32 28 29 29 27 27 26 25 25 28 27 23 20 14 16
7 8 3 3 6 4 4 0 7 7 9 16 20 20 20 21 21 21 21 29 32 36 34 34 33 33 36 36 35 30 31 32 29 30 29 27 29 27 27 29 26 27 30 27 26 25 23 17 17
6 4 5 2 2 5 8 3 7 5 15 17 20 22 22 21 21 21 30 30 31 37 37 35 34 35 37 38 38 36 33 32 31 29 31 30 30 27 27 29 26 28 29 26 26 26 26 21 17
5 4 2 4 2 5 9 6 10 8 8 8 24 21 23 23 22 21 21 26 32 35 36 37 36 31 39 40 39 41 36 38 35 34 34 34 33 30 31 31 31 28 29 28 29 31 29 23 16
8 10 5 6 3 3 13 5 6 5 6 9 10 20 22 21 22 24 24 32 36 38 38 37 37 37 35 40 40 41 36 37 39 37 37 38 38 35 34 35 32 28 31 29 31 31 24 20 13
4 5 9 6 1 2 5 7 1 4 5 5 6 7 17 21 21 24 23 33 36 40 43 46 41 37 35 37 41 42 43 38 35 36 38 38 37 33 27 31 32 29 31 28 30 22 13 9 12
10 3 2 1 7 6 4 5 3 3 4 4 5 8 8 10 18 19 20 31 36 40 43 42 43 42 44 39 37 38 41 41 39 33 37 39 33 28 23 26 31 28 29 26 15 10 10 11 11
4 8 3 9 4 6 3 5 5 7 4 2 2 8 8 8 6 12 23 31 37 38 38 40 41 39 36 35 37 38 40 42 39 34 34 32 30 27 25 29 31 32 30 26 26 20 18 13 11
16 12 10 5 5 4 5 5 5 8 10 8 9 8 8 8 9 8 5 18 31 36 35 36 37 38 36 36 37 40 42 42 38 30 30 32 30 28 28 28 32 32 31 30 27 22 18 15 18

GFSSGP_925_spd_084.txt.gz
Wind_Speed
3 3 3 3 4 5 5 5 4 6 8 2 6 3 4 4 2 4 2 11 18 35 34 24 21 28 31 29 30 30 31 32 32 32 32 33 33 34 33 32 33 32 32 31 31 32 32 32 32
1 1 3 2 4 1 5 5 3 6 5 7 4 2 3 3 4 4 1 10 15 21 25 38 31 21 26 29 33 33 33 33 33 33 33 35 37 34 33 33 33 34 32 31 30 29 30 28 23
3 2 3 4 3 4 4 5 6 5 5 3 1 3 3 0 2 7 5 10 21 18 22 32 36 31 22 31 33 34 34 34 34 34 35 39 37 35 33 34 34 35 32 29 29 28 27 23 19
3 5 4 3 7 7 8 13 6 3 5 2 1 5 4 4 2 4 11 14 23 20 20 33 37 36 40 36 36 35 35 35 34 34 36 40 37 35 34 34 35 34 32 30 30 28 25 23 19
4 3 3 3 8 7 8 10 3 4 3 2 0 2 2 5 8 5 16 15 14 20 19 24 30 38 40 43 40 38 37 36 35 37 38 40 36 34 35 34 35 34 32 30 27 26 23 26 24
4 3 2 3 8 7 6 7 5 3 2 2 0 4 4 3 11 3 5 18 15 14 15 20 18 27 38 49 44 41 38 36 36 37 40 41 38 36 35 33 33 34 32 30 26 24 22 26 27
6 3 5 6 15 9 6 7 5 5 2 3 3 3 2 4 10 11 19 23 18 20 17 12 7 17 42 31 45 42 40 37 37 38 39 40 38 35 34 32 32 32 30 27 25 22 21 23 25
5 4 4 5 5 11 6 2 5 5 4 2 4 3 4 3 1 6 12 11 10 8 10 11 12 23 36 53 45 42 40 38 38 38 38 39 37 35 32 31 31 30 28 25 23 21 19 19 22
4 2 5 7 5 7 7 0 4 3 4 3 3 4 5 6 10 8 7 5 7 7 4 9 20 39 34 51 45 39 39 38 37 38 37 36 36 33 31 30 29 28 26 24 21 20 18 17 21
4 3 7 9 10 7 5 2 8 4 4 2 3 5 7 6 8 7 2 6 9 17 14 14 22 41 53 42 42 41 40 39 39 38 38 37 36 34 32 30 29 26 25 23 20 19 17 13 15
4 6 12 17 10 9 4 2 3 8 2 3 0 5 6 7 8 8 6 7 12 14 10 12 21 31 39 34 32 35 39 40 40 38 37 37 34 31 32 29 28 26 25 23 20 19 12 13 14
1 9 7 7 3 2 2 4 4 4 3 2 4 5 5 7 3 6 11 12 17 16 15 17 26 32 35 34 30 35 37 39 37 37 37 37 37 33 33 31 28 27 26 22 20 15 12 13 13
6 5 7 5 3 3 4 1 5 8 8 7 6 7 6 3 4 4 9 17 20 21 21 22 29 34 37 36 35 36 37 38 38 35 35 36 34 32 31 29 27 26 24 22 19 16 13 11 11
4 6 10 6 5 2 2 2 4 6 11 10 8 6 6 4 3 8 11 16 15 21 27 28 32 36 40 40 36 35 33 35 30 33 32 33 33 32 29 28 27 26 24 19 17 14 13 11 9
4 7 9 7 3 3 4 4 5 7 9 11 8 6 5 4 4 2 11 16 20 19 27 30 35 38 40 39 39 38 34 33 29 24 25 25 28 27 28 29 27 25 21 18 14 15 13 12 10
6 3 3 6 4 4 7 9 8 6 9 8 8 7 5 4 5 4 9 17 21 23 22 31 32 37 38 40 39 37 30 28 31 23 23 23 25 25 25 27 25 22 21 19 17 17 15 11 11
2 6 6 9 8 4 5 8 8 5 8 11 8 9 7 4 5 6 10 16 21 25 26 26 30 33 35 36 36 31 27 29 31 27 25 20 19 20 24 25 20 22 24 21 20 19 16 15 13
6 4 4 7 4 5 4 11 3 4 8 9 9 10 7 7 6 10 13 13 19 24 28 26 26 30 30 26 28 24 23 21 28 24 29 20 17 21 22 21 23 24 24 21 24 21 17 14 12
9 10 12 10 12 6 7 9 9 8 7 7 7 10 10 10 10 11 13 15 15 15 22 29 34 32 34 35 34 32 31 33 30 26 28 23 24 19 20 19 22 23 24 27 26 21 19 16 15
14 15 17 12 7 6 5 10 7 13 16 17 15 13 13 14 12 13 14 15 17 18 21 22 28 36 33 32 32 28 27 30 29 30 29 23 26 20 15 19 24 28 27 29 27 26 22 19 20
17 15 15 8 5 4 4 5 4 6 7 8 7 11 12 15 16 12 16 18 18 18 26 29 30 37 38 36 32 29 28 28 28 28 27 25 22 17 18 22 28 32 33 32 30 27 28 22 21
13 12 7 5 2 2 2 5 4 5 9 14 14 13 13 14 11 11 15 17 24 27 28 27 32 34 37 36 32 29 24 21 25 29 28 24 22 22 25 26 31 31 36 32 30 29 31 28 23
14 19 6 4 3 3 6 1 6 8 8 13 16 16 16 17 17 17 17 23 28 29 33 30 34 37 36 38 37 33 27 27 27 28 29 31 31 31 31 32 35 36 35 32 32 33 32 30 28
19 4 4 4 2 2 3 1 6 5 10 19 17 18 20 20 18 17 24 26 26 29 32 32 31 36 39 39 39 35 30 29 30 33 34 37 38 36 35 34 36 35 35 35 34 36 34 32 28
6 5 1 3 2 5 3 3 8 10 6 19 24 22 22 21 20 19 20 25 29 33 36 35 34 33 37 37 38 40 37 35 35 36 36 35 37 38 38 35 35 34 36 35 35 36 34 30 25
8 9 6 6 4 4 4 5 6 5 12 9 17 21 21 20 20 22 23 30 32 36 38 37 37 36 37 39 41 41 41 38 39 40 39 40 40 43 40 38 36 33 32 34 35 34 30 24 17
7 5 9 6 0 3 3 5 8 6 4 2 8 15 19 20 21 23 22 31 34 37 43 45 41 40 40 41 40 40 39 43 39 40 44 43 42 42 42 40 35 34 31 32 34 32 28 24 21
13 8 4 1 7 4 4 5 5 5 4 4 6 13 17 21 20 18 19 28 34 37 42 41 42 43 43 37 40 40 42 47 44 42 45 45 43 40 39 36 32 34 33 29 32 32 30 24 23
3 4 3 6 6 6 3 6 6 9 4 5 7 9 17 17 19 19 19 30 36 36 34 38 38 38 36 39 38 38 39 45 45 46 45 45 44 38 35 29 29 33 31 31 34 34 30 29 26
4 10 10 5 5 3 5 6 4 9 8 7 7 8 7 14 18 18 19 27 30 32 32 36 37 37 38 37 37 38 37 38 40 42 35 33 28 29 30 28 28 30 34 34 37 33 33 28 27

GFSSGP_925_spd_087.txt.gz
Wind_Speed
0 1 2 3 4 5 2 6 3 4 6 4 5 3 4 5 1 2 3 3 5 15 28 27 28 27 27 34 38 37 38 38 37 38 38 38 38 37 36 38 37 34 33 32 32 32 31 30 28
2 1 2 2 5 3 5 5 6 6 3 9 4 5 4 2 4 4 2 6 17 18 24 25 33 34 27 27 34 40 38 39 37 37 39 39 38 38 40 41 39 34 34 32 31 29 25 22 20
2 2 3 4 3 3 4 5 7 3 4 3 3 1 1 2 6 7 2 10 23 23 26 26 28 33 29 26 20 32 36 36 37 38 39 38 38 40 40 40 36 36 34 31 28 26 23 20 20
4 5 4 4 5 7 7 9 7 3 3 3 2 1 3 8 9 5 10 5 20 22 24 27 29 31 40 35 21 19 36 38 38 37 38 37 37 41 42 40 37 34 34 30 28 25 19 20 24
4 3 3 1 5 4 6 8 7 5 3 3 3 4 4 2 7 11 13 10 16 16 18 31 34 35 34 30 41 26 30 37 38 38 37 37 37 41 43 42 38 35 34 32 29 24 21 24 30
4 3 3 2 4 5 7 5 5 3 2 4 2 4 4 3 6 9 14 16 17 19 23 27 34 38 33 39 44 40 26 37 38 40 40 37 37 39 40 42 38 37 35 31 29 26 25 30 30
6 3 4 3 5 6 5 5 3 5 5 5 2 3 3 3 5 6 8 18 15 17 20 25 27 35 30 43 46 46 37 38 38 40 39 39 39 39 38 39 39 37 34 31 29 28 27 28 28
5 4 2 4 4 7 6 3 0 6 6 4 4 5 4 1 8 7 13 15 20 16 20 28 32 35 37 39 43 42 37 37 44 42 40 39 38 38 37 37 37 35 32 30 29 27 27 26 24
3 3 3 5 3 6 6 3 1 1 2 2 6 2 5 10 11 12 7 7 11 15 18 21 24 18 39 45 45 42 36 37 44 43 41 40 37 36 35 36 34 32 31 29 28 26 27 27 24
4 3 6 6 5 8 11 5 7 2 4 4 3 5 8 11 12 8 6 5 10 13 15 8 17 32 34 44 45 42 34 31 34 43 42 37 34 36 35 34 33 31 29 27 26 23 25 24 20
4 6 5 10 8 8 6 2 6 5 5 5 5 2 6 7 8 7 7 9 12 10 3 6 11 23 57 45 35 39 35 31 31 42 40 33 34 36 37 34 31 29 28 27 25 23 20 18 16
2 8 5 8 6 4 3 4 4 6 2 5 2 4 6 4 4 5 8 12 14 6 2 6 5 20 34 44 47 47 38 37 38 42 42 37 35 37 36 35 33 31 27 27 23 21 20 18 16
6 6 5 8 10 7 5 7 6 6 6 4 5 5 7 5 5 6 7 10 13 10 7 12 16 26 30 35 41 42 41 39 41 41 41 40 40 40 39 34 32 30 27 26 23 20 19 16 15
3 5 9 7 8 6 7 4 4 7 7 6 4 4 5 4 4 5 9 11 11 13 14 17 22 26 35 36 36 40 39 36 39 38 38 40 41 41 39 33 31 28 25 24 21 20 20 16 13
3 6 8 12 5 6 4 2 7 4 8 8 6 5 6 4 3 5 9 12 14 17 19 22 26 32 32 34 40 39 36 36 39 41 40 38 39 38 37 32 30 29 26 21 19 17 17 17 15
4 1 4 6 3 4 4 10 7 9 12 7 6 6 6 4 6 7 8 9 14 17 19 24 29 32 36 38 37 34 33 34 35 35 33 32 32 34 32 32 29 28 24 22 20 19 17 16 14
3 4 5 10 5 4 4 9 3 7 8 8 7 6 5 3 5 10 9 14 18 19 20 21 29 34 38 35 36 33 34 32 28 28 27 27 28 26 28 28 28 28 24 22 20 18 18 18 16
6 5 3 6 5 1 5 13 5 7 8 8 7 7 6 6 7 11 10 12 15 19 19 20 23 36 38 36 29 26 27 29 25 23 22 25 22 21 22 25 26 25 25 23 20 21 20 18 16
2 4 5 12 18 4 16 9 12 9 7 7 10 9 7 7 7 12 13 15 15 18 21 25 25 30 35 30 27 28 27 33 27 22 23 23 22 20 19 25 24 25 28 25 25 23 22 19 18
6 7 11 10 15 3 12 11 5 9 8 10 13 9 6 7 7 10 13 16 18 20 23 23 25 27 25 25 23 23 29 33 32 26 24 24 24 21 22 26 26 27 28 28 28 28 23 18 21
10 10 9 8 16 9 3 7 7 3 3 6 6 5 5 8 9 11 12 15 16 19 22 25 28 31 29 28 26 23 21 26 26 30 27 24 25 22 20 21 25 30 31 31 31 30 28 24 23
13 11 13 11 6 5 2 5 6 4 4 6 7 9 9 10 7 11 13 15 19 22 24 27 32 32 31 29 30 28 26 25 27 30 29 23 22 22 22 26 29 32 29 29 31 31 31 30 26
12 7 10 11 7 2 2 2 6 3 5 9 12 13 13 13 11 12 13 20 21 20 27 27 29 34 32 31 31 32 28 29 30 30 28 25 26 29 32 32 28 27 29 33 34 35 34 33 30
11 5 4 3 3 2 4 4 5 5 7 5 9 14 16 15 12 10 15 18 20 24 27 30 29 31 35 34 34 34 30 31 31 33 29 32 34 34 33 31 28 28 30 34 35 36 35 37 35
5 3 2 4 2 5 6 3 9 8 7 8 13 16 16 16 15 13 14 15 19 27 29 30 33 32 37 39 41 42 40 38 36 36 35 33 37 36 35 34 33 34 34 36 38 36 36 39 37
8 9 5 6 4 4 3 5 6 7 6 7 12 15 13 14 14 16 16 19 21 23 28 30 29 30 33 37 40 42 41 37 37 37 36 36 37 41 41 39 39 39 37 37 36 37 38 38 34
6 8 9 4 2 2 4 6 9 8 8 4 7 8 13 15 15 18 16 22 22 25 29 31 29 29 31 35 36 38 39 39 37 38 36 39 42 42 40 40 41 42 39 38 37 39 38 35 33
12 5 2 1 7 5 3 4 6 8 4 4 7 12 14 15 15 14 15 23 28 28 28 31 33 33 33 32 36 36 38 40 40 34 38 39 40 41 40 41 41 42 41 38 36 36 35 34 33
5 12 3 4 5 8 2 5 8 10 9 4 5 9 14 16 17 18 18 27 30 27 31 34 37 37 35 35 35 36 38 38 37 37 38 41 39 42 43 41 39 40 37 34 35 37 37 35 38
5 14 13 6 4 3 4 7 5 9 8 7 3 6 6 11 17 17 18 24 26 30 30 35 37 41 43 40 36 40 39 36 36 40 39 37 39 42 39 37 36 31 38 41 39 37 37 39 39

GFSSGP_925_spd_090.txt.gz
Wind_Speed
2 3 2 5 4 5 3 4 2 4 3 2 3 0 4 3 4 5 4 4 5 18 26 25 22 27 32 31 36 43 44 46 43 40 37 36 35 36 35 37 38 38 36 32 32 30 31 29 27
4 3 4 2 4 3 5 4 5 5 3 4 1 1 4 5 3 5 4 5 10 19 26 32 28 28 33 34 32 41 43 44 39 37 36 35 35 35 36 37 39 40 38 34 30 30 28 28 28
4 3 4 4 3 3 4 5 7 3 5 1 2 4 2 4 3 4 6 3 17 21 28 28 32 34 35 37 36 39 38 38 40 35 35 32 34 35 35 38 39 39 37 33 29 26 24 27 28
3 5 4 4 4 6 5 7 6 3 2 3 1 6 4 6 2 2 2 8 17 22 28 31 34 38 40 39 39 36 36 33 36 35 32 33 35 35 35 38 38 38 34 30 25 24 27 28 27
5 3 3 1 4 5 5 7 4 4 3 4 6 4 4 4 10 8 8 6 17 24 31 29 32 34 37 41 39 39 39 34 33 36 36 34 32 33 35 35 36 36 33 28 25 24 28 30 27
4 3 3 2 4 5 5 7 3 5 3 2 3 2 5 3 3 7 10 7 12 17 21 27 31 34 36 39 38 36 37 39 39 37 36 37 35 35 36 36 36 34 32 28 24 27 31 30 27
6 4 4 3 5 6 4 3 3 3 2 6 2 3 3 2 3 5 9 8 13 13 16 17 32 37 38 35 40 39 39 37 36 37 39 37 37 37 37 37 37 34 29 27 27 32 34 30 27
5 4 2 4 2 7 4 3 2 7 8 2 5 6 5 2 2 3 3 5 11 15 16 20 25 31 30 28 36 37 41 40 34 33 39 38 38 38 37 37 37 34 30 28 31 33 32 28 26
3 3 3 5 4 6 4 3 3 1 2 3 6 4 3 7 4 5 5 7 12 13 12 22 23 25 33 29 33 36 38 38 34 33 34 40 39 37 37 39 37 33 31 30 31 31 30 27 23
4 3 8 7 6 6 11 4 6 4 3 5 5 4 6 9 8 9 8 10 13 12 12 12 15 21 23 30 33 40 39 41 39 32 35 39 39 38 38 39 36 33 30 28 29 30 28 26 23
5 6 5 7 8 6 4 4 7 5 5 9 7 4 7 6 6 8 9 13 15 9 6 7 14 21 27 28 38 41 42 42 38 36 36 33 38 36 38 38 36 33 30 29 30 29 27 24 23
2 8 5 7 4 1 4 1 4 6 8 2 3 1 5 7 8 9 9 10 7 9 4 4 11 21 33 34 39 48 46 43 42 36 34 32 34 36 37 37 35 34 31 30 29 26 24 22 20
5 5 4 8 9 6 2 9 6 8 3 4 3 5 6 5 3 4 6 4 4 7 3 5 2 7 21 33 46 50 47 50 46 34 36 33 36 39 36 34 33 31 29 27 27 25 23 21 18
4 5 8 8 9 5 5 3 3 6 7 6 5 4 5 3 3 4 6 6 7 8 7 7 6 13 18 24 42 40 37 46 43 35 35 36 41 40 38 37 33 30 27 26 25 23 22 19 16
3 5 7 6 5 5 7 5 9 6 9 8 6 5 6 3 2 6 9 6 6 8 9 12 12 20 26 35 40 39 33 33 40 38 39 40 39 42 41 38 36 31 26 25 23 23 20 16 16
3 3 4 4 2 3 7 8 6 6 10 9 7 7 6 5 4 4 6 5 6 9 13 18 18 20 30 33 37 40 37 31 35 41 39 34 40 41 38 37 36 32 28 26 24 23 20 18 18
3 4 4 9 3 2 3 8 5 4 7 7 8 9 8 4 4 4 5 7 8 11 14 18 24 23 28 30 34 29 29 31 34 37 37 39 33 36 35 34 32 31 29 26 24 22 21 20 18
6 4 4 7 3 5 2 11 13 6 8 9 9 11 8 7 6 6 6 8 10 11 13 16 22 29 30 30 31 24 26 31 32 34 35 34 32 35 34 31 32 31 28 25 24 21 20 20 18
4 4 4 6 6 3 9 8 14 7 7 8 10 11 10 6 6 9 9 11 15 14 15 17 21 30 33 32 31 28 28 33 33 33 30 27 25 26 26 28 27 27 28 27 24 23 23 21 19
5 6 9 9 14 7 9 15 12 5 7 8 8 9 9 7 8 9 10 11 14 16 19 22 22 25 33 29 25 22 21 26 28 30 32 29 25 28 30 26 27 28 29 26 26 26 23 19 23
7 13 5 9 8 5 3 7 8 3 4 4 4 8 9 12 11 10 10 12 14 16 20 23 26 29 29 31 30 21 24 22 22 23 26 28 33 30 27 27 29 30 29 30 29 29 27 25 25
10 9 9 7 2 4 3 5 6 4 6 5 7 9 11 12 9 9 12 14 16 16 18 21 26 26 27 32 31 29 26 24 26 30 29 27 26 27 24 26 27 28 29 30 31 32 32 30 25
11 8 9 6 5 2 4 2 7 1 6 10 10 12 10 13 14 12 12 17 18 20 21 22 25 29 31 35 35 31 26 25 28 32 29 29 24 21 22 24 23 24 27 30 31 35 37 35 30
2 3 3 2 2 5 7 7 5 4 6 5 5 10 11 13 12 12 17 16 19 21 23 26 26 29 31 35 37 35 33 30 29 31 31 34 31 28 27 28 28 26 29 30 33 37 37 40 36
5 4 2 2 2 6 4 4 8 7 9 8 10 9 12 13 14 13 14 16 20 21 23 27 28 29 34 36 36 38 37 37 35 35 35 33 33 33 33 30 30 31 32 33 33 36 39 41 39
10 9 6 6 4 4 3 6 6 9 7 8 9 7 8 11 12 15 16 19 24 26 25 24 26 27 31 33 34 34 37 35 35 35 33 34 36 37 37 36 35 37 37 36 36 37 41 39 39
5 5 7 1 2 1 4 6 8 7 8 6 7 7 10 12 14 16 15 22 25 26 29 29 30 30 31 34 34 34 34 35 32 34 35 36 38 38 37 37 39 39 38 39 38 38 39 37 39
10 8 3 0 5 5 4 4 5 6 9 7 7 8 8 8 10 11 13 22 27 27 29 32 34 35 35 36 35 36 36 37 38 35 35 37 39 39 39 39 39 38 38 37 37 36 35 34 37
4 9 3 4 5 5 2 6 8 11 9 7 9 8 8 9 12 13 14 19 21 24 27 30 31 30 30 33 35 37 38 39 38 39 42 40 39 41 42 42 42 43 42 38 35 33 31 29 36
2 8 13 9 6 2 3 10 4 8 6 8 8 8 7 9 9 9 6 11 18 23 26 29 30 33 33 35 35 34 34 36 39 42 41 38 41 43 45 42 43 37 38 37 32 32 28 31 38

GFSSGP_925_spd_093.txt.gz
Wind_Speed
5 4 2 3 2 1 0 3 2 3 3 3 2 4 4 4 5 5 1 12 10 14 22 27 32 30 31 36 43 45 44 43 42 41 41 39 38 37 36 36 34 34 32 30 29 28 27 26 26
6 4 4 3 1 1 1 2 6 7 4 1 2 3 3 5 4 5 3 9 11 17 25 25 32 33 35 38 41 44 43 42 43 39 37 38 38 36 36 35 35 35 33 31 30 29 27 25 26
4 2 2 3 2 1 3 5 8 4 5 3 3 2 2 4 1 1 2 4 10 17 26 27 34 35 33 38 41 43 43 45 43 39 36 37 37 37 37 37 36 35 33 31 30 28 27 28 27
3 2 3 1 3 4 4 5 4 6 2 3 1 5 4 6 4 3 2 4 14 22 27 35 38 36 35 35 39 43 46 44 42 41 39 38 37 37 37 36 35 35 33 31 28 29 30 29 28
4 1 2 1 3 4 6 6 3 4 4 3 5 4 5 2 7 4 3 5 13 23 26 37 38 37 39 41 40 45 46 44 43 41 39 39 38 38 38 37 35 33 31 28 28 30 30 29 28
2 1 2 3 4 4 6 6 3 4 5 3 4 5 6 1 4 3 7 10 11 16 19 17 27 31 30 33 41 46 46 45 42 40 41 39 40 38 38 37 34 32 31 29 31 31 29 29 27
4 3 2 3 3 4 4 4 3 4 5 7 3 4 3 2 3 4 5 8 10 7 6 10 10 11 25 27 32 43 44 43 40 39 40 43 41 40 39 37 35 32 30 29 30 32 29 28 26
4 2 4 4 4 5 4 3 3 6 6 2 5 6 4 1 3 4 4 3 5 3 4 14 34 39 31 36 36 40 42 42 42 41 41 43 44 41 39 36 32 30 26 28 32 32 29 28 27
4 2 4 4 7 4 2 4 2 0 4 4 7 4 1 5 2 3 3 4 8 5 2 11 21 31 34 35 31 33 39 43 42 42 41 43 39 38 36 30 32 28 27 30 34 33 30 27 25
4 4 8 6 6 4 9 6 5 2 4 7 7 9 5 5 4 3 5 6 6 11 7 3 14 21 30 30 33 34 34 40 42 42 42 35 34 37 30 31 30 29 30 33 35 32 30 26 22
5 7 6 7 11 7 6 5 3 4 9 13 9 3 7 7 7 8 11 10 11 9 12 8 10 14 20 25 27 37 35 27 41 43 40 38 32 36 34 31 29 30 32 29 31 31 23 23 22
4 8 6 5 5 5 5 2 5 9 12 0 6 1 5 8 8 9 10 7 6 9 9 7 9 14 17 24 31 36 44 36 33 41 37 41 34 34 32 32 31 31 26 28 26 27 26 25 22
5 5 5 11 8 7 6 12 10 13 12 5 3 3 5 6 5 5 4 2 7 10 8 9 9 13 18 22 28 41 48 45 38 39 38 42 35 34 35 38 32 29 32 33 31 28 25 24 23
5 5 9 7 10 6 10 10 4 11 4 6 4 3 5 3 3 7 5 3 7 11 9 8 10 13 18 29 43 37 45 47 47 37 38 38 38 40 40 41 35 33 33 32 31 29 25 23 22
2 6 7 8 5 5 9 6 9 6 6 7 6 5 7 5 4 8 6 1 4 8 9 9 6 7 7 12 45 49 44 44 39 40 39 36 41 45 41 42 37 33 33 31 29 27 24 22 21
2 2 6 1 4 1 7 10 6 2 9 11 10 8 8 8 5 8 4 4 4 7 9 8 6 9 10 21 34 41 43 38 33 35 36 40 46 46 44 39 38 35 33 32 29 26 21 20 19
3 10 6 6 3 3 4 8 2 4 8 10 11 10 8 8 5 7 4 4 5 6 10 10 9 14 19 23 26 36 38 38 33 35 38 36 44 44 45 42 37 37 32 32 29 27 23 21 17
8 6 5 7 3 2 7 16 15 8 10 13 12 11 10 10 10 8 5 6 6 7 9 12 13 16 23 25 27 29 29 30 33 33 38 33 43 44 41 37 32 32 27 29 28 25 22 19 19
4 5 6 4 5 3 9 11 17 17 8 11 11 12 12 12 8 8 8 8 8 9 10 14 17 20 24 25 23 21 26 31 29 32 30 31 34 39 33 31 31 31 26 28 28 24 22 17 19
15 13 14 12 9 8 7 13 18 12 9 6 12 13 14 11 10 10 11 11 12 10 10 13 17 21 23 25 21 22 23 26 22 25 35 34 33 29 29 28 29 29 27 26 27 27 22 16 24
16 17 16 15 6 6 7 6 6 3 7 4 7 11 14 15 14 13 13 14 12 14 13 15 19 24 24 25 25 21 19 20 21 28 31 34 34 31 27 29 28 31 28 28 29 28 26 17 25
17 15 14 12 5 7 3 7 7 11 14 9 9 13 15 14 14 13 14 16 16 15 13 16 20 28 27 29 27 31 23 22 20 27 30 31 29 31 26 23 26 27 34 29 29 31 31 22 18
12 8 12 12 9 7 8 5 3 2 10 14 7 13 15 16 17 16 15 17 16 16 17 20 22 21 23 27 32 31 21 20 20 29 31 31 28 27 27 29 33 34 29 29 31 32 33 34 22
2 11 4 2 3 8 10 7 6 5 7 6 4 8 15 17 17 16 18 19 19 17 17 19 23 25 25 24 28 30 26 24 25 28 29 30 31 32 35 36 30 34 31 34 34 32 35 37 37
7 4 2 4 5 7 7 9 13 7 11 10 12 6 12 16 17 17 17 18 22 23 22 21 22 22 29 33 30 32 29 24 23 28 25 29 32 29 30 31 33 32 31 31 29 30 33 36 36
13 14 6 6 5 4 4 6 6 9 9 8 10 9 9 14 17 19 20 21 24 26 26 25 26 26 26 29 31 32 29 26 25 27 26 26 27 29 28 33 31 30 31 31 31 32 34 34 37
6 9 13 6 1 3 4 4 8 7 10 5 8 6 9 13 17 20 20 25 26 27 29 29 28 26 26 28 28 29 31 30 27 26 27 27 28 29 31 34 32 33 34 34 32 34 35 35 39
8 7 4 5 6 10 5 4 6 2 7 7 7 8 6 10 14 15 17 24 26 26 26 26 27 26 25 27 29 30 31 32 31 29 29 28 27 28 28 31 32 32 34 32 32 34 35 35 40
5 12 6 3 4 7 7 5 8 11 11 10 10 5 7 11 14 15 15 20 22 21 25 26 25 27 28 28 29 30 32 32 33 34 33 32 30 29 28 28 30 33 33 36 35 35 36 39 41
3 2 14 10 8 2 5 11 4 10 6 6 10 6 4 8 13 13 13 18 22 24 25 28 28 30 30 31 31 31 31 33 34 37 36 33 36 34 33 29 28 28 31 34 32 36 37 40 40

GFSSGP_925_spd_096.txt.gz
Wind_Speed
6 4 4 5 5 6 3 4 3 5 4 1 3 6 9 12 8 9 2 3 4 11 18 21 22 23 30 39 43 44 41 43 41 36 37 38 36 37 31 34 33 31 28 27 27 28 26 25 25
7 5 6 3 6 7 5 2 5 2 4 5 7 8 9 10 6 5 4 4 6 8 17 21 26 25 29 37 42 43 42 42 40 39 37 36 37 36 36 34 34 32 31 27 26 27 26 25 26
5 5 5 4 4 5 3 3 2 4 5 8 4 5 6 4 4 3 1 3 7 8 16 24 26 28 34 38 43 44 44 44 43 41 39 39 38 39 39 35 34 34 31 29 25 26 25 27 28
6 6 4 8 8 3 4 1 2 5 1 4 5 10 4 9 2 3 1 2 4 7 13 24 29 33 35 39 43 45 42 44 44 42 42 42 40 39 37 36 36 34 31 29 26 26 26 27 27
5 4 7 11 8 3 4 2 3 6 3 6 6 13 8 4 9 4 2 2 5 8 12 20 29 33 36 40 44 44 46 45 45 42 41 40 39 39 39 37 36 33 31 29 26 27 28 27 28
6 4 8 9 11 6 4 2 5 7 5 5 5 13 14 2 6 5 4 4 7 6 9 13 18 19 23 38 43 44 46 46 45 44 43 41 39 39 39 38 35 33 31 29 29 29 28 27 28
10 7 11 10 9 8 7 1 7 10 10 11 7 9 9 5 5 3 2 2 3 1 3 9 1 15 42 31 38 46 49 48 45 43 43 43 42 41 41 38 36 33 30 29 29 29 27 26 27
7 6 9 10 10 14 6 3 7 10 11 4 4 8 12 4 4 3 1 4 2 2 5 15 12 12 14 25 25 26 33 42 44 42 43 43 42 43 41 40 37 31 29 31 29 28 27 26 26
4 8 11 12 12 12 6 5 2 4 10 6 8 13 7 3 3 5 3 4 6 4 4 9 17 20 20 20 21 21 26 35 40 41 41 43 38 39 38 33 35 31 30 32 30 28 26 26 24
11 11 14 6 9 9 9 7 11 7 11 13 14 14 12 9 7 7 6 3 4 5 9 9 20 18 27 25 17 23 24 25 35 40 37 36 37 34 30 30 32 29 29 32 30 28 26 22 19
12 17 12 9 10 10 14 13 10 13 17 16 14 15 6 10 8 6 6 6 5 4 6 10 13 21 22 20 19 20 31 31 33 38 40 32 35 35 29 29 28 25 29 28 27 26 21 16 16
13 17 17 13 12 12 15 16 15 17 21 18 14 10 5 9 6 5 6 9 8 7 5 12 14 15 18 18 25 31 30 34 36 40 35 35 33 33 31 31 30 27 27 28 26 24 17 16 13
17 18 16 16 15 16 14 19 20 23 21 19 12 7 8 7 2 2 2 5 8 6 5 8 10 12 15 19 22 34 37 39 38 39 37 34 34 33 32 30 30 29 27 28 26 22 18 16 14
7 12 16 15 15 16 16 22 19 23 14 9 10 12 9 7 3 3 5 6 5 6 6 7 8 9 12 17 25 28 36 44 38 35 42 34 32 35 34 30 28 28 28 27 24 21 19 17 15
12 15 17 18 18 19 15 22 22 21 6 10 11 11 9 7 5 4 4 5 5 7 8 9 9 9 12 16 24 30 39 47 41 38 40 38 36 35 33 30 27 27 26 24 23 21 18 16 15
10 14 15 6 8 11 11 16 7 4 6 12 10 10 9 8 6 4 3 4 4 6 8 9 9 7 9 14 27 38 41 46 43 37 41 41 36 34 38 28 25 25 25 24 22 21 19 17 15
14 15 15 11 10 10 13 15 5 6 8 12 10 11 10 8 7 7 5 5 5 5 8 9 8 7 9 6 16 40 45 44 43 40 36 46 38 33 31 27 23 24 22 21 21 19 19 18 16
16 18 15 14 5 10 14 17 16 10 7 13 11 11 11 10 9 8 6 6 5 5 7 10 9 9 12 12 17 28 40 37 37 40 35 41 38 34 32 25 22 22 21 20 19 18 17 16 13
15 14 15 12 2 7 13 17 16 16 11 12 11 11 12 11 7 8 8 7 6 6 8 10 11 10 15 20 13 19 23 33 28 35 38 41 36 33 29 24 22 22 21 19 18 17 17 14 12
21 19 17 16 13 11 17 18 14 16 15 10 10 12 12 11 11 10 10 10 9 9 9 10 12 12 15 19 18 18 20 23 28 31 29 28 32 31 30 25 24 22 19 18 18 16 16 11 16
21 22 18 19 14 13 19 20 20 17 11 9 9 10 10 12 13 13 13 14 12 11 11 12 12 17 18 22 23 24 22 20 21 25 27 26 28 26 28 24 23 22 20 21 21 19 18 13 16
21 18 20 17 15 11 3 12 14 11 16 17 15 11 12 12 13 13 14 16 16 14 12 12 13 16 18 24 23 29 21 25 18 24 28 30 29 29 30 24 22 21 20 19 21 20 18 16 15
17 15 17 16 16 16 19 10 11 10 12 12 13 12 12 12 14 15 15 18 18 16 15 13 14 17 19 20 21 23 19 22 20 22 23 28 32 32 29 25 23 19 19 18 17 20 21 21 19
7 13 10 8 9 13 17 13 10 13 11 6 4 2 10 13 15 15 16 18 19 19 17 17 17 18 19 21 21 23 22 23 20 23 22 25 30 29 37 33 21 21 18 17 21 20 21 22 21
14 9 6 8 7 8 7 12 16 7 10 11 11 8 8 12 15 16 17 16 20 21 20 18 19 20 20 21 22 25 22 23 23 23 23 25 23 29 34 34 34 33 27 22 22 22 23 23 24
20 17 7 9 10 7 9 8 11 9 11 10 7 5 7 12 15 18 18 17 22 23 22 21 21 21 22 22 22 24 25 22 24 25 25 23 23 23 24 26 28 33 32 30 29 28 22 21 24
13 16 19 18 14 7 7 7 8 9 10 10 11 4 9 12 15 19 19 20 22 24 24 24 24 23 24 26 25 24 24 25 26 24 24 23 22 21 20 21 24 25 28 29 25 24 26 25 27
19 4 8 11 9 15 12 13 7 9 11 9 8 11 6 11 15 17 18 21 22 24 24 24 25 26 26 28 29 29 28 27 27 28 28 26 24 23 23 26 25 28 28 26 26 28 27 27 29
13 16 13 9 12 11 11 9 9 13 11 9 8 6 4 9 14 16 17 22 23 23 25 26 27 27 28 29 29 29 30 31 31 30 29 29 26 26 27 28 28 30 32 31 31 32 30 29 30
9 8 18 13 17 10 13 13 1 12 9 6 10 5 1 5 11 13 15 19 24 25 27 28 28 29 28 28 29 30 29 30 32 33 32 30 31 29 30 30 31 32 33 34 33 32 31 31 32

GFSSGP_925_spd_099.txt.gz
Wind_Speed
8 7 9 10 7 8 13 1 5 7 5 2 4 6 13 12 10 6 4 5 6 1 6 11 22 19 24 31 33 34 33 34 36 35 33 30 30 30 31 31 30 29 27 25 24 23 24 24 26
8 7 10 8 8 12 2 4 7 3 3 5 5 8 9 9 5 5 3 5 3 1 7 11 21 21 22 30 33 34 33 35 37 34 32 32 31 31 33 34 29 29 29 25 24 23 22 24 27
7 9 9 10 13 13 8 6 4 1 3 6 5 3 6 8 4 7 5 3 0 2 5 12 19 23 22 28 36 36 37 36 34 40 37 35 32 33 34 36 30 30 28 26 23 23 23 24 27
7 10 8 9 16 9 7 3 1 8 6 5 7 9 6 2 5 3 3 0 2 4 5 6 18 21 24 29 38 39 39 41 39 37 39 38 35 34 36 34 35 30 29 26 24 23 22 26 29
12 8 12 16 16 9 4 6 6 10 7 7 8 12 13 3 4 5 2 1 3 5 6 13 18 23 27 33 41 45 44 43 43 39 38 38 33 37 36 34 34 33 29 27 24 24 24 27 30
8 7 13 14 13 7 5 6 6 11 10 11 7 14 13 9 7 6 4 3 4 5 6 8 21 24 33 27 26 43 48 47 47 45 41 40 37 36 35 34 34 34 32 28 26 26 25 27 29
15 12 16 19 13 13 8 7 9 13 13 12 9 11 12 7 10 8 4 2 3 4 6 10 12 18 27 29 39 43 48 49 49 47 44 42 42 39 36 36 35 34 33 30 28 26 25 26 27
13 13 21 19 12 13 8 6 8 14 15 5 7 11 11 11 8 7 4 2 2 4 5 9 13 13 13 27 25 45 44 49 48 48 46 44 42 38 37 36 35 33 33 31 29 26 25 25 25
10 13 15 19 14 11 6 6 13 7 14 15 12 12 12 2 4 6 8 6 4 4 5 7 13 16 16 14 27 30 41 47 50 47 46 44 37 39 36 29 33 32 32 31 29 26 25 24 22
15 13 20 18 10 13 13 7 12 15 16 17 15 15 18 9 8 9 8 7 8 8 6 8 10 13 10 15 20 24 12 19 40 40 44 37 35 36 33 31 33 32 33 31 29 26 25 21 18
18 20 20 19 9 13 16 15 15 16 17 19 16 15 12 4 7 8 7 7 7 4 7 7 10 12 11 12 19 10 10 33 29 38 38 33 36 35 32 35 31 29 32 26 26 26 21 17 16
21 22 19 20 20 14 17 17 20 20 19 19 16 16 8 9 8 9 8 8 6 5 5 9 11 14 15 15 17 11 15 36 18 34 37 34 34 33 30 33 30 28 28 27 24 23 17 16 15
21 20 19 21 16 19 19 20 22 23 20 19 18 15 8 10 8 5 5 6 7 5 4 8 10 12 13 19 14 16 20 29 30 31 30 33 34 32 30 30 31 29 28 28 25 21 18 15 14
17 17 18 20 22 19 20 21 21 23 21 16 13 13 11 9 8 7 11 8 8 7 7 8 8 8 9 12 15 21 27 33 33 33 28 32 31 31 31 29 31 30 28 28 25 22 18 16 15
20 21 22 21 20 22 20 23 24 25 20 14 12 12 11 10 9 10 9 7 9 9 9 9 8 8 9 9 11 16 28 30 35 39 33 32 34 33 32 30 29 29 28 26 25 20 18 18 15
17 19 20 19 24 21 19 20 20 5 9 12 16 11 11 11 10 9 7 6 7 10 11 9 8 8 9 11 13 17 28 31 37 41 40 36 32 31 31 27 26 26 28 25 23 22 21 18 16
20 20 22 20 16 13 13 16 17 8 9 13 14 13 11 11 9 10 9 8 8 11 10 9 8 8 8 11 16 19 24 35 37 38 43 44 36 34 33 25 24 23 21 23 22 22 20 18 16
23 22 21 21 19 15 16 20 17 18 15 15 15 13 10 10 12 14 11 8 10 10 10 11 12 8 9 9 16 23 30 34 42 38 41 45 44 39 30 23 19 24 23 22 21 20 18 18 16
24 26 24 17 13 11 15 18 18 16 19 16 15 13 12 9 8 11 11 11 12 12 12 13 10 10 11 7 4 11 31 37 37 43 43 44 44 42 32 33 26 23 23 22 22 20 19 16 15
26 28 26 20 21 15 17 19 21 20 18 19 18 14 12 11 10 11 13 13 14 15 13 15 12 11 10 9 4 6 10 32 33 35 42 46 46 44 37 27 27 25 22 21 20 19 18 15 13
25 26 23 24 21 23 16 22 22 22 24 21 21 13 14 10 14 14 13 15 16 16 16 15 15 13 13 14 14 15 23 30 29 31 34 40 42 43 33 26 27 26 22 22 22 20 18 14 13
23 20 21 23 20 17 18 19 18 14 14 18 16 17 16 13 10 15 15 15 17 17 16 15 16 15 17 16 19 14 13 14 18 26 27 35 39 37 35 28 26 22 18 22 22 20 18 15 13
21 17 17 19 19 19 23 15 14 16 16 19 14 16 16 12 11 15 15 17 17 18 17 17 16 15 17 19 17 20 14 16 24 24 26 30 36 33 32 27 23 21 26 20 20 19 19 17 15
17 14 17 17 15 17 20 19 16 16 15 13 10 5 5 11 12 15 16 17 18 18 17 17 17 16 18 20 18 18 19 19 22 23 23 27 28 33 35 28 27 26 23 21 23 20 20 19 18
14 15 11 12 12 14 17 16 16 11 15 6 6 6 11 11 13 15 17 15 19 22 20 19 19 18 17 20 20 22 23 23 21 23 24 26 24 26 32 35 31 27 21 18 16 18 23 20 20
17 18 11 14 11 11 16 11 15 15 18 16 11 5 7 10 13 17 18 16 20 22 23 21 21 20 20 21 23 25 22 22 23 22 20 23 25 27 30 36 32 28 26 25 21 24 27 25 23
19 19 22 21 18 12 7 10 15 4 8 8 8 11 11 12 13 17 19 17 20 22 24 24 24 21 22 23 21 22 24 24 24 26 25 24 24 25 26 35 34 33 33 31 34 28 28 28 26
21 14 15 14 17 20 17 18 9 11 10 12 11 9 11 11 13 16 18 17 21 22 22 22 23 24 24 24 22 22 26 25 25 27 28 26 24 26 26 27 30 28 28 29 29 28 26 26 26
13 18 16 13 15 15 12 10 10 8 10 5 9 9 8 6 12 15 17 21 22 22 23 23 22 24 24 25 25 24 25 23 24 26 25 24 24 25 25 28 26 27 27 26 26 27 25 27 29
12 17 22 11 16 12 14 14 3 4 3 2 10 6 2 6 9 14 17 17 22 23 24 25 24 23 24 25 26 26 25 25 25 25 26 25 26 25 24 24 24 25 26 27 30 31 30 30 30

GFSSGP_925_spd_102.txt.gz
Wind_Speed
11 10 10 16 6 8 18 7 8 8 1 5 6 3 9 10 8 3 13 11 10 11 8 12 15 19 21 21 23 24 24 22 22 25 26 25 27 27 27 29 29 28 27 24 22 24 22 23 25
10 15 15 6 8 13 11 7 5 3 9 10 5 8 10 9 4 4 10 9 8 5 5 9 15 17 20 22 24 25 27 26 27 28 25 21 24 27 29 32 31 28 26 23 23 26 23 25 28
11 15 7 7 12 14 16 9 5 8 6 3 5 9 3 4 9 7 11 7 3 3 3 7 11 17 19 21 25 27 30 30 31 30 28 23 21 27 32 31 32 29 27 25 25 24 24 28 29
8 9 6 7 15 20 22 5 7 2 8 6 2 6 8 4 3 13 11 6 5 4 4 6 10 13 20 22 27 30 32 35 36 37 25 34 31 32 33 31 32 32 28 24 27 22 29 29 29
16 6 12 16 21 23 14 2 5 7 10 4 7 11 10 17 19 15 12 8 6 5 6 10 11 15 18 21 27 33 36 39 39 37 33 33 27 28 33 32 31 33 30 27 26 26 29 30 28
9 10 13 13 19 15 4 5 1 6 11 10 9 9 10 13 14 15 9 7 7 6 7 11 12 13 20 22 26 33 40 36 41 40 38 43 34 26 29 32 32 32 33 29 27 29 30 30 28
14 12 17 21 19 21 15 8 9 8 11 10 6 8 7 14 13 12 7 5 5 5 8 8 10 11 19 25 26 31 32 21 35 40 43 38 35 42 36 33 34 32 31 30 28 29 31 29 26
13 13 22 19 16 20 11 5 8 6 12 10 0 5 7 13 13 11 7 6 5 5 5 7 7 12 14 17 23 24 32 32 50 40 43 37 38 42 39 36 32 31 30 30 30 30 32 28 25
19 14 15 21 20 17 10 3 7 7 10 9 11 11 12 17 18 12 11 10 9 8 7 7 10 13 14 18 22 24 35 28 52 47 47 41 41 42 41 36 35 32 32 32 31 31 31 26 25
17 15 22 21 20 17 11 13 15 9 13 14 11 13 12 16 10 10 12 12 18 16 12 9 9 13 12 8 10 17 26 32 49 38 47 43 41 42 35 34 35 33 32 31 30 30 29 26 27
20 20 22 24 24 21 14 14 17 15 16 15 10 12 6 14 12 7 7 10 8 8 11 10 8 11 10 9 10 16 19 26 58 51 49 43 38 41 36 35 34 35 33 32 30 29 27 27 24
25 23 23 24 22 20 20 18 17 17 18 16 13 11 9 1 4 5 8 9 9 7 8 8 7 11 13 11 16 17 19 16 27 45 48 42 36 37 38 36 33 36 35 33 32 30 24 21 17
24 24 24 23 23 20 22 19 20 20 18 17 16 14 8 3 6 8 6 2 4 8 4 7 8 11 16 16 16 15 18 23 16 32 33 35 36 35 37 36 33 31 28 29 33 27 24 20 18
22 25 23 22 23 22 23 23 19 20 18 18 16 12 9 6 7 8 12 9 10 8 8 8 9 10 10 20 18 18 23 37 23 25 32 34 33 32 36 36 30 30 28 26 31 27 25 22 18
22 25 24 23 24 24 22 23 22 19 21 22 16 11 9 9 10 10 10 16 13 8 8 9 10 8 8 8 13 15 23 35 33 37 26 30 32 32 36 34 32 29 29 28 26 23 24 20 19
25 23 19 18 23 25 23 24 21 20 20 9 9 8 15 13 12 13 14 9 9 10 9 9 8 6 8 9 11 19 25 30 30 37 40 33 29 33 34 34 34 33 32 31 29 24 23 20 19
18 21 25 26 22 26 24 22 18 18 13 8 10 11 12 13 13 14 11 7 8 10 10 9 8 9 7 9 10 12 22 30 34 36 34 37 37 33 35 35 33 36 36 32 28 25 23 21 19
19 19 19 21 21 24 25 21 16 18 18 13 14 14 12 6 17 18 16 13 13 10 13 11 11 9 9 8 9 13 14 25 32 38 40 42 39 37 31 33 30 35 36 32 28 26 23 22 20
22 24 19 23 29 27 24 22 16 17 16 15 12 13 12 10 11 23 19 17 16 13 11 13 13 12 10 10 11 15 20 25 30 36 43 46 44 42 37 32 26 26 28 21 25 23 23 21 18
22 21 23 23 26 26 29 23 17 16 17 15 15 14 13 9 16 17 20 18 19 15 14 14 14 13 10 10 10 11 18 27 31 29 44 45 46 48 41 35 30 23 21 24 23 23 22 19 18
20 23 19 22 25 31 29 25 22 18 17 17 18 15 14 7 14 18 16 19 20 16 16 15 14 14 12 9 7 3 12 23 29 34 37 49 50 47 41 28 29 26 20 22 24 25 24 16 18
20 19 21 20 18 16 23 17 20 15 21 22 23 18 16 9 7 18 17 16 21 20 17 17 15 17 13 12 9 2 5 12 14 37 34 39 48 43 36 31 31 33 22 28 29 28 23 18 18
20 14 16 20 20 17 25 15 15 18 14 14 13 12 14 15 14 20 18 19 21 23 21 17 19 18 15 14 15 10 14 19 25 23 34 38 41 45 42 36 34 34 29 30 29 24 27 18 22
19 13 19 17 15 16 19 19 17 15 17 19 17 15 12 11 12 18 19 23 20 24 22 18 18 18 17 17 15 12 16 20 24 26 25 27 33 38 39 39 34 31 29 27 23 30 27 28 22
16 11 10 12 13 15 18 19 14 16 19 18 14 6 8 2 11 14 18 16 21 23 22 21 20 18 19 22 18 19 22 24 26 28 27 27 29 32 37 41 36 31 31 27 31 22 28 30 23
19 15 8 10 11 7 18 8 15 19 16 10 6 4 8 11 10 13 17 16 21 23 23 23 22 20 22 21 21 21 22 23 25 30 30 30 30 32 35 39 33 31 32 32 22 31 30 26 25
22 18 18 18 18 12 9 20 21 8 1 8 11 7 6 9 14 14 17 15 24 25 27 26 25 20 23 23 24 21 22 21 23 24 27 28 26 30 33 34 34 34 31 27 32 26 25 24 26
22 14 11 10 10 10 12 16 8 8 10 4 12 8 10 11 14 14 15 16 24 27 27 25 27 25 23 25 24 24 23 22 24 22 25 29 30 27 28 36 38 38 31 34 31 32 31 26 26
12 16 15 14 15 12 9 8 7 6 18 7 8 10 6 8 13 14 14 18 22 27 26 28 26 26 27 27 24 25 26 25 26 25 25 25 27 30 30 35 39 39 37 35 33 33 29 28 29
7 13 18 11 15 10 13 15 12 12 15 7 7 10 9 8 2 14 15 17 21 25 26 26 26 27 28 30 27 24 25 27 27 26 30 28 28 30 30 31 34 34 33 32 30 29 26 29 30

GFSSGP_925_spd_105.txt.gz
Wind_Speed
9 8 5 3 3 3 5 9 6 3 6 4 7 8 2 4 6 4 11 10 14 12 13 13 13 15 18 20 20 20 21 24 22 21 24 23 23 23 23 25 27 29 28 26 24 25 24 25 24
7 3 4 2 3 1 6 3 6 10 7 8 6 3 3 5 7 8 9 11 14 12 10 13 13 16 19 19 21 21 21 21 25 25 24 28 22 21 23 25 27 27 26 25 25 25 27 29 32
8 7 1 3 3 6 5 3 8 6 8 5 2 0 1 2 7 14 15 15 15 11 9 13 13 16 19 21 22 23 23 25 26 30 28 25 26 19 24 27 27 28 25 24 25 25 32 36 37
1 3 4 1 12 16 11 6 7 5 5 8 6 2 1 9 10 16 19 13 15 14 12 12 15 16 20 23 25 26 27 28 29 31 34 30 27 19 23 27 29 28 28 25 26 26 35 37 37
5 1 3 5 11 14 16 6 8 6 3 3 6 4 4 4 23 24 18 14 14 14 12 13 14 18 20 22 25 28 30 31 32 33 32 29 24 21 22 26 29 31 30 26 27 33 34 37 33
2 3 1 5 13 11 8 6 7 6 3 4 4 3 1 27 26 21 18 14 13 10 10 12 13 16 21 23 25 28 33 35 34 35 32 30 38 33 27 26 28 30 31 30 32 34 35 36 31
5 1 6 9 14 15 15 4 8 7 5 3 2 2 4 7 25 22 18 15 13 12 9 7 9 11 18 21 24 28 31 34 33 36 23 32 38 37 38 33 30 31 29 31 34 35 33 33 27
5 3 8 11 11 14 12 3 6 7 5 3 6 4 5 8 26 21 18 17 13 13 13 12 11 12 14 18 24 26 31 33 34 37 29 41 44 37 36 35 34 32 31 33 35 37 34 30 26
3 6 10 17 12 19 11 4 3 6 5 4 6 7 12 31 25 19 15 15 14 13 12 12 11 11 13 15 17 19 22 26 37 38 31 48 35 37 34 36 34 32 32 33 37 36 33 31 27
6 7 11 11 15 17 14 10 7 2 5 5 5 9 12 27 26 18 14 17 21 21 16 13 10 9 12 14 17 17 20 27 29 36 32 26 38 38 38 38 33 32 34 34 35 35 33 29 27
8 14 14 16 17 19 16 9 6 8 8 6 6 6 13 15 19 16 19 20 24 24 19 15 13 12 14 16 10 10 11 26 37 33 39 27 37 39 39 38 35 32 33 34 34 34 32 30 26
15 17 16 17 16 18 18 7 8 5 9 7 8 5 6 12 13 10 13 14 16 25 21 15 11 9 10 12 13 15 13 16 30 31 33 48 36 38 37 39 38 37 35 35 35 33 32 31 25
14 16 18 17 16 13 14 18 8 8 13 10 10 10 7 11 11 21 18 14 19 21 18 14 9 9 12 13 16 14 11 17 16 37 50 50 43 38 36 39 40 38 37 37 36 32 33 29 21
9 12 14 14 13 10 12 11 5 9 13 11 13 12 12 10 11 11 17 15 12 16 20 12 8 10 14 16 16 17 8 8 12 46 45 46 43 40 38 40 40 39 39 37 36 31 30 24 19
8 12 15 17 12 14 10 21 12 13 13 14 16 16 12 11 12 13 24 21 19 18 18 12 8 11 12 19 20 17 14 15 24 36 43 41 40 40 37 35 37 38 38 38 34 30 24 21 17
6 6 8 10 10 9 7 23 21 17 15 19 17 20 10 10 13 21 25 19 24 25 20 13 12 11 11 9 21 18 21 26 29 32 42 38 42 40 38 36 35 37 37 38 33 29 29 25 22
4 12 13 20 12 17 16 18 12 24 23 18 12 9 9 8 9 18 26 25 29 27 23 18 16 14 12 10 11 18 22 30 34 36 41 42 42 46 42 36 36 37 38 36 34 28 32 28 24
6 11 14 15 11 6 11 19 17 20 23 10 10 9 9 8 12 21 30 30 29 26 22 20 16 14 14 15 13 15 23 26 35 41 40 42 45 42 43 37 40 39 40 37 35 29 31 28 26
14 16 19 17 8 7 11 15 21 22 26 12 9 10 10 10 13 23 28 31 28 27 24 18 18 18 17 16 17 16 18 26 32 37 39 45 44 43 41 41 42 42 39 40 37 35 32 29 25
20 21 19 13 5 10 11 17 18 21 25 26 9 9 9 4 18 16 22 24 27 27 24 19 21 20 18 18 18 17 23 24 29 36 43 46 46 46 43 43 43 42 39 39 38 35 32 29 26
17 12 8 12 11 12 9 19 14 23 24 20 9 9 7 7 18 15 16 21 27 26 24 22 22 21 18 17 16 14 15 17 26 28 38 43 48 49 44 43 39 43 40 35 35 35 30 27 24
17 7 12 14 8 8 5 18 15 21 26 24 16 14 12 8 18 17 15 16 24 26 24 21 22 21 18 17 16 17 18 18 23 35 35 45 46 48 44 38 38 34 41 36 32 31 29 26 22
12 8 14 9 5 6 10 14 10 13 16 21 16 13 19 14 23 21 19 22 25 29 26 22 23 21 20 18 16 9 13 15 24 26 25 36 44 44 46 37 38 36 39 40 36 32 27 21 22
3 3 9 3 2 10 9 13 10 13 15 21 17 13 8 16 23 20 19 25 23 28 27 22 23 23 20 19 19 15 17 16 17 23 28 29 40 41 42 37 34 30 30 32 29 25 20 20 21
3 2 3 3 4 12 5 13 11 14 21 23 23 17 7 11 23 20 19 16 22 25 28 22 24 22 21 20 20 18 19 20 21 22 29 31 28 34 37 37 36 31 24 23 19 24 26 23 23
8 8 5 7 4 9 4 7 5 12 19 20 20 12 9 19 20 20 20 17 23 25 27 23 23 21 21 22 20 21 20 23 22 24 25 28 31 33 36 35 31 29 26 26 26 25 26 25 33
8 7 11 8 6 6 4 9 12 8 17 20 13 5 10 16 19 20 18 16 24 26 28 27 24 23 23 23 22 21 23 24 23 22 26 27 30 32 40 39 38 36 29 31 27 28 30 28 29
6 4 3 3 4 6 6 12 9 6 19 26 10 12 9 13 19 20 18 18 25 28 28 28 26 22 25 26 26 25 24 23 24 26 25 26 26 29 40 41 38 36 30 32 31 30 32 35 34
6 3 4 2 6 4 3 4 7 11 10 13 19 5 12 6 15 19 18 20 27 28 29 28 29 25 26 25 27 27 27 24 24 27 30 29 29 28 31 33 33 31 32 34 33 33 36 31 34
4 3 8 7 8 5 7 10 10 6 3 14 17 11 15 9 5 15 18 18 23 26 29 29 29 26 27 25 23 27 27 28 29 28 30 32 32 31 34 35 35 34 33 35 35 38 35 35 33

GFSSGP_925_spd_108.txt.gz
Wind_Speed
8 4 3 3 4 4 4 6 3 2 2 3 5 6 6 4 3 4 11 13 16 16 16 15 13 16 21 21 21 22 22 21 22 27 29 32 34 34 33 31 29 28 26 24 24 24 25 27 28
6 2 2 2 4 2 5 5 5 7 8 8 6 4 3 3 2 6 12 17 18 18 17 16 16 18 21 22 22 22 23 21 22 23 27 29 29 29 30 30 29 28 26 24 25 24 25 27 28
2 2 3 3 3 5 5 3 4 5 8 6 5 2 6 8 2 13 9 21 19 18 16 16 16 17 21 23 23 22 23 24 22 24 28 27 28 28 28 28 27 27 26 24 23 24 26 29 31
4 5 3 1 9 8 5 6 8 6 3 2 6 4 3 16 19 16 25 23 22 18 16 16 17 18 20 23 24 26 27 27 24 26 27 25 29 30 29 26 25 25 27 25 24 26 35 37 36
2 3 1 3 8 7 7 6 14 9 5 5 5 4 6 6 16 25 27 24 22 20 17 17 17 19 20 23 25 26 27 27 29 34 31 23 19 29 29 27 24 24 25 27 27 34 37 38 36
2 3 2 4 8 7 9 10 9 6 5 5 4 6 2 11 28 30 26 25 21 20 20 19 18 18 20 22 24 26 27 30 34 36 33 35 26 28 28 26 24 24 25 27 36 37 35 34 32
5 4 4 5 7 13 9 7 5 5 3 4 2 4 0 4 28 31 28 24 22 20 19 19 19 18 20 21 22 26 29 28 34 36 36 39 31 15 24 28 26 26 26 30 37 37 34 28 23
5 4 3 6 4 13 3 9 5 3 7 1 6 5 5 11 27 28 24 22 21 20 18 19 18 18 19 22 23 25 28 30 32 39 42 32 21 25 26 30 32 30 27 34 37 36 34 26 22
5 1 6 10 8 12 9 6 3 5 5 3 6 7 8 26 26 23 21 20 20 20 20 19 18 17 15 17 23 27 28 32 31 39 38 32 38 38 26 32 36 30 29 36 38 36 32 26 20
5 5 9 5 7 12 16 5 14 4 6 6 5 3 12 30 26 20 16 17 23 25 24 22 19 16 14 14 16 21 25 28 29 41 43 36 43 35 35 33 35 31 32 37 38 36 30 24 28
5 10 5 9 10 10 17 8 7 6 6 9 7 5 10 13 18 14 17 21 31 30 25 24 20 16 15 14 15 17 22 22 26 40 48 41 41 34 33 37 34 33 34 37 37 36 31 29 29
8 12 7 7 11 8 14 15 8 9 11 9 10 6 10 12 14 14 17 25 25 28 27 23 20 17 12 14 15 16 15 20 29 32 43 49 43 43 32 34 35 37 37 38 39 36 32 29 22
13 13 14 12 9 7 10 9 12 9 12 12 9 7 13 16 17 23 27 25 24 28 30 24 20 16 13 14 17 18 18 18 27 41 36 51 43 38 36 32 37 38 38 40 40 35 32 28 21
7 9 9 5 5 6 11 13 4 5 11 11 9 12 11 14 20 18 16 22 29 28 29 25 20 16 15 16 18 18 14 21 26 34 42 44 40 39 37 33 38 40 40 41 40 35 33 27 17
4 7 8 3 3 5 8 17 7 9 8 9 13 19 12 11 15 19 31 30 34 32 29 25 19 15 15 17 16 18 17 15 30 39 44 43 44 38 37 39 40 42 42 41 38 34 30 25 17
5 6 7 4 3 5 2 24 8 6 9 13 15 18 19 12 18 27 31 30 34 32 31 24 19 17 14 15 20 18 16 12 13 41 42 44 46 41 42 39 40 42 41 39 38 35 32 24 20
3 11 10 9 8 7 8 21 4 9 9 13 15 17 19 17 11 25 28 35 34 34 32 25 21 20 15 12 17 21 18 16 23 24 40 44 43 44 40 41 40 43 41 41 38 36 33 27 22
7 7 5 8 4 3 8 16 8 7 7 10 17 15 16 10 13 21 26 29 34 35 30 25 23 21 18 13 14 19 20 23 24 31 33 39 42 41 40 40 40 42 39 41 40 36 30 30 27
4 5 12 8 14 4 11 12 12 8 11 15 19 15 12 16 3 14 24 30 33 33 30 27 26 22 22 20 18 21 22 26 25 29 38 45 43 44 41 40 43 44 39 45 43 34 30 31 28
10 13 17 15 13 9 13 16 18 7 11 16 21 19 16 8 7 14 21 26 31 33 31 29 26 24 22 22 20 17 20 27 32 30 35 38 45 47 44 40 41 45 37 43 42 37 31 27 32
14 12 12 16 7 6 5 16 10 10 9 14 19 16 17 10 12 13 15 22 26 29 33 31 28 26 23 20 19 13 17 17 26 28 31 36 40 44 42 44 40 42 42 39 42 38 36 26 34
19 6 13 10 6 12 7 14 15 14 16 12 15 15 15 7 15 17 16 16 27 28 32 29 30 27 23 21 21 20 17 13 16 27 32 35 42 44 43 42 42 39 41 39 41 41 38 31 27
18 8 12 12 7 1 4 3 19 6 18 18 14 16 17 9 15 20 22 24 26 32 31 30 29 27 24 23 22 21 20 21 22 24 24 37 37 40 40 42 43 40 37 39 37 37 39 32 29
4 5 3 2 2 8 4 5 21 6 10 14 17 19 18 9 13 19 15 21 22 27 30 28 28 27 25 24 22 22 20 21 22 25 26 22 41 37 37 36 40 39 37 40 38 37 34 30 21
6 4 3 3 2 13 5 8 17 9 15 12 17 18 20 20 11 16 17 17 22 26 28 30 28 25 27 24 23 23 21 22 25 26 25 34 26 35 36 37 38 38 41 39 38 33 28 27 28
8 9 7 5 8 12 4 6 5 4 7 10 12 19 19 18 15 21 21 18 22 27 28 28 28 26 28 25 24 21 17 18 16 19 23 27 28 33 38 37 33 39 39 40 36 34 26 23 24
5 5 11 6 3 5 5 14 11 19 7 12 13 18 24 7 11 20 18 17 24 27 29 29 29 27 28 26 26 24 17 15 15 17 21 26 29 32 40 40 34 38 37 36 34 28 25 23 24
3 4 1 1 4 12 5 6 8 5 11 14 14 20 26 11 2 10 16 17 25 28 27 29 29 27 28 26 26 26 24 22 19 20 22 27 27 29 35 38 41 36 33 29 26 26 25 26 29
6 5 5 2 4 7 5 5 5 6 4 11 17 19 15 15 11 7 9 16 22 24 27 29 29 27 26 26 26 26 27 25 22 23 24 27 28 28 31 32 33 32 31 30 30 30 30 31 32
1 2 4 2 6 4 5 11 7 5 6 10 12 21 17 13 11 6 7 6 19 24 25 28 28 27 28 27 27 26 28 26 25 22 23 25 27 28 31 31 28 29 27 30 32 32 28 30 32

GFSSGP_925_spd_111.txt.gz
Wind_Speed
9 3 1 4 3 5 3 6 3 3 2 4 4 5 7 4 5 4 14 17 19 17 18 18 18 22 24 23 21 21 25 27 29 34 38 38 37 36 34 31 30 27 26 26 25 25 24 26 27
6 4 3 3 4 2 5 4 5 8 4 3 2 4 3 3 1 4 8 19 19 19 18 19 19 21 25 24 23 21 23 27 29 32 36 35 33 32 33 30 27 25 25 24 25 24 25 26 28
5 1 3 4 3 5 5 4 2 9 5 4 1 1 7 4 3 10 10 24 23 22 21 20 19 21 25 25 25 24 21 23 28 32 32 31 30 30 31 29 28 26 24 24 24 24 25 27 26
3 5 4 3 7 7 5 4 4 10 7 4 4 2 1 8 13 20 20 26 25 23 22 20 20 20 23 25 25 25 24 24 28 30 31 31 29 26 28 29 28 25 24 24 25 24 26 27 26
4 3 1 2 6 5 5 6 6 8 5 6 4 3 3 8 5 22 26 29 27 25 23 22 21 20 22 24 25 25 24 25 27 32 33 34 28 19 23 25 26 27 25 25 26 27 30 30 28
3 3 3 5 6 5 4 8 4 5 7 4 2 4 4 7 10 24 31 31 27 27 25 23 22 22 22 24 25 25 25 27 29 29 29 31 33 23 10 18 23 25 25 25 28 34 36 33 28
6 4 5 5 6 8 3 4 4 6 2 6 2 6 4 5 20 28 30 28 28 24 23 23 25 23 23 24 24 25 27 29 26 29 34 36 18 16 23 21 24 24 24 25 32 38 37 33 25
5 4 5 5 3 11 5 4 3 5 7 6 5 5 5 7 17 27 26 22 23 24 23 24 24 24 24 25 24 25 26 27 30 35 37 28 25 34 30 25 24 26 26 29 34 36 35 31 25
5 3 4 6 7 8 6 7 2 5 5 4 3 4 6 6 20 20 17 18 21 22 22 22 24 24 24 24 25 25 26 30 31 37 36 28 32 31 31 31 27 24 27 33 35 34 32 24 23
5 5 10 7 6 9 7 4 15 4 12 9 8 2 1 18 23 15 14 17 23 25 25 24 24 24 23 24 25 28 29 32 34 36 39 39 39 31 36 33 27 28 27 35 35 33 28 22 29
6 7 6 6 8 8 13 4 5 5 9 10 11 9 6 6 16 17 18 20 32 32 28 27 26 25 24 23 23 24 30 29 27 40 45 44 40 35 35 31 27 28 28 34 35 32 27 26 33
5 5 5 4 7 6 6 9 5 9 11 11 12 6 5 9 13 14 18 24 29 31 33 30 27 27 25 22 20 22 25 26 26 38 48 43 39 39 37 37 39 32 31 36 38 34 27 28 35
6 5 8 8 11 10 10 11 12 10 11 12 10 6 9 9 14 25 30 27 28 30 31 32 29 28 25 24 21 22 23 28 27 35 38 42 39 38 38 31 36 36 35 39 38 34 29 29 30
4 3 6 7 7 6 9 12 4 7 9 8 6 9 8 11 15 20 20 27 33 34 32 32 33 29 26 23 23 24 24 26 30 31 38 40 43 40 40 33 36 38 36 40 40 35 31 27 25
3 5 5 6 6 7 2 18 8 8 6 6 9 8 8 6 12 17 33 34 39 38 33 35 33 28 24 22 22 23 22 21 25 31 35 44 43 45 39 37 36 40 38 41 40 35 30 26 22
2 2 4 4 6 4 6 33 1 9 5 10 10 8 8 10 7 19 32 32 34 32 32 33 31 27 25 24 22 22 20 20 19 26 35 41 38 52 38 38 38 40 40 41 40 37 31 26 23
1 9 6 4 6 6 7 19 2 7 11 9 9 9 9 11 12 13 28 35 37 36 33 33 31 28 25 22 22 22 19 19 18 27 33 37 30 44 38 38 38 41 40 39 42 37 36 27 24
6 6 4 4 4 3 6 19 9 9 10 11 9 10 9 9 18 14 17 25 29 34 35 34 31 28 24 21 21 22 17 15 13 16 31 34 30 39 39 38 38 39 41 41 40 37 35 28 26
2 4 7 2 4 5 16 17 14 11 9 11 10 13 14 11 15 15 13 23 22 31 35 36 33 30 26 22 19 18 18 17 14 13 30 34 35 40 40 39 40 39 41 43 43 38 37 27 26
6 8 13 9 10 7 11 20 17 7 8 9 10 14 15 16 9 7 10 22 33 29 34 36 34 32 29 25 20 14 19 19 17 20 29 34 36 39 36 36 37 40 37 42 40 34 32 28 31
7 9 4 12 6 5 8 19 12 7 5 7 9 12 14 16 10 9 9 16 22 30 35 37 35 33 29 25 22 17 19 18 17 23 25 33 38 39 37 38 39 40 38 41 43 38 32 24 34
13 8 13 11 3 9 6 15 20 6 9 6 9 13 13 9 10 9 11 11 23 28 30 33 34 32 29 27 25 26 16 17 16 21 25 26 33 36 38 40 40 43 40 38 37 38 37 31 27
11 8 9 11 9 2 5 2 16 8 16 13 10 10 9 10 10 11 15 19 21 23 30 31 31 30 29 27 27 26 26 19 21 24 25 28 28 38 39 36 36 36 38 36 41 34 34 34 30
3 2 2 1 1 6 6 6 23 4 9 7 10 16 11 11 10 11 14 18 18 20 23 30 30 30 28 28 26 26 23 21 18 21 24 28 31 35 39 40 40 39 35 35 37 38 37 36 34
4 5 2 3 2 11 5 4 15 8 9 8 8 12 12 15 19 13 11 15 21 26 26 26 29 26 27 29 28 26 24 21 22 25 26 23 28 31 44 41 38 38 39 39 38 38 37 37 34
5 8 5 6 5 7 4 6 5 4 3 6 8 7 14 21 22 22 14 18 21 27 27 26 28 25 28 29 27 25 22 21 22 24 26 26 29 25 38 43 41 37 37 42 38 35 36 32 31
2 3 4 4 3 2 5 6 6 4 7 8 8 12 13 18 21 24 6 11 20 27 29 30 27 25 26 29 28 25 23 21 23 23 25 29 32 32 33 43 40 39 39 39 36 31 34 29 27
4 3 2 3 3 6 5 3 5 7 5 8 12 13 15 22 26 21 2 6 15 21 26 26 27 26 26 27 26 26 24 21 19 17 19 20 23 28 34 35 38 39 37 39 39 34 33 28 27
4 3 4 1 1 3 3 5 2 2 1 7 10 12 18 25 24 21 13 7 12 12 17 24 25 25 27 27 26 25 24 20 18 17 19 20 23 29 28 34 33 37 39 39 35 33 34 31 25
4 4 3 3 4 2 3 5 5 12 2 3 2 8 14 21 24 20 18 7 12 9 11 17 22 25 27 27 25 24 23 22 18 18 20 20 22 26 32 28 30 33 36 39 37 33 26 26 25

GFSSGP_925_spd_114.txt.gz
Wind_Speed
6 2 0 4 3 4 3 5 3 4 3 2 4 4 7 4 6 5 3 20 13 14 18 21 22 23 22 24 23 23 21 25 29 31 32 34 34 33 32 31 28 29 26 24 24 23 21 21 24
8 4 3 2 4 2 5 3 4 5 5 4 1 1 1 2 1 1 4 20 19 17 18 20 23 24 24 25 25 24 24 26 27 29 31 33 33 33 32 29 26 25 25 25 24 23 22 23 25
8 2 3 4 3 5 5 5 4 4 7 3 4 2 4 3 2 4 11 22 24 20 19 21 24 26 26 25 27 26 25 26 28 31 32 33 32 32 29 27 25 24 23 24 23 23 24 27 27
4 5 4 3 6 6 5 2 4 9 7 4 5 5 3 6 6 10 18 26 24 24 21 21 24 26 27 27 26 28 26 26 28 31 32 29 30 32 27 26 25 24 22 20 23 25 27 28 28
5 3 2 2 6 5 6 4 1 6 4 5 5 5 4 3 6 10 21 29 29 26 23 22 23 26 27 28 27 25 28 30 30 31 26 28 21 23 24 24 20 20 19 19 21 25 27 28 27
4 3 2 5 6 4 5 7 1 3 5 7 4 4 5 3 7 15 22 30 29 28 26 24 22 26 26 27 27 27 27 30 32 31 33 28 18 21 15 16 18 18 20 19 22 25 26 27 27
7 5 5 4 5 5 5 5 4 3 2 3 3 3 5 7 12 12 20 26 25 24 24 24 24 26 26 26 26 27 27 29 31 32 31 32 36 31 26 17 15 17 20 21 24 28 29 27 26
5 4 6 6 3 7 3 3 4 5 5 6 2 3 6 5 9 14 19 21 20 19 23 24 25 27 26 26 26 26 27 29 31 32 33 35 37 31 28 22 15 20 23 24 26 31 29 27 26
3 3 5 7 7 6 3 5 2 2 4 4 4 3 7 7 11 14 17 17 21 23 23 25 27 29 28 27 26 26 27 28 33 34 37 34 38 24 21 22 25 23 24 25 29 32 30 25 26
4 5 11 7 6 6 3 3 11 4 6 7 7 6 6 4 13 14 11 15 22 26 28 29 29 30 29 28 26 27 27 31 34 36 39 45 37 28 33 32 32 27 27 27 32 33 30 26 28
5 6 5 5 8 6 4 3 5 3 6 8 12 12 0 5 10 11 18 22 35 35 31 32 30 30 30 29 29 29 29 32 34 36 46 42 33 34 35 34 32 31 32 31 34 33 30 27 29
5 7 7 5 7 3 6 2 5 8 10 12 10 7 5 7 9 11 16 24 32 31 34 32 31 31 30 28 29 30 31 31 33 38 43 41 39 40 38 36 37 37 34 37 36 34 28 27 31
5 4 7 8 9 8 5 12 13 7 10 11 10 6 9 8 9 17 23 23 18 27 35 36 35 33 31 28 27 27 29 31 30 34 39 40 40 41 39 37 37 37 39 39 37 33 30 29 32
4 5 6 6 8 6 7 9 4 6 5 8 8 9 6 7 10 13 19 29 27 37 38 37 36 34 32 31 28 27 26 27 27 29 37 41 43 40 37 35 35 40 37 42 41 35 30 30 31
4 6 5 5 6 7 4 7 9 10 6 6 7 8 8 9 12 12 26 27 36 40 38 39 36 35 33 30 28 27 24 25 27 30 31 44 46 40 39 35 33 38 38 42 41 32 26 28 30
2 1 2 3 5 5 9 15 3 3 5 10 10 8 7 9 9 20 23 28 34 32 36 35 34 35 33 30 27 26 23 25 26 28 32 38 40 45 39 37 35 40 40 42 42 34 31 30 30
2 7 7 4 5 2 7 12 5 5 9 8 8 9 10 10 11 18 23 27 28 31 34 34 35 37 34 30 24 24 23 25 26 29 32 37 42 38 46 41 38 42 39 42 44 38 34 29 28
6 5 4 4 2 2 6 14 8 9 7 10 9 9 10 12 15 18 24 26 23 25 31 33 34 37 33 28 23 23 24 25 27 26 29 35 42 37 45 40 43 43 41 40 40 41 34 31 29
1 4 5 1 3 5 14 19 10 8 6 9 9 8 10 14 14 19 25 21 14 21 28 33 36 36 33 27 23 21 24 25 24 23 20 27 34 45 39 45 42 42 43 43 43 42 36 28 29
6 5 13 4 6 5 8 18 11 9 7 9 8 9 10 11 18 16 17 13 18 23 29 34 37 37 32 28 24 17 20 20 22 17 20 23 20 37 38 40 42 41 38 42 41 34 29 24 33
6 8 4 8 2 5 5 10 4 5 3 5 7 7 9 13 16 18 9 12 18 20 26 30 34 36 32 26 22 19 18 15 15 15 24 24 24 33 35 36 40 41 40 42 43 40 35 25 33
14 10 11 10 3 4 3 9 5 5 2 3 9 9 9 10 13 13 10 6 17 17 22 25 31 32 33 31 23 25 18 14 12 20 22 28 29 31 31 32 33 37 37 38 42 40 37 31 28
6 7 8 5 5 2 4 3 4 7 9 6 7 8 8 8 10 13 16 14 16 20 25 28 25 27 32 32 30 23 18 18 18 21 20 26 29 33 33 32 30 32 36 39 41 36 36 33 32
3 4 3 2 3 3 8 6 14 2 4 3 4 7 6 8 10 13 17 16 13 20 27 26 26 26 32 32 30 28 25 22 20 21 23 21 28 32 34 36 36 34 37 38 42 40 40 38 34
4 5 1 2 1 4 6 4 14 7 6 2 3 6 7 6 9 14 15 12 9 16 20 23 26 26 31 33 31 26 25 24 23 24 22 23 24 25 31 36 39 39 39 38 40 37 41 38 34
6 8 5 5 4 3 1 5 5 2 3 3 1 5 7 11 11 13 17 18 9 16 20 23 25 25 30 31 29 24 22 22 23 24 23 24 24 26 29 37 36 38 40 38 38 37 38 38 33
4 4 3 3 1 2 4 5 5 5 8 9 10 9 9 11 10 12 16 16 9 12 18 23 23 25 29 29 26 25 24 23 22 20 19 24 27 27 29 35 37 40 39 40 40 36 36 37 32
2 2 3 2 3 5 3 2 1 9 8 8 9 8 9 12 12 13 14 18 24 14 16 20 21 20 24 27 25 24 25 23 20 17 19 22 26 28 31 36 36 39 44 43 41 35 35 35 33
1 2 4 4 2 1 2 3 4 5 5 8 9 7 8 13 10 13 17 24 30 13 16 17 20 20 19 21 24 23 25 22 18 17 14 18 20 23 28 35 36 36 44 44 42 40 38 39 36
4 3 3 3 3 2 1 5 5 4 5 8 10 10 8 8 11 16 20 21 10 12 15 17 19 19 19 20 19 22 24 24 19 16 14 13 15 21 24 27 31 33 36 42 42 40 40 38 35

GFSSGP_925_spd_117.txt.gz
Wind_Speed
8 5 4 4 2 1 2 3 2 1 1 2 4 4 7 2 5 2 2 20 11 15 17 14 15 16 18 20 20 19 19 25 26 26 29 30 30 30 30 28 28 28 26 24 25 26 24 24 25
12 8 4 3 2 2 2 2 4 4 2 4 4 3 4 2 3 2 5 22 15 17 17 17 17 18 18 22 21 20 20 24 26 27 29 30 30 30 29 29 28 27 24 22 20 20 22 23 25
10 5 2 3 3 4 3 5 5 3 9 3 3 2 2 2 2 3 10 22 17 18 19 19 17 20 20 23 22 22 22 25 27 28 30 31 32 30 30 28 28 26 24 22 20 18 21 23 25
4 2 3 3 9 5 4 3 3 6 2 4 2 3 2 5 4 6 16 23 22 18 19 18 17 21 22 23 23 23 24 25 28 30 30 29 27 24 23 18 20 20 20 20 19 21 19 23 26
4 1 2 3 5 4 6 5 4 5 4 2 3 3 4 3 8 5 16 24 24 22 21 20 19 21 23 24 24 24 24 26 29 30 30 29 25 13 20 10 15 15 16 16 17 20 19 24 25
2 1 2 7 8 4 5 7 3 1 3 4 4 1 4 4 4 7 20 23 25 24 23 21 20 22 24 25 26 25 25 26 28 29 31 32 28 31 29 22 18 18 17 17 17 19 22 25 24
4 3 4 5 5 4 5 5 4 3 2 3 3 3 1 3 6 7 15 21 22 22 22 21 23 25 25 26 26 26 26 27 27 32 32 30 32 34 26 30 26 20 18 17 18 21 23 25 24
4 3 4 4 9 7 4 5 6 2 2 5 1 1 4 7 10 7 11 15 19 21 23 24 24 26 25 26 26 26 26 27 29 33 29 33 33 28 32 32 29 28 20 17 20 22 24 25 24
4 4 8 9 7 4 3 3 1 0 2 3 3 2 8 11 7 5 8 12 17 22 24 26 27 28 27 27 27 27 27 27 29 31 33 33 29 31 34 31 29 22 21 26 23 21 23 24 23
5 6 11 7 8 6 3 2 5 4 6 6 6 7 10 6 6 10 14 17 20 22 28 29 28 29 29 28 28 29 28 28 29 30 31 32 33 30 29 29 26 23 25 26 23 23 24 24 21
6 11 6 6 12 6 4 6 4 9 12 8 13 16 4 8 9 12 17 20 27 23 23 29 30 29 31 31 29 30 30 29 31 29 31 35 37 35 29 27 27 27 28 28 25 25 25 22 21
6 8 11 6 6 6 9 6 10 10 10 14 13 12 7 10 10 11 16 19 16 13 20 26 29 32 33 32 31 29 30 31 33 35 36 38 37 36 28 27 30 27 26 23 30 31 24 22 20
7 7 8 11 11 9 9 15 13 11 13 13 12 9 13 10 11 12 15 17 15 20 24 29 31 32 34 34 32 29 31 32 33 34 37 40 33 31 36 31 32 31 28 27 33 30 27 21 22
3 7 15 10 12 12 15 17 7 7 9 11 9 12 8 7 9 9 9 16 17 24 26 28 35 36 34 36 34 33 32 32 32 31 34 40 38 40 36 37 31 34 34 27 34 38 33 20 19
5 8 9 8 7 8 7 11 11 17 7 7 5 6 9 10 10 13 16 15 20 25 25 29 32 39 39 37 34 33 32 31 32 30 30 38 42 42 40 39 39 34 40 33 33 32 33 20 19
3 3 5 4 9 6 10 15 8 3 4 6 9 8 9 12 11 16 19 21 25 26 25 27 28 35 41 40 37 34 31 28 27 28 33 34 40 41 38 35 34 38 40 39 39 32 27 21 21
4 11 10 3 7 2 11 5 7 2 6 12 12 12 12 12 13 17 19 21 24 26 26 25 27 32 39 37 36 33 29 26 25 28 30 35 37 38 39 38 36 41 42 40 35 31 30 24 22
11 9 6 8 2 2 11 12 8 10 9 11 12 14 12 12 15 19 22 23 23 27 29 24 26 28 32 34 32 27 23 23 23 26 28 32 32 39 43 39 40 42 38 34 34 32 26 26 24
9 8 8 3 3 6 16 19 14 14 10 13 13 12 10 11 12 18 22 20 21 20 16 19 23 26 31 31 28 25 23 23 24 25 24 28 32 37 40 35 43 43 42 40 36 34 30 23 23
15 17 17 8 11 7 13 18 11 14 11 11 10 9 10 8 12 14 20 20 16 15 12 16 20 26 30 29 26 18 21 20 21 22 23 26 31 35 35 39 45 45 41 36 39 37 30 24 26
16 18 15 13 2 6 8 13 6 3 4 3 7 9 7 6 11 14 17 23 19 13 14 16 19 22 26 25 23 15 15 12 19 22 23 23 27 26 29 34 42 43 43 41 40 36 33 25 26
17 13 16 12 6 6 2 7 3 3 5 4 5 3 4 9 12 14 17 20 26 18 13 14 18 23 26 27 23 22 18 13 14 18 19 20 18 25 33 37 43 42 40 38 38 36 36 33 29
13 8 15 12 11 2 7 5 4 4 2 0 3 5 5 7 10 14 16 21 29 13 11 15 19 23 26 31 27 23 19 17 13 16 19 19 23 29 34 39 41 41 37 39 39 34 33 31 30
7 5 3 3 4 6 12 10 4 5 5 2 3 6 7 9 12 12 16 21 25 12 6 12 17 21 24 25 26 25 24 21 17 19 21 24 23 27 30 30 34 40 36 38 38 38 36 34 32
7 7 4 4 5 5 8 9 1 6 4 3 5 8 10 11 14 15 15 16 22 16 8 11 16 20 24 24 22 24 24 20 21 20 21 21 24 24 29 30 29 29 33 36 36 36 36 36 34
14 12 5 8 7 4 2 6 5 8 8 5 5 6 8 13 14 15 15 15 21 19 10 12 16 19 21 23 19 18 20 18 18 23 20 25 20 26 30 34 33 34 32 32 37 35 35 35 34
6 8 11 6 2 2 4 2 7 8 10 14 14 11 12 13 14 16 17 19 25 22 16 17 18 19 21 21 20 18 18 22 20 20 24 21 23 25 23 34 33 34 37 35 35 34 34 35 35
1 4 4 2 7 8 6 4 5 7 9 11 14 14 13 13 13 13 14 20 27 28 16 14 20 20 22 22 22 20 19 17 19 19 18 18 21 21 26 30 30 36 37 38 38 34 34 37 35
3 1 3 4 1 5 5 3 8 6 6 10 12 12 11 12 12 13 13 20 29 33 13 11 16 19 22 23 23 20 18 19 19 18 17 15 17 17 19 25 29 35 44 42 40 36 34 36 35
3 1 3 4 5 1 1 3 11 4 6 9 12 14 11 7 9 11 11 15 24 27 23 14 18 18 23 24 23 21 20 20 18 19 14 12 14 17 20 24 30 35 33 43 45 40 39 39 36

GFSSGP_925_spd_120.txt.gz
Wind_Speed
6 4 4 7 6 5 9 6 1 6 6 3 3 5 3 5 2 4 3 13 9 13 12 10 11 12 16 15 15 15 17 21 23 23 24 25 26 25 26 26 25 23 21 22 22 22 21 24 23
7 5 6 3 7 9 7 5 9 5 3 1 5 8 6 2 1 1 8 15 12 14 13 13 12 12 18 17 15 15 16 20 23 24 26 26 26 26 26 26 24 22 19 20 21 21 21 24 24
9 6 5 4 7 11 6 9 9 3 1 7 7 7 4 3 4 2 3 18 14 14 14 14 14 13 18 19 17 16 17 21 23 24 27 27 26 25 24 24 23 21 19 20 18 18 20 24 22
9 6 4 8 14 6 5 9 8 1 3 5 4 6 4 4 4 6 11 19 16 14 13 15 15 16 19 21 21 19 20 21 23 25 27 28 26 23 14 13 11 14 17 15 16 16 18 22 22
7 3 9 11 15 8 8 4 3 4 0 5 6 9 5 4 4 2 10 18 16 14 13 15 17 17 20 22 23 23 21 22 24 26 27 28 26 29 30 24 16 5 12 15 16 17 18 21 21
7 4 9 13 17 8 9 7 7 6 2 2 6 5 7 2 1 2 7 13 16 16 14 13 16 18 20 22 22 23 25 24 25 27 26 27 29 28 26 27 20 22 18 17 16 17 17 21 21
14 10 16 17 16 10 10 7 11 10 6 5 0 7 4 5 6 2 6 11 13 15 14 14 17 19 20 22 22 22 22 25 26 25 26 29 29 27 27 27 25 24 24 20 17 19 18 21 21
9 10 18 13 16 19 7 8 7 10 8 1 2 5 7 7 5 1 6 11 12 14 15 16 16 19 19 20 24 24 23 23 24 26 27 28 29 27 27 25 26 25 21 18 19 21 19 22 21
7 10 16 19 16 14 5 10 8 3 7 2 5 6 6 7 4 2 4 10 13 16 18 17 17 19 19 20 22 25 25 24 24 26 28 29 23 24 26 23 26 23 22 22 26 26 20 22 21
14 15 22 18 15 9 6 8 9 7 10 11 12 10 9 8 8 7 8 12 17 20 20 19 19 19 20 22 21 23 22 22 22 22 24 24 24 25 22 24 25 25 25 26 27 24 23 21 18
13 22 16 9 16 14 14 13 14 14 17 15 14 11 7 9 10 9 10 13 16 17 18 20 19 19 21 21 22 25 24 23 23 24 25 25 26 22 23 23 26 24 24 25 23 21 21 21 19
16 15 17 14 14 15 17 17 17 17 18 13 13 13 10 11 10 10 12 12 12 13 17 20 21 21 23 21 25 25 23 28 24 25 27 28 26 24 25 25 27 23 25 24 22 25 21 21 20
20 19 17 15 18 19 19 21 22 21 13 16 18 15 14 12 12 13 11 11 10 14 16 20 22 24 25 26 29 28 29 26 26 26 26 27 27 27 28 29 28 29 29 24 24 21 25 23 21
11 13 16 17 18 18 18 21 21 16 13 14 15 15 15 13 11 8 10 11 10 11 13 16 22 25 24 30 32 33 33 27 29 32 29 28 27 28 31 30 27 30 26 26 27 24 25 25 22
15 18 18 18 17 16 14 21 23 19 18 18 15 12 9 9 12 11 11 13 13 14 15 15 19 23 28 27 31 33 32 33 27 30 30 28 32 29 33 32 29 34 30 26 25 25 25 25 22
12 17 17 15 18 21 18 20 7 6 5 11 8 8 10 11 11 13 13 13 15 17 19 19 19 22 27 29 29 27 29 32 34 27 29 30 33 36 35 32 33 32 35 33 30 28 27 26 23
18 18 19 16 9 12 17 13 6 4 7 9 9 11 11 10 10 12 9 11 13 16 20 20 20 23 26 29 30 29 26 25 27 28 24 29 36 34 34 33 33 35 34 38 37 30 30 27 25
18 18 17 19 15 16 18 18 14 10 12 12 13 13 12 11 10 7 10 11 12 14 18 21 22 21 23 24 28 26 25 25 23 28 24 23 28 36 36 32 34 37 37 36 36 34 30 30 27
19 19 19 17 9 13 18 18 14 12 17 16 15 14 12 10 5 9 8 11 12 13 13 15 17 18 22 26 29 26 25 23 22 22 23 24 24 32 36 34 35 41 40 38 41 37 33 30 28
22 22 24 19 9 13 19 22 20 14 18 16 14 11 8 5 5 8 13 15 15 17 14 13 13 17 22 24 26 20 21 19 20 19 20 22 23 31 34 34 34 42 39 40 39 38 32 31 32
21 23 18 18 13 15 17 21 21 14 14 10 9 5 1 1 5 8 12 14 15 17 15 13 11 13 20 22 23 21 20 13 16 21 23 25 25 26 28 33 30 41 43 40 40 40 36 31 31
19 16 16 16 10 14 11 10 8 9 9 11 6 4 3 0 5 7 10 13 15 18 13 9 9 11 19 23 24 26 24 20 19 21 22 22 23 24 27 33 35 38 42 41 45 40 38 35 32
16 11 10 15 16 18 16 8 11 7 15 10 7 5 3 2 4 8 10 12 14 17 15 9 7 10 17 22 25 25 21 16 14 18 19 20 22 22 21 27 32 42 43 44 43 40 37 35 33
19 13 10 11 11 15 17 14 10 15 17 8 8 7 4 4 6 9 12 13 15 17 13 10 7 10 15 22 23 22 18 14 14 17 17 17 19 17 21 27 33 39 36 41 41 40 38 33 32
13 12 8 9 10 16 11 11 14 9 7 7 7 5 3 6 7 10 13 13 16 19 16 9 7 11 13 20 20 20 17 17 17 16 17 18 20 21 25 29 33 33 36 39 38 38 37 34 32
17 17 10 12 14 16 10 9 7 10 9 8 5 2 4 5 8 11 12 12 17 20 20 15 9 13 15 20 20 20 20 18 19 17 16 20 19 21 27 29 31 33 35 41 36 36 36 34 33
15 16 20 14 9 8 8 8 8 10 10 8 6 4 6 7 8 10 11 12 15 18 23 18 9 11 16 20 20 21 20 19 19 17 17 17 21 23 22 28 27 31 36 37 35 31 32 32 32
13 12 14 10 17 21 18 17 9 16 10 7 8 8 7 8 9 9 9 11 16 17 16 22 11 11 15 18 22 22 22 22 19 16 16 15 18 18 27 30 30 30 31 38 37 29 30 31 31
5 8 5 8 15 16 16 13 14 16 8 4 6 9 9 10 9 8 8 13 17 15 17 16 17 13 14 19 24 23 22 21 20 18 16 14 15 17 19 26 30 31 33 34 34 36 32 33 32
8 5 3 4 14 11 8 4 13 11 4 4 6 8 8 11 9 7 7 10 14 15 16 20 21 17 17 20 23 22 20 21 20 19 17 14 13 13 16 18 21 26 36 38 36 35 33 36 34